<?xml version="1.0" encoding="UTF-8" standalone="no" ?>
<gpx xmlns="http://www.topografix.com/GPX/1/1" xmlns:xsi="http://www.w3.org/2001/XMLSchema-instance" xsi:schemaLocation="http://www.topografix.com/GPX/1/1 http://www.topografix.com/GPX/1/1/gpx.xsd" version="1.1" creator="VisuGPX - https://www.visugpx.com">
  <metadata>
    <name>RANDO LAC D ISSARLES 29 KM</name>
    <desc><![CDATA[RANDO LAC D ISSARLES 29 KM.DEPART ARRIVEE PARKING VERS LA MAISON DE RETRAITE AU BORD DU LAC.LA RAJASSE.LAC DE PEYRON.CHAMP EOLIEN DE GEORAND.CROS DE GEORAND.LAC DE LAPALISSE]]></desc>
  </metadata>
  <trk>
    <name><![CDATA[BBBBBBBBBBBBBBBBB59]]></name>
    <extensions>
      <line xmlns="http://www.topografix.com/GPX/gpx_style/0/2">
        <color>0000FF</color>
        <width>4</width>
      </line>
    </extensions>
    <trkseg>
      <trkpt lat="44.81589" lon="4.06291">
        <ele>1076.81</ele>
        <time>2019-07-28T07:39:23Z</time>
      </trkpt>
      <trkpt lat="44.81586" lon="4.06296">
        <ele>1040.76</ele>
        <time>2019-07-28T07:39:38Z</time>
      </trkpt>
      <trkpt lat="44.81584" lon="4.063">
        <ele>1029.71</ele>
        <time>2019-07-28T07:39:55Z</time>
      </trkpt>
      <trkpt lat="44.81581" lon="4.06305">
        <ele>1027.31</ele>
        <time>2019-07-28T07:40:02Z</time>
      </trkpt>
      <trkpt lat="44.81579" lon="4.0631">
        <ele>1025.86</ele>
        <time>2019-07-28T07:40:09Z</time>
      </trkpt>
      <trkpt lat="44.81575" lon="4.0632">
        <ele>1025.38</ele>
        <time>2019-07-28T07:40:32Z</time>
      </trkpt>
      <trkpt lat="44.81567" lon="4.06324">
        <ele>1025.38</ele>
        <time>2019-07-28T07:40:44Z</time>
      </trkpt>
      <trkpt lat="44.81557" lon="4.06325">
        <ele>1022.02</ele>
        <time>2019-07-28T07:41:04Z</time>
      </trkpt>
      <trkpt lat="44.81556" lon="4.06321">
        <ele>1019.62</ele>
        <time>2019-07-28T07:41:30Z</time>
      </trkpt>
      <trkpt lat="44.81555" lon="4.06319">
        <ele>1019.13</ele>
        <time>2019-07-28T07:41:53Z</time>
      </trkpt>
      <trkpt lat="44.81553" lon="4.06324">
        <ele>1019.13</ele>
        <time>2019-07-28T07:42:14Z</time>
      </trkpt>
      <trkpt lat="44.8155" lon="4.06327">
        <ele>1019.62</ele>
        <time>2019-07-28T07:42:39Z</time>
      </trkpt>
      <trkpt lat="44.81551" lon="4.06328">
        <ele>1017.21</ele>
        <time>2019-07-28T07:42:59Z</time>
      </trkpt>
      <trkpt lat="44.81552" lon="4.06329">
        <ele>1015.77</ele>
        <time>2019-07-28T07:43:21Z</time>
      </trkpt>
      <trkpt lat="44.81553" lon="4.06331">
        <ele>1012.89</ele>
        <time>2019-07-28T07:43:44Z</time>
      </trkpt>
      <trkpt lat="44.81554" lon="4.0633">
        <ele>1013.37</ele>
        <time>2019-07-28T07:44:34Z</time>
      </trkpt>
      <trkpt lat="44.81557" lon="4.06329">
        <ele>1015.77</ele>
        <time>2019-07-28T07:44:55Z</time>
      </trkpt>
      <trkpt lat="44.81557" lon="4.06328">
        <ele>1015.29</ele>
        <time>2019-07-28T07:44:56Z</time>
      </trkpt>
      <trkpt lat="44.81557" lon="4.06327">
        <ele>1014.33</ele>
        <time>2019-07-28T07:44:58Z</time>
      </trkpt>
      <trkpt lat="44.81561" lon="4.06324">
        <ele>1014.81</ele>
        <time>2019-07-28T07:45:01Z</time>
      </trkpt>
      <trkpt lat="44.81575" lon="4.0632">
        <ele>1011.44</ele>
        <time>2019-07-28T07:45:13Z</time>
      </trkpt>
      <trkpt lat="44.81598" lon="4.06317">
        <ele>1004.23</ele>
        <time>2019-07-28T07:45:32Z</time>
      </trkpt>
      <trkpt lat="44.81605" lon="4.06316">
        <ele>1002.31</ele>
        <time>2019-07-28T07:45:40Z</time>
      </trkpt>
      <trkpt lat="44.81619" lon="4.06319">
        <ele>993.66</ele>
        <time>2019-07-28T07:46:02Z</time>
      </trkpt>
      <trkpt lat="44.8164" lon="4.06327">
        <ele>987.41</ele>
        <time>2019-07-28T07:46:23Z</time>
      </trkpt>
      <trkpt lat="44.81643" lon="4.06329">
        <ele>987.41</ele>
        <time>2019-07-28T07:46:30Z</time>
      </trkpt>
      <trkpt lat="44.81651" lon="4.06331">
        <ele>986.93</ele>
        <time>2019-07-28T07:46:35Z</time>
      </trkpt>
      <trkpt lat="44.81679" lon="4.06337">
        <ele>983.57</ele>
        <time>2019-07-28T07:46:55Z</time>
      </trkpt>
      <trkpt lat="44.81707" lon="4.06344">
        <ele>981.16</ele>
        <time>2019-07-28T07:47:16Z</time>
      </trkpt>
      <trkpt lat="44.81733" lon="4.0635">
        <ele>981.64</ele>
        <time>2019-07-28T07:47:36Z</time>
      </trkpt>
      <trkpt lat="44.81735" lon="4.06351">
        <ele>982.12</ele>
        <time>2019-07-28T07:47:38Z</time>
      </trkpt>
      <trkpt lat="44.81766" lon="4.06362">
        <ele>982.6</ele>
        <time>2019-07-28T07:48:02Z</time>
      </trkpt>
      <trkpt lat="44.81797" lon="4.06379">
        <ele>988.37</ele>
        <time>2019-07-28T07:48:25Z</time>
      </trkpt>
      <trkpt lat="44.81821" lon="4.06391">
        <ele>992.22</ele>
        <time>2019-07-28T07:48:45Z</time>
      </trkpt>
      <trkpt lat="44.81849" lon="4.06409">
        <ele>996.54</ele>
        <time>2019-07-28T07:49:05Z</time>
      </trkpt>
      <trkpt lat="44.81874" lon="4.06422">
        <ele>999.43</ele>
        <time>2019-07-28T07:49:26Z</time>
      </trkpt>
      <trkpt lat="44.81895" lon="4.06445">
        <ele>1002.31</ele>
        <time>2019-07-28T07:49:46Z</time>
      </trkpt>
      <trkpt lat="44.81916" lon="4.06468">
        <ele>1002.31</ele>
        <time>2019-07-28T07:50:04Z</time>
      </trkpt>
      <trkpt lat="44.81927" lon="4.06502">
        <ele>1002.31</ele>
        <time>2019-07-28T07:50:27Z</time>
      </trkpt>
      <trkpt lat="44.81938" lon="4.06528">
        <ele>1002.31</ele>
        <time>2019-07-28T07:50:47Z</time>
      </trkpt>
      <trkpt lat="44.81953" lon="4.06551">
        <ele>1002.31</ele>
        <time>2019-07-28T07:51:04Z</time>
      </trkpt>
      <trkpt lat="44.82003" lon="4.06557">
        <ele>1004.72</ele>
        <time>2019-07-28T07:53:40Z</time>
      </trkpt>
      <trkpt lat="44.82004" lon="4.0658">
        <ele>1015.77</ele>
        <time>2019-07-28T07:53:51Z</time>
      </trkpt>
      <trkpt lat="44.82012" lon="4.06588">
        <ele>1023.94</ele>
        <time>2019-07-28T07:54:06Z</time>
      </trkpt>
      <trkpt lat="44.8202" lon="4.06594">
        <ele>1023.94</ele>
        <time>2019-07-28T07:54:18Z</time>
      </trkpt>
      <trkpt lat="44.82032" lon="4.06604">
        <ele>1024.9</ele>
        <time>2019-07-28T07:54:30Z</time>
      </trkpt>
      <trkpt lat="44.82044" lon="4.06611">
        <ele>1025.38</ele>
        <time>2019-07-28T07:54:41Z</time>
      </trkpt>
      <trkpt lat="44.82068" lon="4.06619">
        <ele>1025.38</ele>
        <time>2019-07-28T07:54:58Z</time>
      </trkpt>
      <trkpt lat="44.82092" lon="4.06634">
        <ele>1025.38</ele>
        <time>2019-07-28T07:55:17Z</time>
      </trkpt>
      <trkpt lat="44.82103" lon="4.06653">
        <ele>1025.38</ele>
        <time>2019-07-28T07:55:39Z</time>
      </trkpt>
      <trkpt lat="44.8212" lon="4.06664">
        <ele>1025.38</ele>
        <time>2019-07-28T07:56:02Z</time>
      </trkpt>
      <trkpt lat="44.82141" lon="4.06678">
        <ele>1024.42</ele>
        <time>2019-07-28T07:56:23Z</time>
      </trkpt>
      <trkpt lat="44.82147" lon="4.06681">
        <ele>1024.42</ele>
        <time>2019-07-28T07:56:27Z</time>
      </trkpt>
      <trkpt lat="44.82206" lon="4.06704">
        <ele>1023.46</ele>
        <time>2019-07-28T07:56:38Z</time>
      </trkpt>
      <trkpt lat="44.82221" lon="4.06721">
        <ele>1025.38</ele>
        <time>2019-07-28T07:56:51Z</time>
      </trkpt>
      <trkpt lat="44.82239" lon="4.06739">
        <ele>1027.79</ele>
        <time>2019-07-28T07:57:09Z</time>
      </trkpt>
      <trkpt lat="44.82246" lon="4.06746">
        <ele>1028.27</ele>
        <time>2019-07-28T07:57:17Z</time>
      </trkpt>
      <trkpt lat="44.82254" lon="4.06751">
        <ele>1029.23</ele>
        <time>2019-07-28T07:57:22Z</time>
      </trkpt>
      <trkpt lat="44.82274" lon="4.06775">
        <ele>1029.23</ele>
        <time>2019-07-28T07:57:40Z</time>
      </trkpt>
      <trkpt lat="44.82276" lon="4.06779">
        <ele>1028.75</ele>
        <time>2019-07-28T07:57:44Z</time>
      </trkpt>
      <trkpt lat="44.82291" lon="4.06801">
        <ele>1026.34</ele>
        <time>2019-07-28T07:58:02Z</time>
      </trkpt>
      <trkpt lat="44.82298" lon="4.06811">
        <ele>1025.38</ele>
        <time>2019-07-28T07:58:11Z</time>
      </trkpt>
      <trkpt lat="44.82313" lon="4.06842">
        <ele>1023.46</ele>
        <time>2019-07-28T07:58:30Z</time>
      </trkpt>
      <trkpt lat="44.82331" lon="4.06877">
        <ele>1017.69</ele>
        <time>2019-07-28T07:58:51Z</time>
      </trkpt>
      <trkpt lat="44.82354" lon="4.06917">
        <ele>1011.93</ele>
        <time>2019-07-28T07:59:13Z</time>
      </trkpt>
      <trkpt lat="44.82364" lon="4.06937">
        <ele>1008.56</ele>
        <time>2019-07-28T07:59:26Z</time>
      </trkpt>
      <trkpt lat="44.82369" lon="4.06985">
        <ele>1005.68</ele>
        <time>2019-07-28T07:59:48Z</time>
      </trkpt>
      <trkpt lat="44.8237" lon="4.07002">
        <ele>1004.72</ele>
        <time>2019-07-28T08:00:00Z</time>
      </trkpt>
      <trkpt lat="44.8237" lon="4.07018">
        <ele>1004.72</ele>
        <time>2019-07-28T08:00:09Z</time>
      </trkpt>
      <trkpt lat="44.82368" lon="4.07056">
        <ele>1002.79</ele>
        <time>2019-07-28T08:00:29Z</time>
      </trkpt>
      <trkpt lat="44.82367" lon="4.07081">
        <ele>1001.83</ele>
        <time>2019-07-28T08:00:44Z</time>
      </trkpt>
      <trkpt lat="44.82379" lon="4.07098">
        <ele>1003.27</ele>
        <time>2019-07-28T08:00:54Z</time>
      </trkpt>
      <trkpt lat="44.82382" lon="4.07119">
        <ele>1007.12</ele>
        <time>2019-07-28T08:01:02Z</time>
      </trkpt>
      <trkpt lat="44.82382" lon="4.07121">
        <ele>1007.6</ele>
        <time>2019-07-28T08:01:03Z</time>
      </trkpt>
      <trkpt lat="44.82384" lon="4.07135">
        <ele>1010.48</ele>
        <time>2019-07-28T08:01:13Z</time>
      </trkpt>
      <trkpt lat="44.82383" lon="4.07152">
        <ele>1011.44</ele>
        <time>2019-07-28T08:01:21Z</time>
      </trkpt>
      <trkpt lat="44.82384" lon="4.07184">
        <ele>1009.52</ele>
        <time>2019-07-28T08:01:39Z</time>
      </trkpt>
      <trkpt lat="44.82385" lon="4.07192">
        <ele>1009.52</ele>
        <time>2019-07-28T08:01:43Z</time>
      </trkpt>
      <trkpt lat="44.82385" lon="4.07222">
        <ele>1007.12</ele>
        <time>2019-07-28T08:02:02Z</time>
      </trkpt>
      <trkpt lat="44.82383" lon="4.07241">
        <ele>1008.08</ele>
        <time>2019-07-28T08:02:14Z</time>
      </trkpt>
      <trkpt lat="44.82385" lon="4.07249">
        <ele>1008.56</ele>
        <time>2019-07-28T08:02:23Z</time>
      </trkpt>
      <trkpt lat="44.82386" lon="4.07245">
        <ele>1008.56</ele>
        <time>2019-07-28T08:02:26Z</time>
      </trkpt>
      <trkpt lat="44.82393" lon="4.07228">
        <ele>1008.56</ele>
        <time>2019-07-28T08:02:41Z</time>
      </trkpt>
      <trkpt lat="44.82398" lon="4.07233">
        <ele>1009.04</ele>
        <time>2019-07-28T08:02:57Z</time>
      </trkpt>
      <trkpt lat="44.824" lon="4.07239">
        <ele>1009.04</ele>
        <time>2019-07-28T08:03:02Z</time>
      </trkpt>
      <trkpt lat="44.82405" lon="4.07265">
        <ele>1012.41</ele>
        <time>2019-07-28T08:03:12Z</time>
      </trkpt>
      <trkpt lat="44.82407" lon="4.07288">
        <ele>1015.29</ele>
        <time>2019-07-28T08:03:23Z</time>
      </trkpt>
      <trkpt lat="44.82407" lon="4.07308">
        <ele>1018.17</ele>
        <time>2019-07-28T08:03:32Z</time>
      </trkpt>
      <trkpt lat="44.82408" lon="4.07326">
        <ele>1019.62</ele>
        <time>2019-07-28T08:03:42Z</time>
      </trkpt>
      <trkpt lat="44.82404" lon="4.07342">
        <ele>1021.54</ele>
        <time>2019-07-28T08:03:53Z</time>
      </trkpt>
      <trkpt lat="44.82404" lon="4.07343">
        <ele>1021.54</ele>
        <time>2019-07-28T08:03:54Z</time>
      </trkpt>
      <trkpt lat="44.82403" lon="4.07366">
        <ele>1021.54</ele>
        <time>2019-07-28T08:04:06Z</time>
      </trkpt>
      <trkpt lat="44.82403" lon="4.07367">
        <ele>1022.02</ele>
        <time>2019-07-28T08:04:09Z</time>
      </trkpt>
      <trkpt lat="44.82403" lon="4.07375">
        <ele>1021.54</ele>
        <time>2019-07-28T08:04:13Z</time>
      </trkpt>
      <trkpt lat="44.82401" lon="4.07398">
        <ele>1019.13</ele>
        <time>2019-07-28T08:04:25Z</time>
      </trkpt>
      <trkpt lat="44.82399" lon="4.07417">
        <ele>1016.25</ele>
        <time>2019-07-28T08:04:35Z</time>
      </trkpt>
      <trkpt lat="44.82399" lon="4.07436">
        <ele>1014.33</ele>
        <time>2019-07-28T08:04:46Z</time>
      </trkpt>
      <trkpt lat="44.82399" lon="4.07445">
        <ele>1012.41</ele>
        <time>2019-07-28T08:04:51Z</time>
      </trkpt>
      <trkpt lat="44.82398" lon="4.07456">
        <ele>1012.89</ele>
        <time>2019-07-28T08:04:55Z</time>
      </trkpt>
      <trkpt lat="44.82395" lon="4.07484">
        <ele>1014.33</ele>
        <time>2019-07-28T08:05:09Z</time>
      </trkpt>
      <trkpt lat="44.8239" lon="4.07498">
        <ele>1015.77</ele>
        <time>2019-07-28T08:05:17Z</time>
      </trkpt>
      <trkpt lat="44.82387" lon="4.07514">
        <ele>1017.21</ele>
        <time>2019-07-28T08:05:27Z</time>
      </trkpt>
      <trkpt lat="44.82385" lon="4.0754">
        <ele>1018.17</ele>
        <time>2019-07-28T08:05:39Z</time>
      </trkpt>
      <trkpt lat="44.82382" lon="4.07568">
        <ele>1018.65</ele>
        <time>2019-07-28T08:05:51Z</time>
      </trkpt>
      <trkpt lat="44.82376" lon="4.0759">
        <ele>1018.17</ele>
        <time>2019-07-28T08:06:04Z</time>
      </trkpt>
      <trkpt lat="44.82376" lon="4.07592">
        <ele>1018.65</ele>
        <time>2019-07-28T08:06:06Z</time>
      </trkpt>
      <trkpt lat="44.82376" lon="4.07601">
        <ele>1018.65</ele>
        <time>2019-07-28T08:06:13Z</time>
      </trkpt>
      <trkpt lat="44.82388" lon="4.07624">
        <ele>1021.54</ele>
        <time>2019-07-28T08:06:28Z</time>
      </trkpt>
      <trkpt lat="44.82401" lon="4.07651">
        <ele>1023.46</ele>
        <time>2019-07-28T08:06:40Z</time>
      </trkpt>
      <trkpt lat="44.82407" lon="4.07669">
        <ele>1024.42</ele>
        <time>2019-07-28T08:06:51Z</time>
      </trkpt>
      <trkpt lat="44.82412" lon="4.07679">
        <ele>1025.38</ele>
        <time>2019-07-28T08:06:58Z</time>
      </trkpt>
      <trkpt lat="44.82419" lon="4.07699">
        <ele>1025.38</ele>
        <time>2019-07-28T08:07:12Z</time>
      </trkpt>
      <trkpt lat="44.82431" lon="4.07721">
        <ele>1025.38</ele>
        <time>2019-07-28T08:07:24Z</time>
      </trkpt>
      <trkpt lat="44.82443" lon="4.07745">
        <ele>1026.83</ele>
        <time>2019-07-28T08:07:38Z</time>
      </trkpt>
      <trkpt lat="44.82447" lon="4.07753">
        <ele>1028.27</ele>
        <time>2019-07-28T08:07:43Z</time>
      </trkpt>
      <trkpt lat="44.82457" lon="4.07766">
        <ele>1032.11</ele>
        <time>2019-07-28T08:07:57Z</time>
      </trkpt>
      <trkpt lat="44.82458" lon="4.07767">
        <ele>1032.11</ele>
        <time>2019-07-28T08:08:18Z</time>
      </trkpt>
      <trkpt lat="44.82458" lon="4.07768">
        <ele>1032.11</ele>
        <time>2019-07-28T08:08:47Z</time>
      </trkpt>
      <trkpt lat="44.82458" lon="4.0777">
        <ele>1031.15</ele>
        <time>2019-07-28T08:09:16Z</time>
      </trkpt>
      <trkpt lat="44.8246" lon="4.07764">
        <ele>1030.67</ele>
        <time>2019-07-28T08:09:37Z</time>
      </trkpt>
      <trkpt lat="44.82457" lon="4.07769">
        <ele>1030.19</ele>
        <time>2019-07-28T08:10:01Z</time>
      </trkpt>
      <trkpt lat="44.82456" lon="4.07776">
        <ele>1029.23</ele>
        <time>2019-07-28T08:10:24Z</time>
      </trkpt>
      <trkpt lat="44.82455" lon="4.07786">
        <ele>1030.19</ele>
        <time>2019-07-28T08:10:42Z</time>
      </trkpt>
      <trkpt lat="44.82455" lon="4.07788">
        <ele>1030.67</ele>
        <time>2019-07-28T08:10:45Z</time>
      </trkpt>
      <trkpt lat="44.82445" lon="4.07802">
        <ele>1032.11</ele>
        <time>2019-07-28T08:10:59Z</time>
      </trkpt>
      <trkpt lat="44.82442" lon="4.07816">
        <ele>1033.07</ele>
        <time>2019-07-28T08:11:12Z</time>
      </trkpt>
      <trkpt lat="44.8244" lon="4.0782">
        <ele>1034.04</ele>
        <time>2019-07-28T08:11:19Z</time>
      </trkpt>
      <trkpt lat="44.82436" lon="4.07838">
        <ele>1035.48</ele>
        <time>2019-07-28T08:11:31Z</time>
      </trkpt>
      <trkpt lat="44.82433" lon="4.0785">
        <ele>1037.88</ele>
        <time>2019-07-28T08:11:44Z</time>
      </trkpt>
      <trkpt lat="44.82427" lon="4.07861">
        <ele>1038.36</ele>
        <time>2019-07-28T08:12:03Z</time>
      </trkpt>
      <trkpt lat="44.82424" lon="4.07874">
        <ele>1040.28</ele>
        <time>2019-07-28T08:12:15Z</time>
      </trkpt>
      <trkpt lat="44.82422" lon="4.07877">
        <ele>1040.28</ele>
        <time>2019-07-28T08:12:26Z</time>
      </trkpt>
      <trkpt lat="44.82424" lon="4.07863">
        <ele>1040.28</ele>
        <time>2019-07-28T08:12:40Z</time>
      </trkpt>
      <trkpt lat="44.82416" lon="4.07854">
        <ele>1039.32</ele>
        <time>2019-07-28T08:12:56Z</time>
      </trkpt>
      <trkpt lat="44.82395" lon="4.07846">
        <ele>1039.32</ele>
        <time>2019-07-28T08:13:17Z</time>
      </trkpt>
      <trkpt lat="44.82373" lon="4.07841">
        <ele>1039.8</ele>
        <time>2019-07-28T08:13:37Z</time>
      </trkpt>
      <trkpt lat="44.8235" lon="4.07837">
        <ele>1040.28</ele>
        <time>2019-07-28T08:13:57Z</time>
      </trkpt>
      <trkpt lat="44.82349" lon="4.07836">
        <ele>1040.28</ele>
        <time>2019-07-28T08:13:58Z</time>
      </trkpt>
      <trkpt lat="44.82327" lon="4.07835">
        <ele>1040.28</ele>
        <time>2019-07-28T08:14:18Z</time>
      </trkpt>
      <trkpt lat="44.82324" lon="4.07836">
        <ele>1040.76</ele>
        <time>2019-07-28T08:14:20Z</time>
      </trkpt>
      <trkpt lat="44.82318" lon="4.07836">
        <ele>1041.25</ele>
        <time>2019-07-28T08:14:24Z</time>
      </trkpt>
      <trkpt lat="44.823" lon="4.07846">
        <ele>1040.28</ele>
        <time>2019-07-28T08:14:43Z</time>
      </trkpt>
      <trkpt lat="44.82283" lon="4.07858">
        <ele>1040.28</ele>
        <time>2019-07-28T08:15:01Z</time>
      </trkpt>
      <trkpt lat="44.82285" lon="4.07869">
        <ele>1040.76</ele>
        <time>2019-07-28T08:15:17Z</time>
      </trkpt>
      <trkpt lat="44.82306" lon="4.07859">
        <ele>1040.28</ele>
        <time>2019-07-28T08:15:35Z</time>
      </trkpt>
      <trkpt lat="44.82306" lon="4.07876">
        <ele>1040.28</ele>
        <time>2019-07-28T08:15:47Z</time>
      </trkpt>
      <trkpt lat="44.82289" lon="4.07913">
        <ele>1040.76</ele>
        <time>2019-07-28T08:15:54Z</time>
      </trkpt>
      <trkpt lat="44.8228" lon="4.07933">
        <ele>1044.61</ele>
        <time>2019-07-28T08:16:09Z</time>
      </trkpt>
      <trkpt lat="44.82271" lon="4.07952">
        <ele>1047.01</ele>
        <time>2019-07-28T08:16:23Z</time>
      </trkpt>
      <trkpt lat="44.8227" lon="4.07956">
        <ele>1047.49</ele>
        <time>2019-07-28T08:16:25Z</time>
      </trkpt>
      <trkpt lat="44.82265" lon="4.07984">
        <ele>1048.45</ele>
        <time>2019-07-28T08:16:39Z</time>
      </trkpt>
      <trkpt lat="44.8226" lon="4.08005">
        <ele>1048.45</ele>
        <time>2019-07-28T08:16:52Z</time>
      </trkpt>
      <trkpt lat="44.82258" lon="4.08027">
        <ele>1050.38</ele>
        <time>2019-07-28T08:17:06Z</time>
      </trkpt>
      <trkpt lat="44.8226" lon="4.08041">
        <ele>1050.38</ele>
        <time>2019-07-28T08:17:16Z</time>
      </trkpt>
      <trkpt lat="44.82268" lon="4.08068">
        <ele>1051.82</ele>
        <time>2019-07-28T08:17:31Z</time>
      </trkpt>
      <trkpt lat="44.82266" lon="4.08073">
        <ele>1052.78</ele>
        <time>2019-07-28T08:17:39Z</time>
      </trkpt>
      <trkpt lat="44.82265" lon="4.08075">
        <ele>1054.22</ele>
        <time>2019-07-28T08:18:04Z</time>
      </trkpt>
      <trkpt lat="44.82268" lon="4.08083">
        <ele>1054.22</ele>
        <time>2019-07-28T08:18:24Z</time>
      </trkpt>
      <trkpt lat="44.82259" lon="4.08087">
        <ele>1054.22</ele>
        <time>2019-07-28T08:18:44Z</time>
      </trkpt>
      <trkpt lat="44.82245" lon="4.08082">
        <ele>1054.22</ele>
        <time>2019-07-28T08:18:59Z</time>
      </trkpt>
      <trkpt lat="44.82236" lon="4.0806">
        <ele>1054.7</ele>
        <time>2019-07-28T08:19:05Z</time>
      </trkpt>
      <trkpt lat="44.82236" lon="4.0804">
        <ele>1056.63</ele>
        <time>2019-07-28T08:19:17Z</time>
      </trkpt>
      <trkpt lat="44.82234" lon="4.08037">
        <ele>1056.63</ele>
        <time>2019-07-28T08:19:19Z</time>
      </trkpt>
      <trkpt lat="44.82224" lon="4.0802">
        <ele>1055.18</ele>
        <time>2019-07-28T08:19:32Z</time>
      </trkpt>
      <trkpt lat="44.82217" lon="4.08008">
        <ele>1058.07</ele>
        <time>2019-07-28T08:19:42Z</time>
      </trkpt>
      <trkpt lat="44.8221" lon="4.07998">
        <ele>1062.39</ele>
        <time>2019-07-28T08:19:54Z</time>
      </trkpt>
      <trkpt lat="44.82209" lon="4.07998">
        <ele>1062.39</ele>
        <time>2019-07-28T08:20:01Z</time>
      </trkpt>
      <trkpt lat="44.82208" lon="4.08">
        <ele>1062.87</ele>
        <time>2019-07-28T08:20:07Z</time>
      </trkpt>
      <trkpt lat="44.82203" lon="4.08002">
        <ele>1064.32</ele>
        <time>2019-07-28T08:20:15Z</time>
      </trkpt>
      <trkpt lat="44.82197" lon="4.08003">
        <ele>1065.76</ele>
        <time>2019-07-28T08:20:23Z</time>
      </trkpt>
      <trkpt lat="44.82189" lon="4.08002">
        <ele>1068.64</ele>
        <time>2019-07-28T08:20:34Z</time>
      </trkpt>
      <trkpt lat="44.82173" lon="4.08008">
        <ele>1071.53</ele>
        <time>2019-07-28T08:20:53Z</time>
      </trkpt>
      <trkpt lat="44.82171" lon="4.08028">
        <ele>1073.45</ele>
        <time>2019-07-28T08:21:13Z</time>
      </trkpt>
      <trkpt lat="44.8216" lon="4.08055">
        <ele>1075.85</ele>
        <time>2019-07-28T08:21:39Z</time>
      </trkpt>
      <trkpt lat="44.82154" lon="4.08067">
        <ele>1078.26</ele>
        <time>2019-07-28T08:22:03Z</time>
      </trkpt>
      <trkpt lat="44.82151" lon="4.08077">
        <ele>1080.18</ele>
        <time>2019-07-28T08:22:28Z</time>
      </trkpt>
      <trkpt lat="44.8215" lon="4.08083">
        <ele>1081.14</ele>
        <time>2019-07-28T08:22:52Z</time>
      </trkpt>
      <trkpt lat="44.8215" lon="4.08085">
        <ele>1082.1</ele>
        <time>2019-07-28T08:23:16Z</time>
      </trkpt>
      <trkpt lat="44.82149" lon="4.08089">
        <ele>1083.06</ele>
        <time>2019-07-28T08:23:39Z</time>
      </trkpt>
      <trkpt lat="44.82148" lon="4.08099">
        <ele>1083.54</ele>
        <time>2019-07-28T08:24:00Z</time>
      </trkpt>
      <trkpt lat="44.82147" lon="4.08112">
        <ele>1083.54</ele>
        <time>2019-07-28T08:24:20Z</time>
      </trkpt>
      <trkpt lat="44.82147" lon="4.08124">
        <ele>1084.02</ele>
        <time>2019-07-28T08:24:43Z</time>
      </trkpt>
      <trkpt lat="44.82149" lon="4.08139">
        <ele>1084.02</ele>
        <time>2019-07-28T08:24:55Z</time>
      </trkpt>
      <trkpt lat="44.82139" lon="4.08222">
        <ele>1084.02</ele>
        <time>2019-07-28T08:25:19Z</time>
      </trkpt>
      <trkpt lat="44.82126" lon="4.08272">
        <ele>1081.14</ele>
        <time>2019-07-28T08:25:40Z</time>
      </trkpt>
      <trkpt lat="44.82124" lon="4.08287">
        <ele>1085.47</ele>
        <time>2019-07-28T08:25:58Z</time>
      </trkpt>
      <trkpt lat="44.82123" lon="4.08299">
        <ele>1091.71</ele>
        <time>2019-07-28T08:26:18Z</time>
      </trkpt>
      <trkpt lat="44.82128" lon="4.08326">
        <ele>1098.44</ele>
        <time>2019-07-28T08:26:45Z</time>
      </trkpt>
      <trkpt lat="44.82134" lon="4.08342">
        <ele>1102.77</ele>
        <time>2019-07-28T08:27:06Z</time>
      </trkpt>
      <trkpt lat="44.8214" lon="4.08354">
        <ele>1101.81</ele>
        <time>2019-07-28T08:27:30Z</time>
      </trkpt>
      <trkpt lat="44.82149" lon="4.08375">
        <ele>1101.33</ele>
        <time>2019-07-28T08:27:51Z</time>
      </trkpt>
      <trkpt lat="44.82142" lon="4.0839">
        <ele>1103.25</ele>
        <time>2019-07-28T08:28:06Z</time>
      </trkpt>
      <trkpt lat="44.82142" lon="4.08419">
        <ele>1110.46</ele>
        <time>2019-07-28T08:28:27Z</time>
      </trkpt>
      <trkpt lat="44.82135" lon="4.08447">
        <ele>1124.88</ele>
        <time>2019-07-28T08:28:46Z</time>
      </trkpt>
      <trkpt lat="44.82132" lon="4.08457">
        <ele>1132.09</ele>
        <time>2019-07-28T08:29:03Z</time>
      </trkpt>
      <trkpt lat="44.82132" lon="4.08486">
        <ele>1137.38</ele>
        <time>2019-07-28T08:29:21Z</time>
      </trkpt>
      <trkpt lat="44.82132" lon="4.08529">
        <ele>1135.45</ele>
        <time>2019-07-28T08:29:42Z</time>
      </trkpt>
      <trkpt lat="44.8214" lon="4.08559">
        <ele>1136.42</ele>
        <time>2019-07-28T08:30:01Z</time>
      </trkpt>
      <trkpt lat="44.82146" lon="4.08563">
        <ele>1137.86</ele>
        <time>2019-07-28T08:30:08Z</time>
      </trkpt>
      <trkpt lat="44.82169" lon="4.0857">
        <ele>1141.7</ele>
        <time>2019-07-28T08:30:29Z</time>
      </trkpt>
      <trkpt lat="44.82192" lon="4.08574">
        <ele>1144.59</ele>
        <time>2019-07-28T08:30:48Z</time>
      </trkpt>
      <trkpt lat="44.82215" lon="4.08577">
        <ele>1145.07</ele>
        <time>2019-07-28T08:31:06Z</time>
      </trkpt>
      <trkpt lat="44.82238" lon="4.08575">
        <ele>1145.07</ele>
        <time>2019-07-28T08:31:26Z</time>
      </trkpt>
      <trkpt lat="44.82254" lon="4.08567">
        <ele>1146.51</ele>
        <time>2019-07-28T08:31:43Z</time>
      </trkpt>
      <trkpt lat="44.82258" lon="4.08564">
        <ele>1146.99</ele>
        <time>2019-07-28T08:31:47Z</time>
      </trkpt>
      <trkpt lat="44.82278" lon="4.08551">
        <ele>1146.99</ele>
        <time>2019-07-28T08:32:01Z</time>
      </trkpt>
      <trkpt lat="44.8229" lon="4.08557">
        <ele>1146.51</ele>
        <time>2019-07-28T08:32:10Z</time>
      </trkpt>
      <trkpt lat="44.823" lon="4.08573">
        <ele>1144.11</ele>
        <time>2019-07-28T08:32:26Z</time>
      </trkpt>
      <trkpt lat="44.82302" lon="4.08581">
        <ele>1142.66</ele>
        <time>2019-07-28T08:32:31Z</time>
      </trkpt>
      <trkpt lat="44.82307" lon="4.08588">
        <ele>1141.7</ele>
        <time>2019-07-28T08:32:35Z</time>
      </trkpt>
      <trkpt lat="44.82303" lon="4.08618">
        <ele>1138.34</ele>
        <time>2019-07-28T08:32:55Z</time>
      </trkpt>
      <trkpt lat="44.82299" lon="4.08618">
        <ele>1137.38</ele>
        <time>2019-07-28T08:32:58Z</time>
      </trkpt>
      <trkpt lat="44.82287" lon="4.08625">
        <ele>1134.01</ele>
        <time>2019-07-28T08:33:15Z</time>
      </trkpt>
      <trkpt lat="44.82274" lon="4.08645">
        <ele>1130.65</ele>
        <time>2019-07-28T08:33:34Z</time>
      </trkpt>
      <trkpt lat="44.82262" lon="4.08678">
        <ele>1125.84</ele>
        <time>2019-07-28T08:33:53Z</time>
      </trkpt>
      <trkpt lat="44.8225" lon="4.08708">
        <ele>1122.48</ele>
        <time>2019-07-28T08:34:10Z</time>
      </trkpt>
      <trkpt lat="44.82247" lon="4.08744">
        <ele>1120.55</ele>
        <time>2019-07-28T08:34:28Z</time>
      </trkpt>
      <trkpt lat="44.82244" lon="4.08765">
        <ele>1119.59</ele>
        <time>2019-07-28T08:34:38Z</time>
      </trkpt>
      <trkpt lat="44.82247" lon="4.08787">
        <ele>1119.59</ele>
        <time>2019-07-28T08:34:48Z</time>
      </trkpt>
      <trkpt lat="44.82243" lon="4.08821">
        <ele>1120.07</ele>
        <time>2019-07-28T08:35:06Z</time>
      </trkpt>
      <trkpt lat="44.82247" lon="4.08826">
        <ele>1120.07</ele>
        <time>2019-07-28T08:35:10Z</time>
      </trkpt>
      <trkpt lat="44.82257" lon="4.08834">
        <ele>1120.07</ele>
        <time>2019-07-28T08:35:19Z</time>
      </trkpt>
      <trkpt lat="44.82264" lon="4.08856">
        <ele>1120.55</ele>
        <time>2019-07-28T08:35:32Z</time>
      </trkpt>
      <trkpt lat="44.82268" lon="4.08874">
        <ele>1121.52</ele>
        <time>2019-07-28T08:35:40Z</time>
      </trkpt>
      <trkpt lat="44.82274" lon="4.08904">
        <ele>1122</ele>
        <time>2019-07-28T08:35:52Z</time>
      </trkpt>
      <trkpt lat="44.8228" lon="4.08924">
        <ele>1122</ele>
        <time>2019-07-28T08:36:02Z</time>
      </trkpt>
      <trkpt lat="44.82283" lon="4.08934">
        <ele>1122</ele>
        <time>2019-07-28T08:36:14Z</time>
      </trkpt>
      <trkpt lat="44.82285" lon="4.08935">
        <ele>1122.48</ele>
        <time>2019-07-28T08:36:16Z</time>
      </trkpt>
      <trkpt lat="44.82293" lon="4.08939">
        <ele>1122.48</ele>
        <time>2019-07-28T08:36:24Z</time>
      </trkpt>
      <trkpt lat="44.82299" lon="4.08948">
        <ele>1122.48</ele>
        <time>2019-07-28T08:36:30Z</time>
      </trkpt>
      <trkpt lat="44.82301" lon="4.08966">
        <ele>1123.44</ele>
        <time>2019-07-28T08:36:41Z</time>
      </trkpt>
      <trkpt lat="44.82298" lon="4.0898">
        <ele>1123.44</ele>
        <time>2019-07-28T08:36:52Z</time>
      </trkpt>
      <trkpt lat="44.82296" lon="4.0899">
        <ele>1124.88</ele>
        <time>2019-07-28T08:37:00Z</time>
      </trkpt>
      <trkpt lat="44.82292" lon="4.08997">
        <ele>1125.84</ele>
        <time>2019-07-28T08:37:06Z</time>
      </trkpt>
      <trkpt lat="44.82292" lon="4.09008">
        <ele>1129.21</ele>
        <time>2019-07-28T08:37:14Z</time>
      </trkpt>
      <trkpt lat="44.82296" lon="4.09022">
        <ele>1130.17</ele>
        <time>2019-07-28T08:37:22Z</time>
      </trkpt>
      <trkpt lat="44.82303" lon="4.09031">
        <ele>1130.17</ele>
        <time>2019-07-28T08:37:29Z</time>
      </trkpt>
      <trkpt lat="44.8231" lon="4.09046">
        <ele>1130.65</ele>
        <time>2019-07-28T08:37:42Z</time>
      </trkpt>
      <trkpt lat="44.8232" lon="4.09059">
        <ele>1131.13</ele>
        <time>2019-07-28T08:37:55Z</time>
      </trkpt>
      <trkpt lat="44.82323" lon="4.09061">
        <ele>1131.13</ele>
        <time>2019-07-28T08:37:58Z</time>
      </trkpt>
      <trkpt lat="44.82332" lon="4.09055">
        <ele>1132.09</ele>
        <time>2019-07-28T08:38:06Z</time>
      </trkpt>
      <trkpt lat="44.82344" lon="4.09065">
        <ele>1133.05</ele>
        <time>2019-07-28T08:38:13Z</time>
      </trkpt>
      <trkpt lat="44.82355" lon="4.0908">
        <ele>1134.01</ele>
        <time>2019-07-28T08:38:26Z</time>
      </trkpt>
      <trkpt lat="44.82356" lon="4.09085">
        <ele>1134.49</ele>
        <time>2019-07-28T08:38:41Z</time>
      </trkpt>
      <trkpt lat="44.82359" lon="4.09093">
        <ele>1135.94</ele>
        <time>2019-07-28T08:39:03Z</time>
      </trkpt>
      <trkpt lat="44.82363" lon="4.09101">
        <ele>1137.38</ele>
        <time>2019-07-28T08:39:28Z</time>
      </trkpt>
      <trkpt lat="44.82365" lon="4.09108">
        <ele>1138.34</ele>
        <time>2019-07-28T08:39:48Z</time>
      </trkpt>
      <trkpt lat="44.82374" lon="4.09128">
        <ele>1138.82</ele>
        <time>2019-07-28T08:40:08Z</time>
      </trkpt>
      <trkpt lat="44.82396" lon="4.09168">
        <ele>1139.78</ele>
        <time>2019-07-28T08:40:31Z</time>
      </trkpt>
      <trkpt lat="44.82402" lon="4.0918">
        <ele>1141.22</ele>
        <time>2019-07-28T08:40:50Z</time>
      </trkpt>
      <trkpt lat="44.82406" lon="4.0919">
        <ele>1142.66</ele>
        <time>2019-07-28T08:41:12Z</time>
      </trkpt>
      <trkpt lat="44.82411" lon="4.09207">
        <ele>1143.63</ele>
        <time>2019-07-28T08:41:34Z</time>
      </trkpt>
      <trkpt lat="44.82417" lon="4.09215">
        <ele>1146.51</ele>
        <time>2019-07-28T08:41:55Z</time>
      </trkpt>
      <trkpt lat="44.8242" lon="4.09225">
        <ele>1147.95</ele>
        <time>2019-07-28T08:42:18Z</time>
      </trkpt>
      <trkpt lat="44.82421" lon="4.0923">
        <ele>1149.87</ele>
        <time>2019-07-28T08:42:40Z</time>
      </trkpt>
      <trkpt lat="44.82433" lon="4.09251">
        <ele>1152.28</ele>
        <time>2019-07-28T08:43:00Z</time>
      </trkpt>
      <trkpt lat="44.82436" lon="4.09256">
        <ele>1152.76</ele>
        <time>2019-07-28T08:43:05Z</time>
      </trkpt>
      <trkpt lat="44.82449" lon="4.09267">
        <ele>1152.76</ele>
        <time>2019-07-28T08:43:18Z</time>
      </trkpt>
      <trkpt lat="44.82461" lon="4.09268">
        <ele>1153.24</ele>
        <time>2019-07-28T08:43:39Z</time>
      </trkpt>
      <trkpt lat="44.82497" lon="4.09282">
        <ele>1158.53</ele>
        <time>2019-07-28T08:43:56Z</time>
      </trkpt>
      <trkpt lat="44.82508" lon="4.09283">
        <ele>1159.01</ele>
        <time>2019-07-28T08:44:04Z</time>
      </trkpt>
      <trkpt lat="44.82539" lon="4.09281">
        <ele>1159.97</ele>
        <time>2019-07-28T08:44:23Z</time>
      </trkpt>
      <trkpt lat="44.82557" lon="4.0926">
        <ele>1168.14</ele>
        <time>2019-07-28T08:44:41Z</time>
      </trkpt>
      <trkpt lat="44.82568" lon="4.0927">
        <ele>1172.47</ele>
        <time>2019-07-28T08:45:02Z</time>
      </trkpt>
      <trkpt lat="44.82582" lon="4.09279">
        <ele>1178.23</ele>
        <time>2019-07-28T08:45:22Z</time>
      </trkpt>
      <trkpt lat="44.8259" lon="4.09286">
        <ele>1183.04</ele>
        <time>2019-07-28T08:45:43Z</time>
      </trkpt>
      <trkpt lat="44.82615" lon="4.09272">
        <ele>1188.81</ele>
        <time>2019-07-28T08:46:06Z</time>
      </trkpt>
      <trkpt lat="44.82629" lon="4.09259">
        <ele>1189.77</ele>
        <time>2019-07-28T08:46:26Z</time>
      </trkpt>
      <trkpt lat="44.82633" lon="4.09252">
        <ele>1192.17</ele>
        <time>2019-07-28T08:46:48Z</time>
      </trkpt>
      <trkpt lat="44.82638" lon="4.09222">
        <ele>1193.13</ele>
        <time>2019-07-28T08:47:10Z</time>
      </trkpt>
      <trkpt lat="44.82652" lon="4.09213">
        <ele>1193.61</ele>
        <time>2019-07-28T08:47:53Z</time>
      </trkpt>
      <trkpt lat="44.82652" lon="4.09216">
        <ele>1193.61</ele>
        <time>2019-07-28T08:48:13Z</time>
      </trkpt>
      <trkpt lat="44.82651" lon="4.09218">
        <ele>1193.61</ele>
        <time>2019-07-28T08:48:16Z</time>
      </trkpt>
      <trkpt lat="44.82649" lon="4.0925">
        <ele>1193.13</ele>
        <time>2019-07-28T08:48:38Z</time>
      </trkpt>
      <trkpt lat="44.8265" lon="4.09261">
        <ele>1193.13</ele>
        <time>2019-07-28T08:48:47Z</time>
      </trkpt>
      <trkpt lat="44.82649" lon="4.09269">
        <ele>1205.63</ele>
        <time>2019-07-28T08:49:01Z</time>
      </trkpt>
      <trkpt lat="44.82645" lon="4.09281">
        <ele>1207.07</ele>
        <time>2019-07-28T08:49:11Z</time>
      </trkpt>
      <trkpt lat="44.82637" lon="4.09294">
        <ele>1209</ele>
        <time>2019-07-28T08:49:24Z</time>
      </trkpt>
      <trkpt lat="44.82628" lon="4.09311">
        <ele>1211.4</ele>
        <time>2019-07-28T08:49:37Z</time>
      </trkpt>
      <trkpt lat="44.82628" lon="4.09312">
        <ele>1211.88</ele>
        <time>2019-07-28T08:49:38Z</time>
      </trkpt>
      <trkpt lat="44.82624" lon="4.09313">
        <ele>1214.28</ele>
        <time>2019-07-28T08:49:44Z</time>
      </trkpt>
      <trkpt lat="44.82619" lon="4.09323">
        <ele>1216.21</ele>
        <time>2019-07-28T08:49:54Z</time>
      </trkpt>
      <trkpt lat="44.82616" lon="4.09331">
        <ele>1217.17</ele>
        <time>2019-07-28T08:49:59Z</time>
      </trkpt>
      <trkpt lat="44.82613" lon="4.09339">
        <ele>1218.13</ele>
        <time>2019-07-28T08:50:07Z</time>
      </trkpt>
      <trkpt lat="44.82604" lon="4.09349">
        <ele>1219.57</ele>
        <time>2019-07-28T08:50:20Z</time>
      </trkpt>
      <trkpt lat="44.82595" lon="4.09366">
        <ele>1221.01</ele>
        <time>2019-07-28T08:50:33Z</time>
      </trkpt>
      <trkpt lat="44.82591" lon="4.09374">
        <ele>1222.45</ele>
        <time>2019-07-28T08:50:46Z</time>
      </trkpt>
      <trkpt lat="44.82588" lon="4.09388">
        <ele>1223.42</ele>
        <time>2019-07-28T08:50:57Z</time>
      </trkpt>
      <trkpt lat="44.82589" lon="4.09389">
        <ele>1223.42</ele>
        <time>2019-07-28T08:51:12Z</time>
      </trkpt>
      <trkpt lat="44.8259" lon="4.09391">
        <ele>1224.38</ele>
        <time>2019-07-28T08:51:27Z</time>
      </trkpt>
      <trkpt lat="44.8259" lon="4.09392">
        <ele>1224.38</ele>
        <time>2019-07-28T08:51:43Z</time>
      </trkpt>
      <trkpt lat="44.82587" lon="4.09394">
        <ele>1224.86</ele>
        <time>2019-07-28T08:51:57Z</time>
      </trkpt>
      <trkpt lat="44.82583" lon="4.09404">
        <ele>1225.34</ele>
        <time>2019-07-28T08:52:11Z</time>
      </trkpt>
      <trkpt lat="44.82579" lon="4.09411">
        <ele>1226.3</ele>
        <time>2019-07-28T08:52:21Z</time>
      </trkpt>
      <trkpt lat="44.82577" lon="4.09413">
        <ele>1226.3</ele>
        <time>2019-07-28T08:52:24Z</time>
      </trkpt>
      <trkpt lat="44.82569" lon="4.09429">
        <ele>1227.74</ele>
        <time>2019-07-28T08:52:39Z</time>
      </trkpt>
      <trkpt lat="44.82568" lon="4.09432">
        <ele>1227.74</ele>
        <time>2019-07-28T08:52:41Z</time>
      </trkpt>
      <trkpt lat="44.82565" lon="4.09448">
        <ele>1228.22</ele>
        <time>2019-07-28T08:52:52Z</time>
      </trkpt>
      <trkpt lat="44.82564" lon="4.0945">
        <ele>1228.22</ele>
        <time>2019-07-28T08:52:55Z</time>
      </trkpt>
      <trkpt lat="44.82559" lon="4.09459">
        <ele>1228.7</ele>
        <time>2019-07-28T08:53:07Z</time>
      </trkpt>
      <trkpt lat="44.82554" lon="4.09468">
        <ele>1228.7</ele>
        <time>2019-07-28T08:53:17Z</time>
      </trkpt>
      <trkpt lat="44.82551" lon="4.09478">
        <ele>1229.66</ele>
        <time>2019-07-28T08:53:32Z</time>
      </trkpt>
      <trkpt lat="44.82549" lon="4.0948">
        <ele>1230.14</ele>
        <time>2019-07-28T08:53:47Z</time>
      </trkpt>
      <trkpt lat="44.82543" lon="4.09487">
        <ele>1230.62</ele>
        <time>2019-07-28T08:54:01Z</time>
      </trkpt>
      <trkpt lat="44.82534" lon="4.09498">
        <ele>1231.59</ele>
        <time>2019-07-28T08:54:17Z</time>
      </trkpt>
      <trkpt lat="44.82528" lon="4.09502">
        <ele>1232.55</ele>
        <time>2019-07-28T08:54:33Z</time>
      </trkpt>
      <trkpt lat="44.82523" lon="4.09511">
        <ele>1233.51</ele>
        <time>2019-07-28T08:54:47Z</time>
      </trkpt>
      <trkpt lat="44.82514" lon="4.09528">
        <ele>1235.43</ele>
        <time>2019-07-28T08:54:59Z</time>
      </trkpt>
      <trkpt lat="44.82509" lon="4.09538">
        <ele>1236.39</ele>
        <time>2019-07-28T08:55:13Z</time>
      </trkpt>
      <trkpt lat="44.82506" lon="4.09541">
        <ele>1237.35</ele>
        <time>2019-07-28T08:55:26Z</time>
      </trkpt>
      <trkpt lat="44.825" lon="4.09551">
        <ele>1239.28</ele>
        <time>2019-07-28T08:55:41Z</time>
      </trkpt>
      <trkpt lat="44.82499" lon="4.09553">
        <ele>1239.76</ele>
        <time>2019-07-28T08:56:04Z</time>
      </trkpt>
      <trkpt lat="44.82498" lon="4.09555">
        <ele>1240.24</ele>
        <time>2019-07-28T08:56:31Z</time>
      </trkpt>
      <trkpt lat="44.82495" lon="4.09563">
        <ele>1240.24</ele>
        <time>2019-07-28T08:56:53Z</time>
      </trkpt>
      <trkpt lat="44.82498" lon="4.09566">
        <ele>1240.24</ele>
        <time>2019-07-28T08:57:17Z</time>
      </trkpt>
      <trkpt lat="44.825" lon="4.09568">
        <ele>1240.24</ele>
        <time>2019-07-28T08:57:41Z</time>
      </trkpt>
      <trkpt lat="44.825" lon="4.0957">
        <ele>1240.24</ele>
        <time>2019-07-28T08:58:00Z</time>
      </trkpt>
      <trkpt lat="44.82492" lon="4.09573">
        <ele>1240.72</ele>
        <time>2019-07-28T08:58:07Z</time>
      </trkpt>
      <trkpt lat="44.82463" lon="4.09606">
        <ele>1308.97</ele>
        <time>2019-07-28T08:58:20Z</time>
      </trkpt>
      <trkpt lat="44.82453" lon="4.09619">
        <ele>1317.62</ele>
        <time>2019-07-28T08:58:32Z</time>
      </trkpt>
      <trkpt lat="44.82452" lon="4.0962">
        <ele>1318.1</ele>
        <time>2019-07-28T08:58:33Z</time>
      </trkpt>
      <trkpt lat="44.82441" lon="4.09623">
        <ele>1318.59</ele>
        <time>2019-07-28T08:58:45Z</time>
      </trkpt>
      <trkpt lat="44.8244" lon="4.09624">
        <ele>1318.59</ele>
        <time>2019-07-28T08:58:46Z</time>
      </trkpt>
      <trkpt lat="44.82435" lon="4.09625">
        <ele>1319.55</ele>
        <time>2019-07-28T08:59:01Z</time>
      </trkpt>
      <trkpt lat="44.82433" lon="4.09627">
        <ele>1320.51</ele>
        <time>2019-07-28T08:59:19Z</time>
      </trkpt>
      <trkpt lat="44.82428" lon="4.09629">
        <ele>1320.99</ele>
        <time>2019-07-28T08:59:28Z</time>
      </trkpt>
      <trkpt lat="44.82425" lon="4.09633">
        <ele>1321.47</ele>
        <time>2019-07-28T08:59:33Z</time>
      </trkpt>
      <trkpt lat="44.82421" lon="4.09635">
        <ele>1321.95</ele>
        <time>2019-07-28T08:59:39Z</time>
      </trkpt>
      <trkpt lat="44.82414" lon="4.09644">
        <ele>1322.91</ele>
        <time>2019-07-28T08:59:51Z</time>
      </trkpt>
      <trkpt lat="44.82405" lon="4.09648">
        <ele>1323.87</ele>
        <time>2019-07-28T09:00:04Z</time>
      </trkpt>
      <trkpt lat="44.82388" lon="4.09658">
        <ele>1323.39</ele>
        <time>2019-07-28T09:00:19Z</time>
      </trkpt>
      <trkpt lat="44.82381" lon="4.09663">
        <ele>1324.83</ele>
        <time>2019-07-28T09:00:25Z</time>
      </trkpt>
      <trkpt lat="44.82371" lon="4.09669">
        <ele>1329.16</ele>
        <time>2019-07-28T09:00:35Z</time>
      </trkpt>
      <trkpt lat="44.82364" lon="4.0967">
        <ele>1330.12</ele>
        <time>2019-07-28T09:00:42Z</time>
      </trkpt>
      <trkpt lat="44.82356" lon="4.09662">
        <ele>1329.16</ele>
        <time>2019-07-28T09:00:53Z</time>
      </trkpt>
      <trkpt lat="44.82354" lon="4.09657">
        <ele>1329.16</ele>
        <time>2019-07-28T09:00:56Z</time>
      </trkpt>
      <trkpt lat="44.82344" lon="4.09648">
        <ele>1328.68</ele>
        <time>2019-07-28T09:01:04Z</time>
      </trkpt>
      <trkpt lat="44.82331" lon="4.09643">
        <ele>1326.76</ele>
        <time>2019-07-28T09:01:20Z</time>
      </trkpt>
      <trkpt lat="44.82318" lon="4.0965">
        <ele>1326.76</ele>
        <time>2019-07-28T09:01:35Z</time>
      </trkpt>
      <trkpt lat="44.82311" lon="4.0965">
        <ele>1327.72</ele>
        <time>2019-07-28T09:01:51Z</time>
      </trkpt>
      <trkpt lat="44.82309" lon="4.09646">
        <ele>1327.72</ele>
        <time>2019-07-28T09:02:14Z</time>
      </trkpt>
      <trkpt lat="44.82294" lon="4.09643">
        <ele>1327.72</ele>
        <time>2019-07-28T09:02:36Z</time>
      </trkpt>
      <trkpt lat="44.82266" lon="4.09644">
        <ele>1327.72</ele>
        <time>2019-07-28T09:02:58Z</time>
      </trkpt>
      <trkpt lat="44.82245" lon="4.09636">
        <ele>1328.2</ele>
        <time>2019-07-28T09:03:18Z</time>
      </trkpt>
      <trkpt lat="44.82244" lon="4.09636">
        <ele>1328.2</ele>
        <time>2019-07-28T09:03:19Z</time>
      </trkpt>
      <trkpt lat="44.82236" lon="4.09629">
        <ele>1327.24</ele>
        <time>2019-07-28T09:03:21Z</time>
      </trkpt>
      <trkpt lat="44.8222" lon="4.09635">
        <ele>1324.83</ele>
        <time>2019-07-28T09:03:38Z</time>
      </trkpt>
      <trkpt lat="44.82198" lon="4.0963">
        <ele>1323.39</ele>
        <time>2019-07-28T09:03:56Z</time>
      </trkpt>
      <trkpt lat="44.82193" lon="4.0962">
        <ele>1318.59</ele>
        <time>2019-07-28T09:04:08Z</time>
      </trkpt>
      <trkpt lat="44.8219" lon="4.09609">
        <ele>1310.9</ele>
        <time>2019-07-28T09:04:18Z</time>
      </trkpt>
      <trkpt lat="44.82191" lon="4.09595">
        <ele>1307.05</ele>
        <time>2019-07-28T09:04:31Z</time>
      </trkpt>
      <trkpt lat="44.82188" lon="4.09589">
        <ele>1306.09</ele>
        <time>2019-07-28T09:04:35Z</time>
      </trkpt>
      <trkpt lat="44.82181" lon="4.09569">
        <ele>1301.76</ele>
        <time>2019-07-28T09:04:47Z</time>
      </trkpt>
      <trkpt lat="44.82179" lon="4.09558">
        <ele>1300.8</ele>
        <time>2019-07-28T09:04:56Z</time>
      </trkpt>
      <trkpt lat="44.82175" lon="4.09553">
        <ele>1299.84</ele>
        <time>2019-07-28T09:05:01Z</time>
      </trkpt>
      <trkpt lat="44.82164" lon="4.09546">
        <ele>1298.4</ele>
        <time>2019-07-28T09:05:09Z</time>
      </trkpt>
      <trkpt lat="44.82161" lon="4.09535">
        <ele>1298.4</ele>
        <time>2019-07-28T09:05:13Z</time>
      </trkpt>
      <trkpt lat="44.82158" lon="4.09529">
        <ele>1297.92</ele>
        <time>2019-07-28T09:05:18Z</time>
      </trkpt>
      <trkpt lat="44.82146" lon="4.09516">
        <ele>1296.96</ele>
        <time>2019-07-28T09:05:30Z</time>
      </trkpt>
      <trkpt lat="44.82133" lon="4.09499">
        <ele>1295.03</ele>
        <time>2019-07-28T09:05:41Z</time>
      </trkpt>
      <trkpt lat="44.82127" lon="4.0949">
        <ele>1293.59</ele>
        <time>2019-07-28T09:05:53Z</time>
      </trkpt>
      <trkpt lat="44.82121" lon="4.09487">
        <ele>1293.59</ele>
        <time>2019-07-28T09:06:17Z</time>
      </trkpt>
      <trkpt lat="44.82117" lon="4.09491">
        <ele>1292.63</ele>
        <time>2019-07-28T09:06:40Z</time>
      </trkpt>
      <trkpt lat="44.82119" lon="4.09489">
        <ele>1292.63</ele>
        <time>2019-07-28T09:07:06Z</time>
      </trkpt>
      <trkpt lat="44.82103" lon="4.09489">
        <ele>1291.19</ele>
        <time>2019-07-28T09:07:28Z</time>
      </trkpt>
      <trkpt lat="44.821" lon="4.09489">
        <ele>1291.19</ele>
        <time>2019-07-28T09:07:31Z</time>
      </trkpt>
      <trkpt lat="44.82072" lon="4.09492">
        <ele>1289.75</ele>
        <time>2019-07-28T09:07:53Z</time>
      </trkpt>
      <trkpt lat="44.82041" lon="4.09485">
        <ele>1291.19</ele>
        <time>2019-07-28T09:08:17Z</time>
      </trkpt>
      <trkpt lat="44.82018" lon="4.09468">
        <ele>1286.86</ele>
        <time>2019-07-28T09:08:31Z</time>
      </trkpt>
      <trkpt lat="44.82011" lon="4.09477">
        <ele>1285.9</ele>
        <time>2019-07-28T09:08:47Z</time>
      </trkpt>
      <trkpt lat="44.8201" lon="4.09478">
        <ele>1285.9</ele>
        <time>2019-07-28T09:08:49Z</time>
      </trkpt>
      <trkpt lat="44.81995" lon="4.09514">
        <ele>1283.02</ele>
        <time>2019-07-28T09:09:12Z</time>
      </trkpt>
      <trkpt lat="44.81976" lon="4.09535">
        <ele>1281.57</ele>
        <time>2019-07-28T09:09:34Z</time>
      </trkpt>
      <trkpt lat="44.8195" lon="4.09551">
        <ele>1280.13</ele>
        <time>2019-07-28T09:09:57Z</time>
      </trkpt>
      <trkpt lat="44.81937" lon="4.09558">
        <ele>1278.69</ele>
        <time>2019-07-28T09:10:08Z</time>
      </trkpt>
      <trkpt lat="44.81909" lon="4.09572">
        <ele>1276.29</ele>
        <time>2019-07-28T09:10:30Z</time>
      </trkpt>
      <trkpt lat="44.81877" lon="4.09583">
        <ele>1272.92</ele>
        <time>2019-07-28T09:10:57Z</time>
      </trkpt>
      <trkpt lat="44.81853" lon="4.09577">
        <ele>1266.19</ele>
        <time>2019-07-28T09:11:21Z</time>
      </trkpt>
      <trkpt lat="44.81827" lon="4.09555">
        <ele>1255.14</ele>
        <time>2019-07-28T09:11:46Z</time>
      </trkpt>
      <trkpt lat="44.818" lon="4.09542">
        <ele>1244.08</ele>
        <time>2019-07-28T09:12:06Z</time>
      </trkpt>
      <trkpt lat="44.81787" lon="4.09542">
        <ele>1240.24</ele>
        <time>2019-07-28T09:12:28Z</time>
      </trkpt>
      <trkpt lat="44.8177" lon="4.09539">
        <ele>1239.28</ele>
        <time>2019-07-28T09:12:47Z</time>
      </trkpt>
      <trkpt lat="44.81736" lon="4.09553">
        <ele>1239.28</ele>
        <time>2019-07-28T09:13:11Z</time>
      </trkpt>
      <trkpt lat="44.81712" lon="4.09549">
        <ele>1239.28</ele>
        <time>2019-07-28T09:13:31Z</time>
      </trkpt>
      <trkpt lat="44.81699" lon="4.09549">
        <ele>1238.32</ele>
        <time>2019-07-28T09:13:48Z</time>
      </trkpt>
      <trkpt lat="44.81698" lon="4.09561">
        <ele>1238.32</ele>
        <time>2019-07-28T09:14:08Z</time>
      </trkpt>
      <trkpt lat="44.81701" lon="4.09565">
        <ele>1238.32</ele>
        <time>2019-07-28T09:14:12Z</time>
      </trkpt>
      <trkpt lat="44.81703" lon="4.09585">
        <ele>1238.32</ele>
        <time>2019-07-28T09:14:33Z</time>
      </trkpt>
      <trkpt lat="44.81712" lon="4.09608">
        <ele>1236.39</ele>
        <time>2019-07-28T09:14:54Z</time>
      </trkpt>
      <trkpt lat="44.81722" lon="4.09614">
        <ele>1234.95</ele>
        <time>2019-07-28T09:15:04Z</time>
      </trkpt>
      <trkpt lat="44.81749" lon="4.09625">
        <ele>1229.66</ele>
        <time>2019-07-28T09:15:27Z</time>
      </trkpt>
      <trkpt lat="44.81761" lon="4.09634">
        <ele>1228.7</ele>
        <time>2019-07-28T09:15:34Z</time>
      </trkpt>
      <trkpt lat="44.81767" lon="4.09634">
        <ele>1226.78</ele>
        <time>2019-07-28T09:15:40Z</time>
      </trkpt>
      <trkpt lat="44.81796" lon="4.09651">
        <ele>1220.53</ele>
        <time>2019-07-28T09:16:04Z</time>
      </trkpt>
      <trkpt lat="44.81823" lon="4.0967">
        <ele>1215.72</ele>
        <time>2019-07-28T09:16:26Z</time>
      </trkpt>
      <trkpt lat="44.8184" lon="4.09703">
        <ele>1209.96</ele>
        <time>2019-07-28T09:16:47Z</time>
      </trkpt>
      <trkpt lat="44.81858" lon="4.09743">
        <ele>1204.67</ele>
        <time>2019-07-28T09:17:13Z</time>
      </trkpt>
      <trkpt lat="44.81875" lon="4.09782">
        <ele>1205.63</ele>
        <time>2019-07-28T09:17:35Z</time>
      </trkpt>
      <trkpt lat="44.81905" lon="4.09809">
        <ele>1207.55</ele>
        <time>2019-07-28T09:18:01Z</time>
      </trkpt>
      <trkpt lat="44.81906" lon="4.0981">
        <ele>1207.55</ele>
        <time>2019-07-28T09:18:02Z</time>
      </trkpt>
      <trkpt lat="44.8192" lon="4.09843">
        <ele>1208.03</ele>
        <time>2019-07-28T09:18:25Z</time>
      </trkpt>
      <trkpt lat="44.8193" lon="4.0987">
        <ele>1211.4</ele>
        <time>2019-07-28T09:18:44Z</time>
      </trkpt>
      <trkpt lat="44.8193" lon="4.09872">
        <ele>1211.4</ele>
        <time>2019-07-28T09:18:45Z</time>
      </trkpt>
      <trkpt lat="44.81913" lon="4.09924">
        <ele>1212.84</ele>
        <time>2019-07-28T09:19:10Z</time>
      </trkpt>
      <trkpt lat="44.81901" lon="4.09978">
        <ele>1213.32</ele>
        <time>2019-07-28T09:19:28Z</time>
      </trkpt>
      <trkpt lat="44.81899" lon="4.09988">
        <ele>1213.32</ele>
        <time>2019-07-28T09:19:31Z</time>
      </trkpt>
      <trkpt lat="44.81929" lon="4.0997">
        <ele>1219.57</ele>
        <time>2019-07-28T09:19:37Z</time>
      </trkpt>
      <trkpt lat="44.81933" lon="4.09979">
        <ele>1216.69</ele>
        <time>2019-07-28T09:19:42Z</time>
      </trkpt>
      <trkpt lat="44.81945" lon="4.09991">
        <ele>1214.76</ele>
        <time>2019-07-28T09:19:53Z</time>
      </trkpt>
      <trkpt lat="44.81961" lon="4.10005">
        <ele>1211.88</ele>
        <time>2019-07-28T09:20:06Z</time>
      </trkpt>
      <trkpt lat="44.81966" lon="4.10011">
        <ele>1210.92</ele>
        <time>2019-07-28T09:20:13Z</time>
      </trkpt>
      <trkpt lat="44.81975" lon="4.10014">
        <ele>1209.48</ele>
        <time>2019-07-28T09:20:18Z</time>
      </trkpt>
      <trkpt lat="44.81976" lon="4.10017">
        <ele>1208.51</ele>
        <time>2019-07-28T09:20:21Z</time>
      </trkpt>
      <trkpt lat="44.8198" lon="4.10023">
        <ele>1207.55</ele>
        <time>2019-07-28T09:20:25Z</time>
      </trkpt>
      <trkpt lat="44.8199" lon="4.10031">
        <ele>1206.59</ele>
        <time>2019-07-28T09:20:33Z</time>
      </trkpt>
      <trkpt lat="44.81991" lon="4.10033">
        <ele>1206.11</ele>
        <time>2019-07-28T09:20:35Z</time>
      </trkpt>
      <trkpt lat="44.81996" lon="4.10039">
        <ele>1205.63</ele>
        <time>2019-07-28T09:20:39Z</time>
      </trkpt>
      <trkpt lat="44.82006" lon="4.10062">
        <ele>1203.71</ele>
        <time>2019-07-28T09:20:54Z</time>
      </trkpt>
      <trkpt lat="44.82013" lon="4.10087">
        <ele>1203.23</ele>
        <time>2019-07-28T09:21:05Z</time>
      </trkpt>
      <trkpt lat="44.82015" lon="4.10092">
        <ele>1203.23</ele>
        <time>2019-07-28T09:21:10Z</time>
      </trkpt>
      <trkpt lat="44.82021" lon="4.10101">
        <ele>1202.75</ele>
        <time>2019-07-28T09:21:17Z</time>
      </trkpt>
      <trkpt lat="44.82032" lon="4.10123">
        <ele>1201.79</ele>
        <time>2019-07-28T09:21:29Z</time>
      </trkpt>
      <trkpt lat="44.82044" lon="4.10142">
        <ele>1200.82</ele>
        <time>2019-07-28T09:21:38Z</time>
      </trkpt>
      <trkpt lat="44.82043" lon="4.10146">
        <ele>1200.82</ele>
        <time>2019-07-28T09:21:41Z</time>
      </trkpt>
      <trkpt lat="44.82045" lon="4.10154">
        <ele>1200.34</ele>
        <time>2019-07-28T09:21:45Z</time>
      </trkpt>
      <trkpt lat="44.82049" lon="4.10174">
        <ele>1199.86</ele>
        <time>2019-07-28T09:21:56Z</time>
      </trkpt>
      <trkpt lat="44.82048" lon="4.10189">
        <ele>1199.86</ele>
        <time>2019-07-28T09:22:05Z</time>
      </trkpt>
      <trkpt lat="44.82048" lon="4.1019">
        <ele>1199.38</ele>
        <time>2019-07-28T09:22:06Z</time>
      </trkpt>
      <trkpt lat="44.82053" lon="4.10209">
        <ele>1198.9</ele>
        <time>2019-07-28T09:22:15Z</time>
      </trkpt>
      <trkpt lat="44.82055" lon="4.10223">
        <ele>1198.9</ele>
        <time>2019-07-28T09:22:22Z</time>
      </trkpt>
      <trkpt lat="44.82061" lon="4.10232">
        <ele>1197.94</ele>
        <time>2019-07-28T09:22:31Z</time>
      </trkpt>
      <trkpt lat="44.82067" lon="4.10239">
        <ele>1197.46</ele>
        <time>2019-07-28T09:22:37Z</time>
      </trkpt>
      <trkpt lat="44.82071" lon="4.10244">
        <ele>1196.98</ele>
        <time>2019-07-28T09:22:41Z</time>
      </trkpt>
      <trkpt lat="44.82074" lon="4.10246">
        <ele>1196.98</ele>
        <time>2019-07-28T09:22:43Z</time>
      </trkpt>
      <trkpt lat="44.82078" lon="4.10251">
        <ele>1196.5</ele>
        <time>2019-07-28T09:22:47Z</time>
      </trkpt>
      <trkpt lat="44.82084" lon="4.10261">
        <ele>1196.02</ele>
        <time>2019-07-28T09:22:58Z</time>
      </trkpt>
      <trkpt lat="44.82084" lon="4.10262">
        <ele>1196.02</ele>
        <time>2019-07-28T09:22:59Z</time>
      </trkpt>
      <trkpt lat="44.82116" lon="4.10293">
        <ele>1193.61</ele>
        <time>2019-07-28T09:23:24Z</time>
      </trkpt>
      <trkpt lat="44.82141" lon="4.10311">
        <ele>1191.69</ele>
        <time>2019-07-28T09:23:46Z</time>
      </trkpt>
      <trkpt lat="44.82148" lon="4.10312">
        <ele>1190.73</ele>
        <time>2019-07-28T09:23:51Z</time>
      </trkpt>
      <trkpt lat="44.82171" lon="4.10329">
        <ele>1187.85</ele>
        <time>2019-07-28T09:24:10Z</time>
      </trkpt>
      <trkpt lat="44.82184" lon="4.10337">
        <ele>1185.92</ele>
        <time>2019-07-28T09:24:19Z</time>
      </trkpt>
      <trkpt lat="44.8219" lon="4.10347">
        <ele>1183.04</ele>
        <time>2019-07-28T09:24:28Z</time>
      </trkpt>
      <trkpt lat="44.82199" lon="4.10362">
        <ele>1182.56</ele>
        <time>2019-07-28T09:24:38Z</time>
      </trkpt>
      <trkpt lat="44.82207" lon="4.10382">
        <ele>1182.56</ele>
        <time>2019-07-28T09:24:49Z</time>
      </trkpt>
      <trkpt lat="44.82215" lon="4.10397">
        <ele>1181.12</ele>
        <time>2019-07-28T09:24:59Z</time>
      </trkpt>
      <trkpt lat="44.82217" lon="4.10402">
        <ele>1181.12</ele>
        <time>2019-07-28T09:25:03Z</time>
      </trkpt>
      <trkpt lat="44.82222" lon="4.10414">
        <ele>1180.64</ele>
        <time>2019-07-28T09:25:09Z</time>
      </trkpt>
      <trkpt lat="44.82227" lon="4.1043">
        <ele>1179.19</ele>
        <time>2019-07-28T09:25:20Z</time>
      </trkpt>
      <trkpt lat="44.8223" lon="4.10447">
        <ele>1179.19</ele>
        <time>2019-07-28T09:25:30Z</time>
      </trkpt>
      <trkpt lat="44.8223" lon="4.10456">
        <ele>1178.71</ele>
        <time>2019-07-28T09:25:37Z</time>
      </trkpt>
      <trkpt lat="44.82231" lon="4.1046">
        <ele>1178.71</ele>
        <time>2019-07-28T09:25:39Z</time>
      </trkpt>
      <trkpt lat="44.82232" lon="4.10468">
        <ele>1177.27</ele>
        <time>2019-07-28T09:25:45Z</time>
      </trkpt>
      <trkpt lat="44.8223" lon="4.10477">
        <ele>1176.79</ele>
        <time>2019-07-28T09:25:49Z</time>
      </trkpt>
      <trkpt lat="44.8222" lon="4.105">
        <ele>1175.35</ele>
        <time>2019-07-28T09:26:00Z</time>
      </trkpt>
      <trkpt lat="44.82219" lon="4.10503">
        <ele>1174.39</ele>
        <time>2019-07-28T09:26:05Z</time>
      </trkpt>
      <trkpt lat="44.82216" lon="4.10509">
        <ele>1173.91</ele>
        <time>2019-07-28T09:26:09Z</time>
      </trkpt>
      <trkpt lat="44.82214" lon="4.10516">
        <ele>1172.47</ele>
        <time>2019-07-28T09:26:17Z</time>
      </trkpt>
      <trkpt lat="44.82209" lon="4.1053">
        <ele>1171.5</ele>
        <time>2019-07-28T09:26:23Z</time>
      </trkpt>
      <trkpt lat="44.82204" lon="4.10545">
        <ele>1170.06</ele>
        <time>2019-07-28T09:26:34Z</time>
      </trkpt>
      <trkpt lat="44.82201" lon="4.1055">
        <ele>1169.58</ele>
        <time>2019-07-28T09:26:38Z</time>
      </trkpt>
      <trkpt lat="44.82195" lon="4.10564">
        <ele>1169.1</ele>
        <time>2019-07-28T09:26:48Z</time>
      </trkpt>
      <trkpt lat="44.82186" lon="4.10586">
        <ele>1169.58</ele>
        <time>2019-07-28T09:27:10Z</time>
      </trkpt>
      <trkpt lat="44.82182" lon="4.10613">
        <ele>1170.54</ele>
        <time>2019-07-28T09:27:28Z</time>
      </trkpt>
      <trkpt lat="44.8218" lon="4.10624">
        <ele>1170.54</ele>
        <time>2019-07-28T09:27:36Z</time>
      </trkpt>
      <trkpt lat="44.82162" lon="4.10675">
        <ele>1171.02</ele>
        <time>2019-07-28T09:28:00Z</time>
      </trkpt>
      <trkpt lat="44.82133" lon="4.10688">
        <ele>1171.02</ele>
        <time>2019-07-28T09:28:20Z</time>
      </trkpt>
      <trkpt lat="44.8211" lon="4.10679">
        <ele>1171.5</ele>
        <time>2019-07-28T09:28:39Z</time>
      </trkpt>
      <trkpt lat="44.82087" lon="4.10663">
        <ele>1171.98</ele>
        <time>2019-07-28T09:28:59Z</time>
      </trkpt>
      <trkpt lat="44.82059" lon="4.10646">
        <ele>1171.5</ele>
        <time>2019-07-28T09:29:21Z</time>
      </trkpt>
      <trkpt lat="44.82034" lon="4.10634">
        <ele>1170.54</ele>
        <time>2019-07-28T09:29:39Z</time>
      </trkpt>
      <trkpt lat="44.82013" lon="4.10614">
        <ele>1166.7</ele>
        <time>2019-07-28T09:30:00Z</time>
      </trkpt>
      <trkpt lat="44.81987" lon="4.10603">
        <ele>1164.77</ele>
        <time>2019-07-28T09:30:18Z</time>
      </trkpt>
      <trkpt lat="44.81972" lon="4.10596">
        <ele>1164.29</ele>
        <time>2019-07-28T09:30:37Z</time>
      </trkpt>
      <trkpt lat="44.81965" lon="4.10593">
        <ele>1163.33</ele>
        <time>2019-07-28T09:30:42Z</time>
      </trkpt>
      <trkpt lat="44.81939" lon="4.1057">
        <ele>1162.37</ele>
        <time>2019-07-28T09:31:02Z</time>
      </trkpt>
      <trkpt lat="44.81909" lon="4.10567">
        <ele>1164.29</ele>
        <time>2019-07-28T09:31:25Z</time>
      </trkpt>
      <trkpt lat="44.81891" lon="4.10533">
        <ele>1165.74</ele>
        <time>2019-07-28T09:31:45Z</time>
      </trkpt>
      <trkpt lat="44.81878" lon="4.10502">
        <ele>1170.06</ele>
        <time>2019-07-28T09:32:06Z</time>
      </trkpt>
      <trkpt lat="44.81879" lon="4.10502">
        <ele>1172.47</ele>
        <time>2019-07-28T09:32:30Z</time>
      </trkpt>
      <trkpt lat="44.81878" lon="4.10502">
        <ele>1175.83</ele>
        <time>2019-07-28T09:32:53Z</time>
      </trkpt>
      <trkpt lat="44.8188" lon="4.10503">
        <ele>1176.79</ele>
        <time>2019-07-28T09:33:16Z</time>
      </trkpt>
      <trkpt lat="44.81879" lon="4.10503">
        <ele>1176.79</ele>
        <time>2019-07-28T09:33:37Z</time>
      </trkpt>
      <trkpt lat="44.81894" lon="4.10471">
        <ele>1165.26</ele>
        <time>2019-07-28T09:34:01Z</time>
      </trkpt>
      <trkpt lat="44.81899" lon="4.10463">
        <ele>1154.68</ele>
        <time>2019-07-28T09:34:23Z</time>
      </trkpt>
      <trkpt lat="44.81896" lon="4.10454">
        <ele>1148.43</ele>
        <time>2019-07-28T09:34:47Z</time>
      </trkpt>
      <trkpt lat="44.81886" lon="4.10422">
        <ele>1140.26</ele>
        <time>2019-07-28T09:35:06Z</time>
      </trkpt>
      <trkpt lat="44.81885" lon="4.10416">
        <ele>1139.78</ele>
        <time>2019-07-28T09:35:12Z</time>
      </trkpt>
      <trkpt lat="44.81873" lon="4.104">
        <ele>1139.3</ele>
        <time>2019-07-28T09:35:27Z</time>
      </trkpt>
      <trkpt lat="44.81858" lon="4.10395">
        <ele>1137.86</ele>
        <time>2019-07-28T09:35:44Z</time>
      </trkpt>
      <trkpt lat="44.8184" lon="4.10371">
        <ele>1137.38</ele>
        <time>2019-07-28T09:36:07Z</time>
      </trkpt>
      <trkpt lat="44.81821" lon="4.10325">
        <ele>1135.94</ele>
        <time>2019-07-28T09:36:27Z</time>
      </trkpt>
      <trkpt lat="44.81816" lon="4.10306">
        <ele>1135.45</ele>
        <time>2019-07-28T09:36:34Z</time>
      </trkpt>
      <trkpt lat="44.81813" lon="4.10299">
        <ele>1135.45</ele>
        <time>2019-07-28T09:36:37Z</time>
      </trkpt>
      <trkpt lat="44.81779" lon="4.10272">
        <ele>1134.01</ele>
        <time>2019-07-28T09:37:00Z</time>
      </trkpt>
      <trkpt lat="44.81745" lon="4.10279">
        <ele>1134.97</ele>
        <time>2019-07-28T09:37:22Z</time>
      </trkpt>
      <trkpt lat="44.81713" lon="4.1028">
        <ele>1135.45</ele>
        <time>2019-07-28T09:37:46Z</time>
      </trkpt>
      <trkpt lat="44.81683" lon="4.10284">
        <ele>1130.65</ele>
        <time>2019-07-28T09:38:10Z</time>
      </trkpt>
      <trkpt lat="44.81666" lon="4.10286">
        <ele>1125.84</ele>
        <time>2019-07-28T09:38:29Z</time>
      </trkpt>
      <trkpt lat="44.81662" lon="4.10286">
        <ele>1124.88</ele>
        <time>2019-07-28T09:38:32Z</time>
      </trkpt>
      <trkpt lat="44.81652" lon="4.10283">
        <ele>1122.96</ele>
        <time>2019-07-28T09:38:38Z</time>
      </trkpt>
      <trkpt lat="44.81629" lon="4.10278">
        <ele>1116.71</ele>
        <time>2019-07-28T09:38:59Z</time>
      </trkpt>
      <trkpt lat="44.81625" lon="4.10278">
        <ele>1118.63</ele>
        <time>2019-07-28T09:39:23Z</time>
      </trkpt>
      <trkpt lat="44.81592" lon="4.10269">
        <ele>1114.79</ele>
        <time>2019-07-28T09:39:41Z</time>
      </trkpt>
      <trkpt lat="44.81562" lon="4.10262">
        <ele>1107.1</ele>
        <time>2019-07-28T09:40:04Z</time>
      </trkpt>
      <trkpt lat="44.81539" lon="4.10253">
        <ele>1101.33</ele>
        <time>2019-07-28T09:40:24Z</time>
      </trkpt>
      <trkpt lat="44.81511" lon="4.1025">
        <ele>1099.4</ele>
        <time>2019-07-28T09:40:45Z</time>
      </trkpt>
      <trkpt lat="44.81499" lon="4.10237">
        <ele>1097.96</ele>
        <time>2019-07-28T09:41:01Z</time>
      </trkpt>
      <trkpt lat="44.81487" lon="4.10227">
        <ele>1099.4</ele>
        <time>2019-07-28T09:41:21Z</time>
      </trkpt>
      <trkpt lat="44.81472" lon="4.10214">
        <ele>1098.44</ele>
        <time>2019-07-28T09:41:44Z</time>
      </trkpt>
      <trkpt lat="44.81436" lon="4.10207">
        <ele>1089.31</ele>
        <time>2019-07-28T09:42:03Z</time>
      </trkpt>
      <trkpt lat="44.8141" lon="4.10207">
        <ele>1084.02</ele>
        <time>2019-07-28T09:42:21Z</time>
      </trkpt>
      <trkpt lat="44.81381" lon="4.10199">
        <ele>1085.95</ele>
        <time>2019-07-28T09:42:42Z</time>
      </trkpt>
      <trkpt lat="44.81369" lon="4.10203">
        <ele>1088.83</ele>
        <time>2019-07-28T09:42:56Z</time>
      </trkpt>
      <trkpt lat="44.81353" lon="4.10209">
        <ele>1088.83</ele>
        <time>2019-07-28T09:43:16Z</time>
      </trkpt>
      <trkpt lat="44.81343" lon="4.10212">
        <ele>1090.27</ele>
        <time>2019-07-28T09:43:31Z</time>
      </trkpt>
      <trkpt lat="44.81317" lon="4.10221">
        <ele>1092.2</ele>
        <time>2019-07-28T09:43:50Z</time>
      </trkpt>
      <trkpt lat="44.81292" lon="4.10218">
        <ele>1089.31</ele>
        <time>2019-07-28T09:44:10Z</time>
      </trkpt>
      <trkpt lat="44.81271" lon="4.10193">
        <ele>1091.71</ele>
        <time>2019-07-28T09:44:32Z</time>
      </trkpt>
      <trkpt lat="44.81264" lon="4.10198">
        <ele>1092.2</ele>
        <time>2019-07-28T09:44:47Z</time>
      </trkpt>
      <trkpt lat="44.81248" lon="4.10198">
        <ele>1092.2</ele>
        <time>2019-07-28T09:45:08Z</time>
      </trkpt>
      <trkpt lat="44.8125" lon="4.10203">
        <ele>1093.64</ele>
        <time>2019-07-28T09:45:15Z</time>
      </trkpt>
      <trkpt lat="44.81242" lon="4.10223">
        <ele>1093.64</ele>
        <time>2019-07-28T09:45:37Z</time>
      </trkpt>
      <trkpt lat="44.81233" lon="4.10232">
        <ele>1091.23</ele>
        <time>2019-07-28T09:45:57Z</time>
      </trkpt>
      <trkpt lat="44.81204" lon="4.10255">
        <ele>1077.78</ele>
        <time>2019-07-28T09:46:06Z</time>
      </trkpt>
      <trkpt lat="44.81196" lon="4.1027">
        <ele>1077.78</ele>
        <time>2019-07-28T09:46:16Z</time>
      </trkpt>
      <trkpt lat="44.81192" lon="4.10284">
        <ele>1077.78</ele>
        <time>2019-07-28T09:46:24Z</time>
      </trkpt>
      <trkpt lat="44.81168" lon="4.10323">
        <ele>1077.29</ele>
        <time>2019-07-28T09:46:45Z</time>
      </trkpt>
      <trkpt lat="44.81155" lon="4.10339">
        <ele>1077.29</ele>
        <time>2019-07-28T09:47:02Z</time>
      </trkpt>
      <trkpt lat="44.81147" lon="4.10354">
        <ele>1076.33</ele>
        <time>2019-07-28T09:47:21Z</time>
      </trkpt>
      <trkpt lat="44.81138" lon="4.10367">
        <ele>1075.37</ele>
        <time>2019-07-28T09:47:45Z</time>
      </trkpt>
      <trkpt lat="44.81134" lon="4.1037">
        <ele>1074.41</ele>
        <time>2019-07-28T09:48:10Z</time>
      </trkpt>
      <trkpt lat="44.81132" lon="4.10368">
        <ele>1073.45</ele>
        <time>2019-07-28T09:48:32Z</time>
      </trkpt>
      <trkpt lat="44.81136" lon="4.10364">
        <ele>1074.89</ele>
        <time>2019-07-28T09:48:51Z</time>
      </trkpt>
      <trkpt lat="44.81125" lon="4.1037">
        <ele>1074.41</ele>
        <time>2019-07-28T09:49:18Z</time>
      </trkpt>
      <trkpt lat="44.81112" lon="4.10381">
        <ele>1075.85</ele>
        <time>2019-07-28T09:49:39Z</time>
      </trkpt>
      <trkpt lat="44.81096" lon="4.10372">
        <ele>1077.29</ele>
        <time>2019-07-28T09:49:51Z</time>
      </trkpt>
      <trkpt lat="44.81085" lon="4.10366">
        <ele>1078.74</ele>
        <time>2019-07-28T09:50:01Z</time>
      </trkpt>
      <trkpt lat="44.81068" lon="4.10348">
        <ele>1078.74</ele>
        <time>2019-07-28T09:50:20Z</time>
      </trkpt>
      <trkpt lat="44.81058" lon="4.10339">
        <ele>1078.26</ele>
        <time>2019-07-28T09:50:30Z</time>
      </trkpt>
      <trkpt lat="44.81045" lon="4.10319">
        <ele>1078.26</ele>
        <time>2019-07-28T09:50:51Z</time>
      </trkpt>
      <trkpt lat="44.81031" lon="4.10305">
        <ele>1077.29</ele>
        <time>2019-07-28T09:51:12Z</time>
      </trkpt>
      <trkpt lat="44.81" lon="4.10267">
        <ele>1075.85</ele>
        <time>2019-07-28T09:51:31Z</time>
      </trkpt>
      <trkpt lat="44.8099" lon="4.10255">
        <ele>1075.37</ele>
        <time>2019-07-28T09:51:40Z</time>
      </trkpt>
      <trkpt lat="44.80975" lon="4.10257">
        <ele>1073.45</ele>
        <time>2019-07-28T09:52:00Z</time>
      </trkpt>
      <trkpt lat="44.80963" lon="4.10233">
        <ele>1072.97</ele>
        <time>2019-07-28T09:52:19Z</time>
      </trkpt>
      <trkpt lat="44.80966" lon="4.1024">
        <ele>1073.93</ele>
        <time>2019-07-28T09:52:41Z</time>
      </trkpt>
      <trkpt lat="44.80954" lon="4.10228">
        <ele>1075.37</ele>
        <time>2019-07-28T09:53:05Z</time>
      </trkpt>
      <trkpt lat="44.80908" lon="4.10215">
        <ele>1072.97</ele>
        <time>2019-07-28T09:53:26Z</time>
      </trkpt>
      <trkpt lat="44.80887" lon="4.10236">
        <ele>1073.45</ele>
        <time>2019-07-28T09:53:46Z</time>
      </trkpt>
      <trkpt lat="44.80875" lon="4.10243">
        <ele>1074.41</ele>
        <time>2019-07-28T09:53:53Z</time>
      </trkpt>
      <trkpt lat="44.80846" lon="4.10259">
        <ele>1074.41</ele>
        <time>2019-07-28T09:54:17Z</time>
      </trkpt>
      <trkpt lat="44.80843" lon="4.10258">
        <ele>1073.93</ele>
        <time>2019-07-28T09:54:37Z</time>
      </trkpt>
      <trkpt lat="44.80843" lon="4.10253">
        <ele>1072.97</ele>
        <time>2019-07-28T09:54:41Z</time>
      </trkpt>
      <trkpt lat="44.80846" lon="4.10238">
        <ele>1070.57</ele>
        <time>2019-07-28T09:55:03Z</time>
      </trkpt>
      <trkpt lat="44.80836" lon="4.10258">
        <ele>1069.6</ele>
        <time>2019-07-28T09:55:24Z</time>
      </trkpt>
      <trkpt lat="44.80808" lon="4.10296">
        <ele>1069.12</ele>
        <time>2019-07-28T09:55:45Z</time>
      </trkpt>
      <trkpt lat="44.80746" lon="4.10342">
        <ele>1069.6</ele>
        <time>2019-07-28T09:55:59Z</time>
      </trkpt>
      <trkpt lat="44.80726" lon="4.10345">
        <ele>1064.8</ele>
        <time>2019-07-28T09:56:13Z</time>
      </trkpt>
      <trkpt lat="44.80717" lon="4.10342">
        <ele>1063.84</ele>
        <time>2019-07-28T09:56:32Z</time>
      </trkpt>
      <trkpt lat="44.80719" lon="4.10341">
        <ele>1063.84</ele>
        <time>2019-07-28T09:56:47Z</time>
      </trkpt>
      <trkpt lat="44.80723" lon="4.10346">
        <ele>1063.36</ele>
        <time>2019-07-28T09:56:59Z</time>
      </trkpt>
      <trkpt lat="44.80714" lon="4.10357">
        <ele>1063.84</ele>
        <time>2019-07-28T09:57:14Z</time>
      </trkpt>
      <trkpt lat="44.80702" lon="4.10363">
        <ele>1066.72</ele>
        <time>2019-07-28T09:57:28Z</time>
      </trkpt>
      <trkpt lat="44.80695" lon="4.10364">
        <ele>1067.68</ele>
        <time>2019-07-28T09:57:34Z</time>
      </trkpt>
      <trkpt lat="44.80686" lon="4.10373">
        <ele>1071.05</ele>
        <time>2019-07-28T09:57:53Z</time>
      </trkpt>
      <trkpt lat="44.80681" lon="4.10378">
        <ele>1072.49</ele>
        <time>2019-07-28T09:58:10Z</time>
      </trkpt>
      <trkpt lat="44.80689" lon="4.1038">
        <ele>1072.97</ele>
        <time>2019-07-28T09:58:32Z</time>
      </trkpt>
      <trkpt lat="44.80698" lon="4.10388">
        <ele>1073.45</ele>
        <time>2019-07-28T09:58:52Z</time>
      </trkpt>
      <trkpt lat="44.80705" lon="4.10402">
        <ele>1072.49</ele>
        <time>2019-07-28T09:59:16Z</time>
      </trkpt>
      <trkpt lat="44.80709" lon="4.10405">
        <ele>1072.49</ele>
        <time>2019-07-28T09:59:42Z</time>
      </trkpt>
      <trkpt lat="44.80709" lon="4.10407">
        <ele>1072.01</ele>
        <time>2019-07-28T10:00:03Z</time>
      </trkpt>
      <trkpt lat="44.80706" lon="4.10413">
        <ele>1071.05</ele>
        <time>2019-07-28T10:00:24Z</time>
      </trkpt>
      <trkpt lat="44.80654" lon="4.10426">
        <ele>1068.64</ele>
        <time>2019-07-28T10:00:45Z</time>
      </trkpt>
      <trkpt lat="44.80614" lon="4.10449">
        <ele>1061.43</ele>
        <time>2019-07-28T10:01:07Z</time>
      </trkpt>
      <trkpt lat="44.80582" lon="4.10457">
        <ele>1053.26</ele>
        <time>2019-07-28T10:01:34Z</time>
      </trkpt>
      <trkpt lat="44.80564" lon="4.10466">
        <ele>1050.38</ele>
        <time>2019-07-28T10:01:57Z</time>
      </trkpt>
      <trkpt lat="44.80527" lon="4.10451">
        <ele>1049.9</ele>
        <time>2019-07-28T10:02:21Z</time>
      </trkpt>
      <trkpt lat="44.80507" lon="4.10453">
        <ele>1049.9</ele>
        <time>2019-07-28T10:02:39Z</time>
      </trkpt>
      <trkpt lat="44.80505" lon="4.10457">
        <ele>1049.9</ele>
        <time>2019-07-28T10:02:41Z</time>
      </trkpt>
      <trkpt lat="44.80502" lon="4.10464">
        <ele>1049.9</ele>
        <time>2019-07-28T10:02:44Z</time>
      </trkpt>
      <trkpt lat="44.80496" lon="4.10494">
        <ele>1049.9</ele>
        <time>2019-07-28T10:02:57Z</time>
      </trkpt>
      <trkpt lat="44.80502" lon="4.10517">
        <ele>1049.9</ele>
        <time>2019-07-28T10:03:19Z</time>
      </trkpt>
      <trkpt lat="44.80495" lon="4.10516">
        <ele>1049.42</ele>
        <time>2019-07-28T10:03:38Z</time>
      </trkpt>
      <trkpt lat="44.80479" lon="4.10515">
        <ele>1049.42</ele>
        <time>2019-07-28T10:03:59Z</time>
      </trkpt>
      <trkpt lat="44.80467" lon="4.10514">
        <ele>1048.94</ele>
        <time>2019-07-28T10:04:19Z</time>
      </trkpt>
      <trkpt lat="44.80449" lon="4.10514">
        <ele>1049.42</ele>
        <time>2019-07-28T10:04:25Z</time>
      </trkpt>
      <trkpt lat="44.80443" lon="4.10515">
        <ele>1048.94</ele>
        <time>2019-07-28T10:04:27Z</time>
      </trkpt>
      <trkpt lat="44.80433" lon="4.10516">
        <ele>1046.53</ele>
        <time>2019-07-28T10:04:33Z</time>
      </trkpt>
      <trkpt lat="44.80421" lon="4.10521">
        <ele>1044.13</ele>
        <time>2019-07-28T10:04:47Z</time>
      </trkpt>
      <trkpt lat="44.80419" lon="4.10522">
        <ele>1044.13</ele>
        <time>2019-07-28T10:05:09Z</time>
      </trkpt>
      <trkpt lat="44.80414" lon="4.10527">
        <ele>1042.21</ele>
        <time>2019-07-28T10:05:34Z</time>
      </trkpt>
      <trkpt lat="44.80412" lon="4.1053">
        <ele>1041.73</ele>
        <time>2019-07-28T10:05:36Z</time>
      </trkpt>
      <trkpt lat="44.80411" lon="4.10539">
        <ele>1039.8</ele>
        <time>2019-07-28T10:05:41Z</time>
      </trkpt>
      <trkpt lat="44.80396" lon="4.10577">
        <ele>1032.59</ele>
        <time>2019-07-28T10:06:03Z</time>
      </trkpt>
      <trkpt lat="44.80372" lon="4.10568">
        <ele>1029.71</ele>
        <time>2019-07-28T10:06:25Z</time>
      </trkpt>
      <trkpt lat="44.80358" lon="4.10557">
        <ele>1028.27</ele>
        <time>2019-07-28T10:06:43Z</time>
      </trkpt>
      <trkpt lat="44.80324" lon="4.10543">
        <ele>1021.54</ele>
        <time>2019-07-28T10:07:07Z</time>
      </trkpt>
      <trkpt lat="44.80307" lon="4.10517">
        <ele>1016.25</ele>
        <time>2019-07-28T10:07:33Z</time>
      </trkpt>
      <trkpt lat="44.80295" lon="4.10503">
        <ele>1015.29</ele>
        <time>2019-07-28T10:07:55Z</time>
      </trkpt>
      <trkpt lat="44.80266" lon="4.10446">
        <ele>1051.82</ele>
        <time>2019-07-28T10:08:15Z</time>
      </trkpt>
      <trkpt lat="44.80263" lon="4.10442">
        <ele>1056.15</ele>
        <time>2019-07-28T10:08:23Z</time>
      </trkpt>
      <trkpt lat="44.80261" lon="4.10443">
        <ele>1057.59</ele>
        <time>2019-07-28T10:08:34Z</time>
      </trkpt>
      <trkpt lat="44.80261" lon="4.10442">
        <ele>1057.59</ele>
        <time>2019-07-28T10:08:59Z</time>
      </trkpt>
      <trkpt lat="44.80256" lon="4.10438">
        <ele>1057.11</ele>
        <time>2019-07-28T10:09:22Z</time>
      </trkpt>
      <trkpt lat="44.80255" lon="4.10439">
        <ele>1057.59</ele>
        <time>2019-07-28T10:09:24Z</time>
      </trkpt>
      <trkpt lat="44.80243" lon="4.10466">
        <ele>1058.55</ele>
        <time>2019-07-28T10:09:41Z</time>
      </trkpt>
      <trkpt lat="44.80249" lon="4.10457">
        <ele>1059.03</ele>
        <time>2019-07-28T10:10:03Z</time>
      </trkpt>
      <trkpt lat="44.80251" lon="4.10452">
        <ele>1059.51</ele>
        <time>2019-07-28T10:10:13Z</time>
      </trkpt>
      <trkpt lat="44.80259" lon="4.10435">
        <ele>1060.95</ele>
        <time>2019-07-28T10:10:36Z</time>
      </trkpt>
      <trkpt lat="44.80257" lon="4.10431">
        <ele>1061.43</ele>
        <time>2019-07-28T10:10:57Z</time>
      </trkpt>
      <trkpt lat="44.80263" lon="4.10422">
        <ele>1062.39</ele>
        <time>2019-07-28T10:11:19Z</time>
      </trkpt>
      <trkpt lat="44.80267" lon="4.10394">
        <ele>1062.39</ele>
        <time>2019-07-28T10:11:42Z</time>
      </trkpt>
      <trkpt lat="44.80268" lon="4.10392">
        <ele>1062.39</ele>
        <time>2019-07-28T10:11:49Z</time>
      </trkpt>
      <trkpt lat="44.80274" lon="4.10354">
        <ele>1065.28</ele>
        <time>2019-07-28T10:12:05Z</time>
      </trkpt>
      <trkpt lat="44.8028" lon="4.10321">
        <ele>1065.76</ele>
        <time>2019-07-28T10:12:20Z</time>
      </trkpt>
      <trkpt lat="44.80281" lon="4.10302">
        <ele>1066.72</ele>
        <time>2019-07-28T10:12:31Z</time>
      </trkpt>
      <trkpt lat="44.80281" lon="4.10287">
        <ele>1067.68</ele>
        <time>2019-07-28T10:12:39Z</time>
      </trkpt>
      <trkpt lat="44.80275" lon="4.10282">
        <ele>1068.16</ele>
        <time>2019-07-28T10:12:43Z</time>
      </trkpt>
      <trkpt lat="44.8026" lon="4.10273">
        <ele>1068.16</ele>
        <time>2019-07-28T10:12:55Z</time>
      </trkpt>
      <trkpt lat="44.80241" lon="4.10261">
        <ele>1068.16</ele>
        <time>2019-07-28T10:13:07Z</time>
      </trkpt>
      <trkpt lat="44.80232" lon="4.10257">
        <ele>1070.08</ele>
        <time>2019-07-28T10:13:21Z</time>
      </trkpt>
      <trkpt lat="44.8023" lon="4.10253">
        <ele>1072.97</ele>
        <time>2019-07-28T10:13:40Z</time>
      </trkpt>
      <trkpt lat="44.80226" lon="4.1025">
        <ele>1073.45</ele>
        <time>2019-07-28T10:13:50Z</time>
      </trkpt>
      <trkpt lat="44.80216" lon="4.10235">
        <ele>1072.97</ele>
        <time>2019-07-28T10:13:58Z</time>
      </trkpt>
      <trkpt lat="44.80217" lon="4.10231">
        <ele>1072.97</ele>
        <time>2019-07-28T10:14:01Z</time>
      </trkpt>
      <trkpt lat="44.80206" lon="4.10209">
        <ele>1072.01</ele>
        <time>2019-07-28T10:14:10Z</time>
      </trkpt>
      <trkpt lat="44.80202" lon="4.10207">
        <ele>1072.01</ele>
        <time>2019-07-28T10:14:12Z</time>
      </trkpt>
      <trkpt lat="44.80197" lon="4.10207">
        <ele>1072.01</ele>
        <time>2019-07-28T10:14:15Z</time>
      </trkpt>
      <trkpt lat="44.80193" lon="4.10222">
        <ele>1071.53</ele>
        <time>2019-07-28T10:14:23Z</time>
      </trkpt>
      <trkpt lat="44.80188" lon="4.10227">
        <ele>1071.05</ele>
        <time>2019-07-28T10:14:36Z</time>
      </trkpt>
      <trkpt lat="44.80187" lon="4.10227">
        <ele>1071.05</ele>
        <time>2019-07-28T10:14:39Z</time>
      </trkpt>
      <trkpt lat="44.80186" lon="4.10229">
        <ele>1071.05</ele>
        <time>2019-07-28T10:14:41Z</time>
      </trkpt>
      <trkpt lat="44.80184" lon="4.10232">
        <ele>1071.05</ele>
        <time>2019-07-28T10:14:43Z</time>
      </trkpt>
      <trkpt lat="44.80184" lon="4.10241">
        <ele>1071.05</ele>
        <time>2019-07-28T10:14:48Z</time>
      </trkpt>
      <trkpt lat="44.8018" lon="4.10253">
        <ele>1070.57</ele>
        <time>2019-07-28T10:14:53Z</time>
      </trkpt>
      <trkpt lat="44.80173" lon="4.10267">
        <ele>1070.57</ele>
        <time>2019-07-28T10:15:05Z</time>
      </trkpt>
      <trkpt lat="44.8017" lon="4.10263">
        <ele>1070.08</ele>
        <time>2019-07-28T10:15:20Z</time>
      </trkpt>
      <trkpt lat="44.80169" lon="4.10259">
        <ele>1070.08</ele>
        <time>2019-07-28T10:15:24Z</time>
      </trkpt>
      <trkpt lat="44.80165" lon="4.10252">
        <ele>1070.08</ele>
        <time>2019-07-28T10:15:39Z</time>
      </trkpt>
      <trkpt lat="44.8016" lon="4.1025">
        <ele>1069.6</ele>
        <time>2019-07-28T10:15:58Z</time>
      </trkpt>
      <trkpt lat="44.80155" lon="4.10252">
        <ele>1069.6</ele>
        <time>2019-07-28T10:16:11Z</time>
      </trkpt>
      <trkpt lat="44.80153" lon="4.10257">
        <ele>1069.6</ele>
        <time>2019-07-28T10:16:31Z</time>
      </trkpt>
      <trkpt lat="44.80145" lon="4.10273">
        <ele>1069.6</ele>
        <time>2019-07-28T10:16:45Z</time>
      </trkpt>
      <trkpt lat="44.80143" lon="4.10278">
        <ele>1069.6</ele>
        <time>2019-07-28T10:16:50Z</time>
      </trkpt>
      <trkpt lat="44.8013" lon="4.10295">
        <ele>1054.7</ele>
        <time>2019-07-28T10:17:03Z</time>
      </trkpt>
      <trkpt lat="44.80121" lon="4.10309">
        <ele>1052.78</ele>
        <time>2019-07-28T10:17:18Z</time>
      </trkpt>
      <trkpt lat="44.80115" lon="4.10318">
        <ele>1052.3</ele>
        <time>2019-07-28T10:17:26Z</time>
      </trkpt>
      <trkpt lat="44.80112" lon="4.10329">
        <ele>1048.94</ele>
        <time>2019-07-28T10:17:32Z</time>
      </trkpt>
      <trkpt lat="44.80107" lon="4.10343">
        <ele>1047.49</ele>
        <time>2019-07-28T10:17:44Z</time>
      </trkpt>
      <trkpt lat="44.80104" lon="4.10348">
        <ele>1047.01</ele>
        <time>2019-07-28T10:17:49Z</time>
      </trkpt>
      <trkpt lat="44.80102" lon="4.10354">
        <ele>1047.49</ele>
        <time>2019-07-28T10:17:53Z</time>
      </trkpt>
      <trkpt lat="44.80102" lon="4.10371">
        <ele>1045.57</ele>
        <time>2019-07-28T10:18:04Z</time>
      </trkpt>
      <trkpt lat="44.80088" lon="4.10389">
        <ele>1043.17</ele>
        <time>2019-07-28T10:18:19Z</time>
      </trkpt>
      <trkpt lat="44.80084" lon="4.10397">
        <ele>1043.65</ele>
        <time>2019-07-28T10:18:26Z</time>
      </trkpt>
      <trkpt lat="44.80083" lon="4.10405">
        <ele>1042.21</ele>
        <time>2019-07-28T10:18:30Z</time>
      </trkpt>
      <trkpt lat="44.80077" lon="4.10418">
        <ele>1041.73</ele>
        <time>2019-07-28T10:18:39Z</time>
      </trkpt>
      <trkpt lat="44.80065" lon="4.10431">
        <ele>1042.21</ele>
        <time>2019-07-28T10:18:52Z</time>
      </trkpt>
      <trkpt lat="44.80062" lon="4.10438">
        <ele>1043.17</ele>
        <time>2019-07-28T10:19:01Z</time>
      </trkpt>
      <trkpt lat="44.80056" lon="4.10461">
        <ele>1044.13</ele>
        <time>2019-07-28T10:19:17Z</time>
      </trkpt>
      <trkpt lat="44.80051" lon="4.10472">
        <ele>1044.13</ele>
        <time>2019-07-28T10:19:30Z</time>
      </trkpt>
      <trkpt lat="44.80058" lon="4.10494">
        <ele>1044.61</ele>
        <time>2019-07-28T10:19:41Z</time>
      </trkpt>
      <trkpt lat="44.80065" lon="4.1052">
        <ele>1044.61</ele>
        <time>2019-07-28T10:19:52Z</time>
      </trkpt>
      <trkpt lat="44.80063" lon="4.10545">
        <ele>1044.61</ele>
        <time>2019-07-28T10:20:07Z</time>
      </trkpt>
      <trkpt lat="44.80061" lon="4.10579">
        <ele>1044.61</ele>
        <time>2019-07-28T10:20:30Z</time>
      </trkpt>
      <trkpt lat="44.80057" lon="4.10605">
        <ele>1045.09</ele>
        <time>2019-07-28T10:20:52Z</time>
      </trkpt>
      <trkpt lat="44.80054" lon="4.10652">
        <ele>1048.45</ele>
        <time>2019-07-28T10:21:18Z</time>
      </trkpt>
      <trkpt lat="44.80053" lon="4.10672">
        <ele>1048.45</ele>
        <time>2019-07-28T10:21:42Z</time>
      </trkpt>
      <trkpt lat="44.80058" lon="4.10691">
        <ele>1048.45</ele>
        <time>2019-07-28T10:22:04Z</time>
      </trkpt>
      <trkpt lat="44.80049" lon="4.10718">
        <ele>1048.45</ele>
        <time>2019-07-28T10:22:27Z</time>
      </trkpt>
      <trkpt lat="44.80045" lon="4.10742">
        <ele>1048.94</ele>
        <time>2019-07-28T10:22:46Z</time>
      </trkpt>
      <trkpt lat="44.80042" lon="4.10774">
        <ele>1054.22</ele>
        <time>2019-07-28T10:23:02Z</time>
      </trkpt>
      <trkpt lat="44.80043" lon="4.1078">
        <ele>1055.67</ele>
        <time>2019-07-28T10:23:05Z</time>
      </trkpt>
      <trkpt lat="44.80068" lon="4.10827">
        <ele>1063.36</ele>
        <time>2019-07-28T10:23:24Z</time>
      </trkpt>
      <trkpt lat="44.80066" lon="4.10845">
        <ele>1066.24</ele>
        <time>2019-07-28T10:23:30Z</time>
      </trkpt>
      <trkpt lat="44.80055" lon="4.10894">
        <ele>1070.08</ele>
        <time>2019-07-28T10:23:54Z</time>
      </trkpt>
      <trkpt lat="44.80044" lon="4.10935">
        <ele>1079.22</ele>
        <time>2019-07-28T10:24:14Z</time>
      </trkpt>
      <trkpt lat="44.80036" lon="4.10959">
        <ele>1079.22</ele>
        <time>2019-07-28T10:24:39Z</time>
      </trkpt>
      <trkpt lat="44.80011" lon="4.11006">
        <ele>1079.22</ele>
        <time>2019-07-28T10:25:03Z</time>
      </trkpt>
      <trkpt lat="44.79999" lon="4.11026">
        <ele>1078.74</ele>
        <time>2019-07-28T10:25:21Z</time>
      </trkpt>
      <trkpt lat="44.79994" lon="4.11036">
        <ele>1078.74</ele>
        <time>2019-07-28T10:25:39Z</time>
      </trkpt>
      <trkpt lat="44.79989" lon="4.11061">
        <ele>1078.74</ele>
        <time>2019-07-28T10:25:57Z</time>
      </trkpt>
      <trkpt lat="44.79976" lon="4.11098">
        <ele>1079.22</ele>
        <time>2019-07-28T10:26:11Z</time>
      </trkpt>
      <trkpt lat="44.79972" lon="4.11128">
        <ele>1080.18</ele>
        <time>2019-07-28T10:26:23Z</time>
      </trkpt>
      <trkpt lat="44.79971" lon="4.1114">
        <ele>1080.66</ele>
        <time>2019-07-28T10:26:37Z</time>
      </trkpt>
      <trkpt lat="44.79973" lon="4.11146">
        <ele>1081.14</ele>
        <time>2019-07-28T10:26:50Z</time>
      </trkpt>
      <trkpt lat="44.79971" lon="4.11165">
        <ele>1081.14</ele>
        <time>2019-07-28T10:27:08Z</time>
      </trkpt>
      <trkpt lat="44.79967" lon="4.11185">
        <ele>1081.62</ele>
        <time>2019-07-28T10:27:20Z</time>
      </trkpt>
      <trkpt lat="44.79966" lon="4.11213">
        <ele>1082.1</ele>
        <time>2019-07-28T10:27:33Z</time>
      </trkpt>
      <trkpt lat="44.79963" lon="4.11233">
        <ele>1082.1</ele>
        <time>2019-07-28T10:27:45Z</time>
      </trkpt>
      <trkpt lat="44.79966" lon="4.11266">
        <ele>1100.37</ele>
        <time>2019-07-28T10:27:59Z</time>
      </trkpt>
      <trkpt lat="44.79962" lon="4.11277">
        <ele>1103.25</ele>
        <time>2019-07-28T10:28:12Z</time>
      </trkpt>
      <trkpt lat="44.79958" lon="4.11293">
        <ele>1104.69</ele>
        <time>2019-07-28T10:28:24Z</time>
      </trkpt>
      <trkpt lat="44.79954" lon="4.11301">
        <ele>1104.21</ele>
        <time>2019-07-28T10:28:33Z</time>
      </trkpt>
      <trkpt lat="44.7995" lon="4.11305">
        <ele>1103.73</ele>
        <time>2019-07-28T10:28:38Z</time>
      </trkpt>
      <trkpt lat="44.79942" lon="4.11314">
        <ele>1104.21</ele>
        <time>2019-07-28T10:28:48Z</time>
      </trkpt>
      <trkpt lat="44.79934" lon="4.1133">
        <ele>1104.69</ele>
        <time>2019-07-28T10:29:01Z</time>
      </trkpt>
      <trkpt lat="44.7993" lon="4.11344">
        <ele>1105.17</ele>
        <time>2019-07-28T10:29:11Z</time>
      </trkpt>
      <trkpt lat="44.79927" lon="4.11362">
        <ele>1104.69</ele>
        <time>2019-07-28T10:29:21Z</time>
      </trkpt>
      <trkpt lat="44.79929" lon="4.11368">
        <ele>1104.69</ele>
        <time>2019-07-28T10:29:24Z</time>
      </trkpt>
      <trkpt lat="44.79927" lon="4.11378">
        <ele>1104.69</ele>
        <time>2019-07-28T10:29:29Z</time>
      </trkpt>
      <trkpt lat="44.79924" lon="4.11399">
        <ele>1105.65</ele>
        <time>2019-07-28T10:29:40Z</time>
      </trkpt>
      <trkpt lat="44.79923" lon="4.11409">
        <ele>1105.65</ele>
        <time>2019-07-28T10:29:47Z</time>
      </trkpt>
      <trkpt lat="44.79919" lon="4.11424">
        <ele>1105.65</ele>
        <time>2019-07-28T10:29:58Z</time>
      </trkpt>
      <trkpt lat="44.79916" lon="4.11437">
        <ele>1106.13</ele>
        <time>2019-07-28T10:30:06Z</time>
      </trkpt>
      <trkpt lat="44.79915" lon="4.11447">
        <ele>1107.1</ele>
        <time>2019-07-28T10:30:11Z</time>
      </trkpt>
      <trkpt lat="44.79913" lon="4.11456">
        <ele>1108.06</ele>
        <time>2019-07-28T10:30:18Z</time>
      </trkpt>
      <trkpt lat="44.7991" lon="4.11461">
        <ele>1108.06</ele>
        <time>2019-07-28T10:30:22Z</time>
      </trkpt>
      <trkpt lat="44.79909" lon="4.11465">
        <ele>1108.06</ele>
        <time>2019-07-28T10:30:25Z</time>
      </trkpt>
      <trkpt lat="44.79908" lon="4.11469">
        <ele>1108.06</ele>
        <time>2019-07-28T10:30:27Z</time>
      </trkpt>
      <trkpt lat="44.79909" lon="4.11478">
        <ele>1108.54</ele>
        <time>2019-07-28T10:30:34Z</time>
      </trkpt>
      <trkpt lat="44.79913" lon="4.11482">
        <ele>1108.54</ele>
        <time>2019-07-28T10:30:44Z</time>
      </trkpt>
      <trkpt lat="44.79916" lon="4.11488">
        <ele>1108.54</ele>
        <time>2019-07-28T10:30:48Z</time>
      </trkpt>
      <trkpt lat="44.7992" lon="4.1149">
        <ele>1108.06</ele>
        <time>2019-07-28T10:30:54Z</time>
      </trkpt>
      <trkpt lat="44.79929" lon="4.11506">
        <ele>1107.58</ele>
        <time>2019-07-28T10:31:08Z</time>
      </trkpt>
      <trkpt lat="44.79932" lon="4.11517">
        <ele>1108.54</ele>
        <time>2019-07-28T10:31:15Z</time>
      </trkpt>
      <trkpt lat="44.79939" lon="4.11524">
        <ele>1109.02</ele>
        <time>2019-07-28T10:31:24Z</time>
      </trkpt>
      <trkpt lat="44.7995" lon="4.11533">
        <ele>1109.02</ele>
        <time>2019-07-28T10:31:37Z</time>
      </trkpt>
      <trkpt lat="44.79953" lon="4.11537">
        <ele>1109.02</ele>
        <time>2019-07-28T10:31:44Z</time>
      </trkpt>
      <trkpt lat="44.79956" lon="4.11551">
        <ele>1109.02</ele>
        <time>2019-07-28T10:31:55Z</time>
      </trkpt>
      <trkpt lat="44.79968" lon="4.11561">
        <ele>1117.67</ele>
        <time>2019-07-28T10:32:07Z</time>
      </trkpt>
      <trkpt lat="44.79974" lon="4.11574">
        <ele>1123.92</ele>
        <time>2019-07-28T10:32:17Z</time>
      </trkpt>
      <trkpt lat="44.79981" lon="4.11584">
        <ele>1130.17</ele>
        <time>2019-07-28T10:32:29Z</time>
      </trkpt>
      <trkpt lat="44.79982" lon="4.11585">
        <ele>1130.65</ele>
        <time>2019-07-28T10:32:30Z</time>
      </trkpt>
      <trkpt lat="44.79984" lon="4.11599">
        <ele>1133.53</ele>
        <time>2019-07-28T10:32:41Z</time>
      </trkpt>
      <trkpt lat="44.79988" lon="4.11615">
        <ele>1136.9</ele>
        <time>2019-07-28T10:32:52Z</time>
      </trkpt>
      <trkpt lat="44.79988" lon="4.11616">
        <ele>1136.9</ele>
        <time>2019-07-28T10:32:53Z</time>
      </trkpt>
      <trkpt lat="44.79989" lon="4.11617">
        <ele>1136.9</ele>
        <time>2019-07-28T10:32:55Z</time>
      </trkpt>
      <trkpt lat="44.79993" lon="4.1162">
        <ele>1137.38</ele>
        <time>2019-07-28T10:32:59Z</time>
      </trkpt>
      <trkpt lat="44.79996" lon="4.11628">
        <ele>1138.34</ele>
        <time>2019-07-28T10:33:05Z</time>
      </trkpt>
      <trkpt lat="44.80008" lon="4.11636">
        <ele>1140.74</ele>
        <time>2019-07-28T10:33:18Z</time>
      </trkpt>
      <trkpt lat="44.80014" lon="4.11644">
        <ele>1142.18</ele>
        <time>2019-07-28T10:33:26Z</time>
      </trkpt>
      <trkpt lat="44.80014" lon="4.11646">
        <ele>1142.66</ele>
        <time>2019-07-28T10:33:30Z</time>
      </trkpt>
      <trkpt lat="44.80016" lon="4.1166">
        <ele>1142.66</ele>
        <time>2019-07-28T10:33:38Z</time>
      </trkpt>
      <trkpt lat="44.80016" lon="4.11665">
        <ele>1142.66</ele>
        <time>2019-07-28T10:33:42Z</time>
      </trkpt>
      <trkpt lat="44.80016" lon="4.11674">
        <ele>1142.66</ele>
        <time>2019-07-28T10:33:52Z</time>
      </trkpt>
      <trkpt lat="44.80017" lon="4.11674">
        <ele>1143.14</ele>
        <time>2019-07-28T10:34:02Z</time>
      </trkpt>
      <trkpt lat="44.80017" lon="4.11663">
        <ele>1144.11</ele>
        <time>2019-07-28T10:34:12Z</time>
      </trkpt>
      <trkpt lat="44.80017" lon="4.11654">
        <ele>1144.59</ele>
        <time>2019-07-28T10:34:18Z</time>
      </trkpt>
      <trkpt lat="44.80015" lon="4.11649">
        <ele>1145.07</ele>
        <time>2019-07-28T10:34:22Z</time>
      </trkpt>
      <trkpt lat="44.80014" lon="4.11643">
        <ele>1145.07</ele>
        <time>2019-07-28T10:34:26Z</time>
      </trkpt>
      <trkpt lat="44.80012" lon="4.11641">
        <ele>1145.07</ele>
        <time>2019-07-28T10:34:28Z</time>
      </trkpt>
      <trkpt lat="44.80009" lon="4.11637">
        <ele>1145.07</ele>
        <time>2019-07-28T10:34:32Z</time>
      </trkpt>
      <trkpt lat="44.80009" lon="4.11633">
        <ele>1145.55</ele>
        <time>2019-07-28T10:34:35Z</time>
      </trkpt>
      <trkpt lat="44.80016" lon="4.11632">
        <ele>1146.51</ele>
        <time>2019-07-28T10:34:44Z</time>
      </trkpt>
      <trkpt lat="44.80023" lon="4.11631">
        <ele>1147.95</ele>
        <time>2019-07-28T10:34:51Z</time>
      </trkpt>
      <trkpt lat="44.80028" lon="4.11635">
        <ele>1147.95</ele>
        <time>2019-07-28T10:34:56Z</time>
      </trkpt>
      <trkpt lat="44.80046" lon="4.11635">
        <ele>1147.95</ele>
        <time>2019-07-28T10:35:07Z</time>
      </trkpt>
      <trkpt lat="44.80055" lon="4.11631">
        <ele>1147.95</ele>
        <time>2019-07-28T10:35:16Z</time>
      </trkpt>
      <trkpt lat="44.80057" lon="4.11631">
        <ele>1148.43</ele>
        <time>2019-07-28T10:35:19Z</time>
      </trkpt>
      <trkpt lat="44.8006" lon="4.11629">
        <ele>1150.35</ele>
        <time>2019-07-28T10:35:30Z</time>
      </trkpt>
      <trkpt lat="44.80068" lon="4.1163">
        <ele>1154.2</ele>
        <time>2019-07-28T10:35:40Z</time>
      </trkpt>
      <trkpt lat="44.80072" lon="4.1163">
        <ele>1157.56</ele>
        <time>2019-07-28T10:35:52Z</time>
      </trkpt>
      <trkpt lat="44.80075" lon="4.11627">
        <ele>1158.05</ele>
        <time>2019-07-28T10:36:01Z</time>
      </trkpt>
      <trkpt lat="44.80081" lon="4.11624">
        <ele>1158.05</ele>
        <time>2019-07-28T10:36:16Z</time>
      </trkpt>
      <trkpt lat="44.80085" lon="4.11623">
        <ele>1158.53</ele>
        <time>2019-07-28T10:36:19Z</time>
      </trkpt>
      <trkpt lat="44.80096" lon="4.11629">
        <ele>1159.01</ele>
        <time>2019-07-28T10:36:30Z</time>
      </trkpt>
      <trkpt lat="44.80098" lon="4.11629">
        <ele>1159.01</ele>
        <time>2019-07-28T10:36:36Z</time>
      </trkpt>
      <trkpt lat="44.80113" lon="4.11634">
        <ele>1158.53</ele>
        <time>2019-07-28T10:36:49Z</time>
      </trkpt>
      <trkpt lat="44.80128" lon="4.11648">
        <ele>1158.05</ele>
        <time>2019-07-28T10:37:00Z</time>
      </trkpt>
      <trkpt lat="44.80135" lon="4.11659">
        <ele>1157.56</ele>
        <time>2019-07-28T10:37:09Z</time>
      </trkpt>
      <trkpt lat="44.80143" lon="4.11673">
        <ele>1157.08</ele>
        <time>2019-07-28T10:37:18Z</time>
      </trkpt>
      <trkpt lat="44.80145" lon="4.11678">
        <ele>1156.6</ele>
        <time>2019-07-28T10:37:23Z</time>
      </trkpt>
      <trkpt lat="44.80148" lon="4.11685">
        <ele>1156.6</ele>
        <time>2019-07-28T10:37:32Z</time>
      </trkpt>
      <trkpt lat="44.80159" lon="4.11692">
        <ele>1156.6</ele>
        <time>2019-07-28T10:37:41Z</time>
      </trkpt>
      <trkpt lat="44.80165" lon="4.11692">
        <ele>1156.6</ele>
        <time>2019-07-28T10:37:45Z</time>
      </trkpt>
      <trkpt lat="44.80169" lon="4.11697">
        <ele>1156.6</ele>
        <time>2019-07-28T10:37:49Z</time>
      </trkpt>
      <trkpt lat="44.80175" lon="4.117">
        <ele>1156.6</ele>
        <time>2019-07-28T10:37:53Z</time>
      </trkpt>
      <trkpt lat="44.80177" lon="4.11701">
        <ele>1156.6</ele>
        <time>2019-07-28T10:37:56Z</time>
      </trkpt>
      <trkpt lat="44.80189" lon="4.11705">
        <ele>1156.6</ele>
        <time>2019-07-28T10:38:06Z</time>
      </trkpt>
      <trkpt lat="44.80191" lon="4.11706">
        <ele>1156.6</ele>
        <time>2019-07-28T10:38:08Z</time>
      </trkpt>
      <trkpt lat="44.802" lon="4.11711">
        <ele>1156.6</ele>
        <time>2019-07-28T10:38:16Z</time>
      </trkpt>
      <trkpt lat="44.80207" lon="4.11718">
        <ele>1156.6</ele>
        <time>2019-07-28T10:38:24Z</time>
      </trkpt>
      <trkpt lat="44.80214" lon="4.11727">
        <ele>1156.6</ele>
        <time>2019-07-28T10:38:34Z</time>
      </trkpt>
      <trkpt lat="44.80217" lon="4.11737">
        <ele>1157.08</ele>
        <time>2019-07-28T10:38:44Z</time>
      </trkpt>
      <trkpt lat="44.80222" lon="4.11752">
        <ele>1158.53</ele>
        <time>2019-07-28T10:38:56Z</time>
      </trkpt>
      <trkpt lat="44.80234" lon="4.11764">
        <ele>1158.05</ele>
        <time>2019-07-28T10:39:15Z</time>
      </trkpt>
      <trkpt lat="44.80236" lon="4.11767">
        <ele>1157.56</ele>
        <time>2019-07-28T10:39:34Z</time>
      </trkpt>
      <trkpt lat="44.80238" lon="4.1177">
        <ele>1157.56</ele>
        <time>2019-07-28T10:39:49Z</time>
      </trkpt>
      <trkpt lat="44.80238" lon="4.11768">
        <ele>1157.56</ele>
        <time>2019-07-28T10:40:15Z</time>
      </trkpt>
      <trkpt lat="44.80236" lon="4.1176">
        <ele>1158.05</ele>
        <time>2019-07-28T10:40:35Z</time>
      </trkpt>
      <trkpt lat="44.80243" lon="4.11761">
        <ele>1158.53</ele>
        <time>2019-07-28T10:40:40Z</time>
      </trkpt>
      <trkpt lat="44.80256" lon="4.11762">
        <ele>1159.49</ele>
        <time>2019-07-28T10:40:58Z</time>
      </trkpt>
      <trkpt lat="44.80257" lon="4.1177">
        <ele>1158.53</ele>
        <time>2019-07-28T10:41:21Z</time>
      </trkpt>
      <trkpt lat="44.80255" lon="4.11774">
        <ele>1158.05</ele>
        <time>2019-07-28T10:41:39Z</time>
      </trkpt>
      <trkpt lat="44.80258" lon="4.11766">
        <ele>1158.05</ele>
        <time>2019-07-28T10:42:02Z</time>
      </trkpt>
      <trkpt lat="44.80259" lon="4.11765">
        <ele>1158.05</ele>
        <time>2019-07-28T10:42:03Z</time>
      </trkpt>
      <trkpt lat="44.80263" lon="4.11763">
        <ele>1161.41</ele>
        <time>2019-07-28T10:42:19Z</time>
      </trkpt>
      <trkpt lat="44.80252" lon="4.11765">
        <ele>1162.85</ele>
        <time>2019-07-28T10:42:34Z</time>
      </trkpt>
      <trkpt lat="44.8025" lon="4.11765">
        <ele>1163.81</ele>
        <time>2019-07-28T10:42:56Z</time>
      </trkpt>
      <trkpt lat="44.80256" lon="4.11773">
        <ele>1163.81</ele>
        <time>2019-07-28T10:43:14Z</time>
      </trkpt>
      <trkpt lat="44.80256" lon="4.11777">
        <ele>1163.81</ele>
        <time>2019-07-28T10:43:21Z</time>
      </trkpt>
      <trkpt lat="44.80259" lon="4.11766">
        <ele>1163.81</ele>
        <time>2019-07-28T10:43:41Z</time>
      </trkpt>
      <trkpt lat="44.80243" lon="4.11746">
        <ele>1163.81</ele>
        <time>2019-07-28T10:44:03Z</time>
      </trkpt>
      <trkpt lat="44.8024" lon="4.11745">
        <ele>1163.81</ele>
        <time>2019-07-28T10:44:25Z</time>
      </trkpt>
      <trkpt lat="44.80241" lon="4.11745">
        <ele>1164.77</ele>
        <time>2019-07-28T10:44:51Z</time>
      </trkpt>
      <trkpt lat="44.80241" lon="4.11746">
        <ele>1164.29</ele>
        <time>2019-07-28T10:45:18Z</time>
      </trkpt>
      <trkpt lat="44.80241" lon="4.11747">
        <ele>1165.26</ele>
        <time>2019-07-28T10:46:14Z</time>
      </trkpt>
      <trkpt lat="44.8024" lon="4.11746">
        <ele>1166.22</ele>
        <time>2019-07-28T10:46:41Z</time>
      </trkpt>
      <trkpt lat="44.8024" lon="4.11745">
        <ele>1165.74</ele>
        <time>2019-07-28T10:47:30Z</time>
      </trkpt>
      <trkpt lat="44.80241" lon="4.11745">
        <ele>1165.74</ele>
        <time>2019-07-28T10:48:16Z</time>
      </trkpt>
      <trkpt lat="44.80241" lon="4.11746">
        <ele>1164.77</ele>
        <time>2019-07-28T10:49:03Z</time>
      </trkpt>
      <trkpt lat="44.80241" lon="4.11745">
        <ele>1163.81</ele>
        <time>2019-07-28T10:50:17Z</time>
      </trkpt>
      <trkpt lat="44.8024" lon="4.11745">
        <ele>1163.81</ele>
        <time>2019-07-28T10:52:55Z</time>
      </trkpt>
      <trkpt lat="44.8024" lon="4.11744">
        <ele>1163.81</ele>
        <time>2019-07-28T10:54:18Z</time>
      </trkpt>
      <trkpt lat="44.80239" lon="4.11744">
        <ele>1166.22</ele>
        <time>2019-07-28T10:56:03Z</time>
      </trkpt>
      <trkpt lat="44.80239" lon="4.11745">
        <ele>1166.7</ele>
        <time>2019-07-28T10:56:35Z</time>
      </trkpt>
      <trkpt lat="44.80239" lon="4.11746">
        <ele>1167.18</ele>
        <time>2019-07-28T10:57:06Z</time>
      </trkpt>
      <trkpt lat="44.80239" lon="4.11745">
        <ele>1167.18</ele>
        <time>2019-07-28T10:57:33Z</time>
      </trkpt>
      <trkpt lat="44.8024" lon="4.11745">
        <ele>1166.7</ele>
        <time>2019-07-28T10:58:07Z</time>
      </trkpt>
      <trkpt lat="44.80239" lon="4.11745">
        <ele>1167.18</ele>
        <time>2019-07-28T10:58:40Z</time>
      </trkpt>
      <trkpt lat="44.80239" lon="4.11744">
        <ele>1167.66</ele>
        <time>2019-07-28T10:59:13Z</time>
      </trkpt>
      <trkpt lat="44.80239" lon="4.11745">
        <ele>1167.66</ele>
        <time>2019-07-28T11:00:15Z</time>
      </trkpt>
      <trkpt lat="44.8024" lon="4.11745">
        <ele>1168.14</ele>
        <time>2019-07-28T11:01:07Z</time>
      </trkpt>
      <trkpt lat="44.8024" lon="4.11746">
        <ele>1168.14</ele>
        <time>2019-07-28T11:01:57Z</time>
      </trkpt>
      <trkpt lat="44.80239" lon="4.11746">
        <ele>1168.14</ele>
        <time>2019-07-28T11:02:49Z</time>
      </trkpt>
      <trkpt lat="44.80239" lon="4.11747">
        <ele>1168.14</ele>
        <time>2019-07-28T11:03:16Z</time>
      </trkpt>
      <trkpt lat="44.80239" lon="4.11746">
        <ele>1167.66</ele>
        <time>2019-07-28T11:05:11Z</time>
      </trkpt>
      <trkpt lat="44.80238" lon="4.11746">
        <ele>1167.66</ele>
        <time>2019-07-28T11:05:37Z</time>
      </trkpt>
      <trkpt lat="44.80239" lon="4.11747">
        <ele>1169.1</ele>
        <time>2019-07-28T11:08:54Z</time>
      </trkpt>
      <trkpt lat="44.80239" lon="4.11746">
        <ele>1169.58</ele>
        <time>2019-07-28T11:11:59Z</time>
      </trkpt>
      <trkpt lat="44.80238" lon="4.11744">
        <ele>1170.06</ele>
        <time>2019-07-28T11:13:37Z</time>
      </trkpt>
      <trkpt lat="44.80238" lon="4.11745">
        <ele>1171.02</ele>
        <time>2019-07-28T11:13:47Z</time>
      </trkpt>
      <trkpt lat="44.80238" lon="4.11744">
        <ele>1171.02</ele>
        <time>2019-07-28T11:14:08Z</time>
      </trkpt>
      <trkpt lat="44.80238" lon="4.11745">
        <ele>1171.5</ele>
        <time>2019-07-28T11:14:44Z</time>
      </trkpt>
      <trkpt lat="44.80237" lon="4.11742">
        <ele>1170.54</ele>
        <time>2019-07-28T11:15:30Z</time>
      </trkpt>
      <trkpt lat="44.80236" lon="4.11741">
        <ele>1170.06</ele>
        <time>2019-07-28T11:16:11Z</time>
      </trkpt>
      <trkpt lat="44.80237" lon="4.11743">
        <ele>1170.06</ele>
        <time>2019-07-28T11:16:51Z</time>
      </trkpt>
      <trkpt lat="44.80237" lon="4.11746">
        <ele>1170.06</ele>
        <time>2019-07-28T11:17:29Z</time>
      </trkpt>
      <trkpt lat="44.80236" lon="4.11748">
        <ele>1170.06</ele>
        <time>2019-07-28T11:17:32Z</time>
      </trkpt>
      <trkpt lat="44.80235" lon="4.11764">
        <ele>1170.06</ele>
        <time>2019-07-28T11:17:49Z</time>
      </trkpt>
      <trkpt lat="44.80238" lon="4.11774">
        <ele>1168.14</ele>
        <time>2019-07-28T11:18:01Z</time>
      </trkpt>
      <trkpt lat="44.80241" lon="4.11782">
        <ele>1169.1</ele>
        <time>2019-07-28T11:18:13Z</time>
      </trkpt>
      <trkpt lat="44.80247" lon="4.11797">
        <ele>1169.58</ele>
        <time>2019-07-28T11:18:22Z</time>
      </trkpt>
      <trkpt lat="44.80254" lon="4.11804">
        <ele>1171.98</ele>
        <time>2019-07-28T11:18:33Z</time>
      </trkpt>
      <trkpt lat="44.80257" lon="4.11805">
        <ele>1171.98</ele>
        <time>2019-07-28T11:18:41Z</time>
      </trkpt>
      <trkpt lat="44.80266" lon="4.11811">
        <ele>1172.95</ele>
        <time>2019-07-28T11:18:50Z</time>
      </trkpt>
      <trkpt lat="44.80271" lon="4.1181">
        <ele>1172.95</ele>
        <time>2019-07-28T11:18:57Z</time>
      </trkpt>
      <trkpt lat="44.80282" lon="4.11811">
        <ele>1172.95</ele>
        <time>2019-07-28T11:19:09Z</time>
      </trkpt>
      <trkpt lat="44.80289" lon="4.11811">
        <ele>1173.43</ele>
        <time>2019-07-28T11:19:20Z</time>
      </trkpt>
      <trkpt lat="44.80299" lon="4.11809">
        <ele>1175.35</ele>
        <time>2019-07-28T11:19:40Z</time>
      </trkpt>
      <trkpt lat="44.80299" lon="4.1181">
        <ele>1174.87</ele>
        <time>2019-07-28T11:20:04Z</time>
      </trkpt>
      <trkpt lat="44.80301" lon="4.1181">
        <ele>1174.39</ele>
        <time>2019-07-28T11:20:29Z</time>
      </trkpt>
      <trkpt lat="44.80302" lon="4.11811">
        <ele>1174.87</ele>
        <time>2019-07-28T11:21:18Z</time>
      </trkpt>
      <trkpt lat="44.80307" lon="4.11811">
        <ele>1174.39</ele>
        <time>2019-07-28T11:21:35Z</time>
      </trkpt>
      <trkpt lat="44.80325" lon="4.11809">
        <ele>1175.35</ele>
        <time>2019-07-28T11:21:51Z</time>
      </trkpt>
      <trkpt lat="44.80328" lon="4.11812">
        <ele>1174.87</ele>
        <time>2019-07-28T11:22:11Z</time>
      </trkpt>
      <trkpt lat="44.80332" lon="4.1181">
        <ele>1175.35</ele>
        <time>2019-07-28T11:22:32Z</time>
      </trkpt>
      <trkpt lat="44.80353" lon="4.11804">
        <ele>1178.71</ele>
        <time>2019-07-28T11:22:42Z</time>
      </trkpt>
      <trkpt lat="44.80365" lon="4.11799">
        <ele>1179.67</ele>
        <time>2019-07-28T11:22:51Z</time>
      </trkpt>
      <trkpt lat="44.80369" lon="4.118">
        <ele>1180.64</ele>
        <time>2019-07-28T11:22:56Z</time>
      </trkpt>
      <trkpt lat="44.80378" lon="4.11803">
        <ele>1182.56</ele>
        <time>2019-07-28T11:23:06Z</time>
      </trkpt>
      <trkpt lat="44.80379" lon="4.11803">
        <ele>1183.04</ele>
        <time>2019-07-28T11:23:08Z</time>
      </trkpt>
      <trkpt lat="44.80391" lon="4.11806">
        <ele>1185.44</ele>
        <time>2019-07-28T11:23:21Z</time>
      </trkpt>
      <trkpt lat="44.80395" lon="4.11809">
        <ele>1185.92</ele>
        <time>2019-07-28T11:23:24Z</time>
      </trkpt>
      <trkpt lat="44.80403" lon="4.11812">
        <ele>1187.37</ele>
        <time>2019-07-28T11:23:35Z</time>
      </trkpt>
      <trkpt lat="44.80411" lon="4.11814">
        <ele>1189.77</ele>
        <time>2019-07-28T11:23:44Z</time>
      </trkpt>
      <trkpt lat="44.80423" lon="4.11821">
        <ele>1191.21</ele>
        <time>2019-07-28T11:23:55Z</time>
      </trkpt>
      <trkpt lat="44.80424" lon="4.11823">
        <ele>1191.69</ele>
        <time>2019-07-28T11:23:57Z</time>
      </trkpt>
      <trkpt lat="44.80429" lon="4.11825">
        <ele>1192.65</ele>
        <time>2019-07-28T11:24:01Z</time>
      </trkpt>
      <trkpt lat="44.80435" lon="4.11828">
        <ele>1194.09</ele>
        <time>2019-07-28T11:24:08Z</time>
      </trkpt>
      <trkpt lat="44.80444" lon="4.11832">
        <ele>1195.06</ele>
        <time>2019-07-28T11:24:17Z</time>
      </trkpt>
      <trkpt lat="44.80453" lon="4.11833">
        <ele>1196.98</ele>
        <time>2019-07-28T11:24:26Z</time>
      </trkpt>
      <trkpt lat="44.80462" lon="4.11831">
        <ele>1199.38</ele>
        <time>2019-07-28T11:24:34Z</time>
      </trkpt>
      <trkpt lat="44.8047" lon="4.11835">
        <ele>1200.34</ele>
        <time>2019-07-28T11:24:41Z</time>
      </trkpt>
      <trkpt lat="44.80477" lon="4.11842">
        <ele>1201.3</ele>
        <time>2019-07-28T11:24:50Z</time>
      </trkpt>
      <trkpt lat="44.80487" lon="4.11844">
        <ele>1202.27</ele>
        <time>2019-07-28T11:25:00Z</time>
      </trkpt>
      <trkpt lat="44.80491" lon="4.11843">
        <ele>1203.23</ele>
        <time>2019-07-28T11:25:12Z</time>
      </trkpt>
      <trkpt lat="44.80498" lon="4.11845">
        <ele>1204.67</ele>
        <time>2019-07-28T11:25:28Z</time>
      </trkpt>
      <trkpt lat="44.80508" lon="4.11846">
        <ele>1206.59</ele>
        <time>2019-07-28T11:25:38Z</time>
      </trkpt>
      <trkpt lat="44.80516" lon="4.11844">
        <ele>1207.07</ele>
        <time>2019-07-28T11:25:46Z</time>
      </trkpt>
      <trkpt lat="44.80525" lon="4.11841">
        <ele>1208.51</ele>
        <time>2019-07-28T11:25:55Z</time>
      </trkpt>
      <trkpt lat="44.80535" lon="4.11841">
        <ele>1210.44</ele>
        <time>2019-07-28T11:26:06Z</time>
      </trkpt>
      <trkpt lat="44.80536" lon="4.11842">
        <ele>1210.44</ele>
        <time>2019-07-28T11:26:08Z</time>
      </trkpt>
      <trkpt lat="44.80545" lon="4.11842">
        <ele>1211.88</ele>
        <time>2019-07-28T11:26:19Z</time>
      </trkpt>
      <trkpt lat="44.80552" lon="4.11839">
        <ele>1214.28</ele>
        <time>2019-07-28T11:26:28Z</time>
      </trkpt>
      <trkpt lat="44.80557" lon="4.11839">
        <ele>1215.72</ele>
        <time>2019-07-28T11:26:33Z</time>
      </trkpt>
      <trkpt lat="44.80567" lon="4.11837">
        <ele>1219.57</ele>
        <time>2019-07-28T11:26:44Z</time>
      </trkpt>
      <trkpt lat="44.80572" lon="4.11837">
        <ele>1221.49</ele>
        <time>2019-07-28T11:26:51Z</time>
      </trkpt>
      <trkpt lat="44.80574" lon="4.11837">
        <ele>1222.45</ele>
        <time>2019-07-28T11:27:04Z</time>
      </trkpt>
      <trkpt lat="44.80578" lon="4.11836">
        <ele>1223.9</ele>
        <time>2019-07-28T11:27:08Z</time>
      </trkpt>
      <trkpt lat="44.80581" lon="4.11837">
        <ele>1224.38</ele>
        <time>2019-07-28T11:27:10Z</time>
      </trkpt>
      <trkpt lat="44.80594" lon="4.11831">
        <ele>1228.22</ele>
        <time>2019-07-28T11:27:23Z</time>
      </trkpt>
      <trkpt lat="44.80597" lon="4.1183">
        <ele>1228.7</ele>
        <time>2019-07-28T11:27:25Z</time>
      </trkpt>
      <trkpt lat="44.80604" lon="4.11827">
        <ele>1229.66</ele>
        <time>2019-07-28T11:27:32Z</time>
      </trkpt>
      <trkpt lat="44.80608" lon="4.11825">
        <ele>1230.14</ele>
        <time>2019-07-28T11:27:36Z</time>
      </trkpt>
      <trkpt lat="44.80619" lon="4.11825">
        <ele>1230.62</ele>
        <time>2019-07-28T11:27:46Z</time>
      </trkpt>
      <trkpt lat="44.8062" lon="4.11823">
        <ele>1231.11</ele>
        <time>2019-07-28T11:28:03Z</time>
      </trkpt>
      <trkpt lat="44.80634" lon="4.11822">
        <ele>1233.03</ele>
        <time>2019-07-28T11:28:20Z</time>
      </trkpt>
      <trkpt lat="44.80637" lon="4.11825">
        <ele>1233.51</ele>
        <time>2019-07-28T11:28:23Z</time>
      </trkpt>
      <trkpt lat="44.80646" lon="4.11831">
        <ele>1234.95</ele>
        <time>2019-07-28T11:28:34Z</time>
      </trkpt>
      <trkpt lat="44.80649" lon="4.11834">
        <ele>1236.39</ele>
        <time>2019-07-28T11:28:38Z</time>
      </trkpt>
      <trkpt lat="44.80652" lon="4.11836">
        <ele>1238.8</ele>
        <time>2019-07-28T11:28:52Z</time>
      </trkpt>
      <trkpt lat="44.80656" lon="4.11835">
        <ele>1238.32</ele>
        <time>2019-07-28T11:28:58Z</time>
      </trkpt>
      <trkpt lat="44.80661" lon="4.11839">
        <ele>1240.24</ele>
        <time>2019-07-28T11:29:02Z</time>
      </trkpt>
      <trkpt lat="44.80674" lon="4.11842">
        <ele>1244.56</ele>
        <time>2019-07-28T11:29:15Z</time>
      </trkpt>
      <trkpt lat="44.80685" lon="4.11841">
        <ele>1244.56</ele>
        <time>2019-07-28T11:29:24Z</time>
      </trkpt>
      <trkpt lat="44.80689" lon="4.11842">
        <ele>1245.04</ele>
        <time>2019-07-28T11:29:28Z</time>
      </trkpt>
      <trkpt lat="44.807" lon="4.11837">
        <ele>1245.04</ele>
        <time>2019-07-28T11:29:38Z</time>
      </trkpt>
      <trkpt lat="44.80701" lon="4.11836">
        <ele>1245.04</ele>
        <time>2019-07-28T11:29:40Z</time>
      </trkpt>
      <trkpt lat="44.8071" lon="4.1183">
        <ele>1246.01</ele>
        <time>2019-07-28T11:29:47Z</time>
      </trkpt>
      <trkpt lat="44.8072" lon="4.11825">
        <ele>1246.97</ele>
        <time>2019-07-28T11:29:55Z</time>
      </trkpt>
      <trkpt lat="44.80722" lon="4.11823">
        <ele>1247.93</ele>
        <time>2019-07-28T11:30:05Z</time>
      </trkpt>
      <trkpt lat="44.80723" lon="4.11822">
        <ele>1247.93</ele>
        <time>2019-07-28T11:30:07Z</time>
      </trkpt>
      <trkpt lat="44.80726" lon="4.11822">
        <ele>1247.45</ele>
        <time>2019-07-28T11:30:18Z</time>
      </trkpt>
      <trkpt lat="44.80727" lon="4.11822">
        <ele>1247.93</ele>
        <time>2019-07-28T11:30:35Z</time>
      </trkpt>
      <trkpt lat="44.80728" lon="4.11822">
        <ele>1247.93</ele>
        <time>2019-07-28T11:30:54Z</time>
      </trkpt>
      <trkpt lat="44.8073" lon="4.11823">
        <ele>1248.89</ele>
        <time>2019-07-28T11:31:23Z</time>
      </trkpt>
      <trkpt lat="44.8073" lon="4.11826">
        <ele>1249.37</ele>
        <time>2019-07-28T11:31:34Z</time>
      </trkpt>
      <trkpt lat="44.80732" lon="4.11826">
        <ele>1249.37</ele>
        <time>2019-07-28T11:31:48Z</time>
      </trkpt>
      <trkpt lat="44.80732" lon="4.1183">
        <ele>1249.85</ele>
        <time>2019-07-28T11:31:51Z</time>
      </trkpt>
      <trkpt lat="44.80734" lon="4.11841">
        <ele>1250.81</ele>
        <time>2019-07-28T11:31:58Z</time>
      </trkpt>
      <trkpt lat="44.80735" lon="4.11858">
        <ele>1251.77</ele>
        <time>2019-07-28T11:32:09Z</time>
      </trkpt>
      <trkpt lat="44.80737" lon="4.11875">
        <ele>1253.22</ele>
        <time>2019-07-28T11:32:18Z</time>
      </trkpt>
      <trkpt lat="44.80739" lon="4.1189">
        <ele>1254.66</ele>
        <time>2019-07-28T11:32:27Z</time>
      </trkpt>
      <trkpt lat="44.80741" lon="4.11896">
        <ele>1255.62</ele>
        <time>2019-07-28T11:32:34Z</time>
      </trkpt>
      <trkpt lat="44.80742" lon="4.11897">
        <ele>1256.1</ele>
        <time>2019-07-28T11:32:35Z</time>
      </trkpt>
      <trkpt lat="44.80744" lon="4.1191">
        <ele>1258.5</ele>
        <time>2019-07-28T11:32:46Z</time>
      </trkpt>
      <trkpt lat="44.80745" lon="4.1192">
        <ele>1258.5</ele>
        <time>2019-07-28T11:32:54Z</time>
      </trkpt>
      <trkpt lat="44.80746" lon="4.11938">
        <ele>1258.98</ele>
        <time>2019-07-28T11:33:04Z</time>
      </trkpt>
      <trkpt lat="44.80749" lon="4.11955">
        <ele>1257.54</ele>
        <time>2019-07-28T11:33:14Z</time>
      </trkpt>
      <trkpt lat="44.80751" lon="4.11969">
        <ele>1258.5</ele>
        <time>2019-07-28T11:33:23Z</time>
      </trkpt>
      <trkpt lat="44.80754" lon="4.11986">
        <ele>1260.43</ele>
        <time>2019-07-28T11:33:32Z</time>
      </trkpt>
      <trkpt lat="44.80759" lon="4.12007">
        <ele>1262.83</ele>
        <time>2019-07-28T11:33:45Z</time>
      </trkpt>
      <trkpt lat="44.80762" lon="4.12023">
        <ele>1263.31</ele>
        <time>2019-07-28T11:33:55Z</time>
      </trkpt>
      <trkpt lat="44.80764" lon="4.12036">
        <ele>1264.27</ele>
        <time>2019-07-28T11:34:04Z</time>
      </trkpt>
      <trkpt lat="44.80768" lon="4.12052">
        <ele>1264.75</ele>
        <time>2019-07-28T11:34:14Z</time>
      </trkpt>
      <trkpt lat="44.80772" lon="4.12065">
        <ele>1264.27</ele>
        <time>2019-07-28T11:34:23Z</time>
      </trkpt>
      <trkpt lat="44.80776" lon="4.12074">
        <ele>1264.75</ele>
        <time>2019-07-28T11:34:30Z</time>
      </trkpt>
      <trkpt lat="44.8078" lon="4.12083">
        <ele>1265.23</ele>
        <time>2019-07-28T11:34:37Z</time>
      </trkpt>
      <trkpt lat="44.80788" lon="4.121">
        <ele>1265.23</ele>
        <time>2019-07-28T11:34:47Z</time>
      </trkpt>
      <trkpt lat="44.80794" lon="4.12113">
        <ele>1267.16</ele>
        <time>2019-07-28T11:34:57Z</time>
      </trkpt>
      <trkpt lat="44.80798" lon="4.12119">
        <ele>1267.16</ele>
        <time>2019-07-28T11:35:02Z</time>
      </trkpt>
      <trkpt lat="44.80808" lon="4.12132">
        <ele>1266.19</ele>
        <time>2019-07-28T11:35:12Z</time>
      </trkpt>
      <trkpt lat="44.80815" lon="4.12145">
        <ele>1264.27</ele>
        <time>2019-07-28T11:35:22Z</time>
      </trkpt>
      <trkpt lat="44.80824" lon="4.12155">
        <ele>1264.75</ele>
        <time>2019-07-28T11:35:32Z</time>
      </trkpt>
      <trkpt lat="44.80835" lon="4.12167">
        <ele>1268.12</ele>
        <time>2019-07-28T11:35:44Z</time>
      </trkpt>
      <trkpt lat="44.80842" lon="4.12175">
        <ele>1268.6</ele>
        <time>2019-07-28T11:35:53Z</time>
      </trkpt>
      <trkpt lat="44.80853" lon="4.12184">
        <ele>1269.08</ele>
        <time>2019-07-28T11:36:02Z</time>
      </trkpt>
      <trkpt lat="44.80863" lon="4.12196">
        <ele>1270.04</ele>
        <time>2019-07-28T11:36:12Z</time>
      </trkpt>
      <trkpt lat="44.8087" lon="4.122">
        <ele>1271</ele>
        <time>2019-07-28T11:36:16Z</time>
      </trkpt>
      <trkpt lat="44.8087" lon="4.12204">
        <ele>1271</ele>
        <time>2019-07-28T11:36:19Z</time>
      </trkpt>
      <trkpt lat="44.8088" lon="4.12214">
        <ele>1271.48</ele>
        <time>2019-07-28T11:36:29Z</time>
      </trkpt>
      <trkpt lat="44.80881" lon="4.12214">
        <ele>1271.96</ele>
        <time>2019-07-28T11:36:31Z</time>
      </trkpt>
      <trkpt lat="44.80892" lon="4.12228">
        <ele>1272.92</ele>
        <time>2019-07-28T11:36:43Z</time>
      </trkpt>
      <trkpt lat="44.80898" lon="4.12235">
        <ele>1273.88</ele>
        <time>2019-07-28T11:36:50Z</time>
      </trkpt>
      <trkpt lat="44.80904" lon="4.12244">
        <ele>1274.85</ele>
        <time>2019-07-28T11:36:58Z</time>
      </trkpt>
      <trkpt lat="44.8091" lon="4.12254">
        <ele>1274.85</ele>
        <time>2019-07-28T11:37:06Z</time>
      </trkpt>
      <trkpt lat="44.80918" lon="4.12265">
        <ele>1275.33</ele>
        <time>2019-07-28T11:37:14Z</time>
      </trkpt>
      <trkpt lat="44.80926" lon="4.12277">
        <ele>1275.81</ele>
        <time>2019-07-28T11:37:23Z</time>
      </trkpt>
      <trkpt lat="44.80932" lon="4.12285">
        <ele>1276.29</ele>
        <time>2019-07-28T11:37:30Z</time>
      </trkpt>
      <trkpt lat="44.80934" lon="4.12286">
        <ele>1276.77</ele>
        <time>2019-07-28T11:37:33Z</time>
      </trkpt>
      <trkpt lat="44.80942" lon="4.12301">
        <ele>1277.25</ele>
        <time>2019-07-28T11:37:43Z</time>
      </trkpt>
      <trkpt lat="44.80951" lon="4.12316">
        <ele>1279.17</ele>
        <time>2019-07-28T11:37:53Z</time>
      </trkpt>
      <trkpt lat="44.8096" lon="4.12327">
        <ele>1280.61</ele>
        <time>2019-07-28T11:38:03Z</time>
      </trkpt>
      <trkpt lat="44.8098" lon="4.12356">
        <ele>1284.46</ele>
        <time>2019-07-28T11:38:25Z</time>
      </trkpt>
      <trkpt lat="44.81001" lon="4.12382">
        <ele>1288.78</ele>
        <time>2019-07-28T11:38:46Z</time>
      </trkpt>
      <trkpt lat="44.81019" lon="4.12424">
        <ele>1292.63</ele>
        <time>2019-07-28T11:39:13Z</time>
      </trkpt>
      <trkpt lat="44.81037" lon="4.12455">
        <ele>1296.48</ele>
        <time>2019-07-28T11:39:34Z</time>
      </trkpt>
      <trkpt lat="44.81053" lon="4.12493">
        <ele>1300.32</ele>
        <time>2019-07-28T11:39:58Z</time>
      </trkpt>
      <trkpt lat="44.81069" lon="4.12526">
        <ele>1303.2</ele>
        <time>2019-07-28T11:40:24Z</time>
      </trkpt>
      <trkpt lat="44.81081" lon="4.12558">
        <ele>1305.13</ele>
        <time>2019-07-28T11:40:48Z</time>
      </trkpt>
      <trkpt lat="44.81095" lon="4.12598">
        <ele>1305.13</ele>
        <time>2019-07-28T11:41:14Z</time>
      </trkpt>
      <trkpt lat="44.81104" lon="4.12641">
        <ele>1297.44</ele>
        <time>2019-07-28T11:41:38Z</time>
      </trkpt>
      <trkpt lat="44.81113" lon="4.12673">
        <ele>1298.4</ele>
        <time>2019-07-28T11:41:58Z</time>
      </trkpt>
      <trkpt lat="44.8112" lon="4.12708">
        <ele>1297.92</ele>
        <time>2019-07-28T11:42:20Z</time>
      </trkpt>
      <trkpt lat="44.81126" lon="4.1272">
        <ele>1297.44</ele>
        <time>2019-07-28T11:42:30Z</time>
      </trkpt>
      <trkpt lat="44.81132" lon="4.12741">
        <ele>1297.92</ele>
        <time>2019-07-28T11:42:41Z</time>
      </trkpt>
      <trkpt lat="44.81139" lon="4.12772">
        <ele>1295.03</ele>
        <time>2019-07-28T11:43:00Z</time>
      </trkpt>
      <trkpt lat="44.81151" lon="4.12812">
        <ele>1294.07</ele>
        <time>2019-07-28T11:43:24Z</time>
      </trkpt>
      <trkpt lat="44.81167" lon="4.12845">
        <ele>1295.03</ele>
        <time>2019-07-28T11:43:47Z</time>
      </trkpt>
      <trkpt lat="44.8117" lon="4.12854">
        <ele>1295.03</ele>
        <time>2019-07-28T11:43:52Z</time>
      </trkpt>
      <trkpt lat="44.81177" lon="4.12878">
        <ele>1294.55</ele>
        <time>2019-07-28T11:44:06Z</time>
      </trkpt>
      <trkpt lat="44.81187" lon="4.12911">
        <ele>1296.48</ele>
        <time>2019-07-28T11:44:28Z</time>
      </trkpt>
      <trkpt lat="44.81192" lon="4.12945">
        <ele>1296.96</ele>
        <time>2019-07-28T11:44:48Z</time>
      </trkpt>
      <trkpt lat="44.81199" lon="4.12978">
        <ele>1298.4</ele>
        <time>2019-07-28T11:45:09Z</time>
      </trkpt>
      <trkpt lat="44.81207" lon="4.13014">
        <ele>1299.84</ele>
        <time>2019-07-28T11:45:33Z</time>
      </trkpt>
      <trkpt lat="44.81219" lon="4.13058">
        <ele>1297.92</ele>
        <time>2019-07-28T11:46:00Z</time>
      </trkpt>
      <trkpt lat="44.81232" lon="4.13087">
        <ele>1298.4</ele>
        <time>2019-07-28T11:46:20Z</time>
      </trkpt>
      <trkpt lat="44.81237" lon="4.13102">
        <ele>1294.55</ele>
        <time>2019-07-28T11:46:35Z</time>
      </trkpt>
      <trkpt lat="44.81235" lon="4.13109">
        <ele>1294.07</ele>
        <time>2019-07-28T11:47:02Z</time>
      </trkpt>
      <trkpt lat="44.81235" lon="4.1311">
        <ele>1295.03</ele>
        <time>2019-07-28T11:47:25Z</time>
      </trkpt>
      <trkpt lat="44.81232" lon="4.1311">
        <ele>1295.51</ele>
        <time>2019-07-28T11:47:40Z</time>
      </trkpt>
      <trkpt lat="44.81233" lon="4.1311">
        <ele>1295.99</ele>
        <time>2019-07-28T11:47:44Z</time>
      </trkpt>
      <trkpt lat="44.81227" lon="4.13111">
        <ele>1298.4</ele>
        <time>2019-07-28T11:47:54Z</time>
      </trkpt>
      <trkpt lat="44.81216" lon="4.13112">
        <ele>1298.4</ele>
        <time>2019-07-28T11:48:10Z</time>
      </trkpt>
      <trkpt lat="44.81212" lon="4.13114">
        <ele>1298.88</ele>
        <time>2019-07-28T11:48:16Z</time>
      </trkpt>
      <trkpt lat="44.81205" lon="4.13115">
        <ele>1300.32</ele>
        <time>2019-07-28T11:48:25Z</time>
      </trkpt>
      <trkpt lat="44.81195" lon="4.13117">
        <ele>1302.24</ele>
        <time>2019-07-28T11:48:33Z</time>
      </trkpt>
      <trkpt lat="44.81187" lon="4.13136">
        <ele>1303.69</ele>
        <time>2019-07-28T11:48:45Z</time>
      </trkpt>
      <trkpt lat="44.81173" lon="4.13145">
        <ele>1300.8</ele>
        <time>2019-07-28T11:49:00Z</time>
      </trkpt>
      <trkpt lat="44.81157" lon="4.13153">
        <ele>1302.72</ele>
        <time>2019-07-28T11:49:14Z</time>
      </trkpt>
      <trkpt lat="44.81145" lon="4.13165">
        <ele>1308.01</ele>
        <time>2019-07-28T11:49:26Z</time>
      </trkpt>
      <trkpt lat="44.81134" lon="4.13176">
        <ele>1309.93</ele>
        <time>2019-07-28T11:49:39Z</time>
      </trkpt>
      <trkpt lat="44.81122" lon="4.13192">
        <ele>1312.34</ele>
        <time>2019-07-28T11:49:54Z</time>
      </trkpt>
      <trkpt lat="44.81114" lon="4.13202">
        <ele>1310.9</ele>
        <time>2019-07-28T11:50:07Z</time>
      </trkpt>
      <trkpt lat="44.81097" lon="4.13221">
        <ele>1308.49</ele>
        <time>2019-07-28T11:50:22Z</time>
      </trkpt>
      <trkpt lat="44.81074" lon="4.13227">
        <ele>1308.01</ele>
        <time>2019-07-28T11:50:40Z</time>
      </trkpt>
      <trkpt lat="44.81058" lon="4.13233">
        <ele>1308.49</ele>
        <time>2019-07-28T11:50:54Z</time>
      </trkpt>
      <trkpt lat="44.81054" lon="4.13236">
        <ele>1308.49</ele>
        <time>2019-07-28T11:50:58Z</time>
      </trkpt>
      <trkpt lat="44.81032" lon="4.13257">
        <ele>1309.93</ele>
        <time>2019-07-28T11:51:17Z</time>
      </trkpt>
      <trkpt lat="44.81011" lon="4.13275">
        <ele>1309.45</ele>
        <time>2019-07-28T11:51:37Z</time>
      </trkpt>
      <trkpt lat="44.81004" lon="4.13278">
        <ele>1310.41</ele>
        <time>2019-07-28T11:51:42Z</time>
      </trkpt>
      <trkpt lat="44.80983" lon="4.13293">
        <ele>1312.34</ele>
        <time>2019-07-28T11:52:01Z</time>
      </trkpt>
      <trkpt lat="44.80969" lon="4.13306">
        <ele>1311.86</ele>
        <time>2019-07-28T11:52:17Z</time>
      </trkpt>
      <trkpt lat="44.80958" lon="4.13325">
        <ele>1312.82</ele>
        <time>2019-07-28T11:52:31Z</time>
      </trkpt>
      <trkpt lat="44.80945" lon="4.13359">
        <ele>1315.22</ele>
        <time>2019-07-28T11:52:52Z</time>
      </trkpt>
      <trkpt lat="44.80943" lon="4.13368">
        <ele>1316.18</ele>
        <time>2019-07-28T11:52:58Z</time>
      </trkpt>
      <trkpt lat="44.80935" lon="4.13399">
        <ele>1317.14</ele>
        <time>2019-07-28T11:53:17Z</time>
      </trkpt>
      <trkpt lat="44.80933" lon="4.13427">
        <ele>1319.07</ele>
        <time>2019-07-28T11:53:35Z</time>
      </trkpt>
      <trkpt lat="44.80921" lon="4.1345">
        <ele>1321.47</ele>
        <time>2019-07-28T11:53:54Z</time>
      </trkpt>
      <trkpt lat="44.80912" lon="4.13474">
        <ele>1321.47</ele>
        <time>2019-07-28T11:54:11Z</time>
      </trkpt>
      <trkpt lat="44.809" lon="4.13503">
        <ele>1320.99</ele>
        <time>2019-07-28T11:54:29Z</time>
      </trkpt>
      <trkpt lat="44.80896" lon="4.1353">
        <ele>1326.76</ele>
        <time>2019-07-28T11:54:45Z</time>
      </trkpt>
      <trkpt lat="44.80894" lon="4.13557">
        <ele>1324.83</ele>
        <time>2019-07-28T11:55:05Z</time>
      </trkpt>
      <trkpt lat="44.80896" lon="4.13568">
        <ele>1325.31</ele>
        <time>2019-07-28T11:55:24Z</time>
      </trkpt>
      <trkpt lat="44.80896" lon="4.13569">
        <ele>1328.68</ele>
        <time>2019-07-28T11:55:50Z</time>
      </trkpt>
      <trkpt lat="44.80897" lon="4.13569">
        <ele>1329.16</ele>
        <time>2019-07-28T11:55:52Z</time>
      </trkpt>
      <trkpt lat="44.80897" lon="4.1357">
        <ele>1330.12</ele>
        <time>2019-07-28T11:56:07Z</time>
      </trkpt>
      <trkpt lat="44.80898" lon="4.13575">
        <ele>1330.6</ele>
        <time>2019-07-28T11:56:24Z</time>
      </trkpt>
      <trkpt lat="44.80905" lon="4.13606">
        <ele>1332.04</ele>
        <time>2019-07-28T11:56:41Z</time>
      </trkpt>
      <trkpt lat="44.80905" lon="4.13614">
        <ele>1332.04</ele>
        <time>2019-07-28T11:57:01Z</time>
      </trkpt>
      <trkpt lat="44.80907" lon="4.13625">
        <ele>1330.12</ele>
        <time>2019-07-28T11:57:10Z</time>
      </trkpt>
      <trkpt lat="44.80918" lon="4.13655">
        <ele>1327.72</ele>
        <time>2019-07-28T11:57:29Z</time>
      </trkpt>
      <trkpt lat="44.80934" lon="4.13679">
        <ele>1325.31</ele>
        <time>2019-07-28T11:57:49Z</time>
      </trkpt>
      <trkpt lat="44.80962" lon="4.13684">
        <ele>1327.72</ele>
        <time>2019-07-28T11:58:09Z</time>
      </trkpt>
      <trkpt lat="44.8099" lon="4.13685">
        <ele>1327.72</ele>
        <time>2019-07-28T11:58:30Z</time>
      </trkpt>
      <trkpt lat="44.81013" lon="4.13683">
        <ele>1328.68</ele>
        <time>2019-07-28T11:58:52Z</time>
      </trkpt>
      <trkpt lat="44.81024" lon="4.13687">
        <ele>1327.72</ele>
        <time>2019-07-28T11:59:05Z</time>
      </trkpt>
      <trkpt lat="44.81039" lon="4.13689">
        <ele>1332.52</ele>
        <time>2019-07-28T11:59:12Z</time>
      </trkpt>
      <trkpt lat="44.81043" lon="4.13694">
        <ele>1333.01</ele>
        <time>2019-07-28T11:59:14Z</time>
      </trkpt>
      <trkpt lat="44.81056" lon="4.13718">
        <ele>1330.6</ele>
        <time>2019-07-28T11:59:27Z</time>
      </trkpt>
      <trkpt lat="44.81062" lon="4.13735">
        <ele>1330.12</ele>
        <time>2019-07-28T11:59:37Z</time>
      </trkpt>
      <trkpt lat="44.81068" lon="4.13746">
        <ele>1328.2</ele>
        <time>2019-07-28T11:59:46Z</time>
      </trkpt>
      <trkpt lat="44.81069" lon="4.1375">
        <ele>1327.24</ele>
        <time>2019-07-28T11:59:48Z</time>
      </trkpt>
      <trkpt lat="44.81074" lon="4.1376">
        <ele>1325.8</ele>
        <time>2019-07-28T11:59:53Z</time>
      </trkpt>
      <trkpt lat="44.81081" lon="4.1378">
        <ele>1322.43</ele>
        <time>2019-07-28T12:00:06Z</time>
      </trkpt>
      <trkpt lat="44.81084" lon="4.138">
        <ele>1320.03</ele>
        <time>2019-07-28T12:00:16Z</time>
      </trkpt>
      <trkpt lat="44.81084" lon="4.13815">
        <ele>1320.03</ele>
        <time>2019-07-28T12:00:23Z</time>
      </trkpt>
      <trkpt lat="44.81083" lon="4.13831">
        <ele>1319.55</ele>
        <time>2019-07-28T12:00:32Z</time>
      </trkpt>
      <trkpt lat="44.81082" lon="4.13849">
        <ele>1320.51</ele>
        <time>2019-07-28T12:00:42Z</time>
      </trkpt>
      <trkpt lat="44.81082" lon="4.13868">
        <ele>1320.99</ele>
        <time>2019-07-28T12:00:52Z</time>
      </trkpt>
      <trkpt lat="44.81081" lon="4.13886">
        <ele>1322.91</ele>
        <time>2019-07-28T12:01:01Z</time>
      </trkpt>
      <trkpt lat="44.81085" lon="4.13908">
        <ele>1322.91</ele>
        <time>2019-07-28T12:01:11Z</time>
      </trkpt>
      <trkpt lat="44.81093" lon="4.13922">
        <ele>1321.47</ele>
        <time>2019-07-28T12:01:22Z</time>
      </trkpt>
      <trkpt lat="44.811" lon="4.1393">
        <ele>1321.47</ele>
        <time>2019-07-28T12:01:30Z</time>
      </trkpt>
      <trkpt lat="44.81118" lon="4.1395">
        <ele>1319.55</ele>
        <time>2019-07-28T12:01:47Z</time>
      </trkpt>
      <trkpt lat="44.81139" lon="4.13971">
        <ele>1315.7</ele>
        <time>2019-07-28T12:02:08Z</time>
      </trkpt>
      <trkpt lat="44.81153" lon="4.13976">
        <ele>1315.7</ele>
        <time>2019-07-28T12:02:29Z</time>
      </trkpt>
      <trkpt lat="44.8116" lon="4.13978">
        <ele>1316.18</ele>
        <time>2019-07-28T12:02:41Z</time>
      </trkpt>
      <trkpt lat="44.81164" lon="4.13987">
        <ele>1315.7</ele>
        <time>2019-07-28T12:02:47Z</time>
      </trkpt>
      <trkpt lat="44.81162" lon="4.13996">
        <ele>1313.78</ele>
        <time>2019-07-28T12:02:52Z</time>
      </trkpt>
      <trkpt lat="44.81154" lon="4.1401">
        <ele>1313.78</ele>
        <time>2019-07-28T12:03:01Z</time>
      </trkpt>
      <trkpt lat="44.81143" lon="4.14025">
        <ele>1313.3</ele>
        <time>2019-07-28T12:03:11Z</time>
      </trkpt>
      <trkpt lat="44.81133" lon="4.14033">
        <ele>1313.3</ele>
        <time>2019-07-28T12:03:19Z</time>
      </trkpt>
      <trkpt lat="44.81129" lon="4.14036">
        <ele>1314.26</ele>
        <time>2019-07-28T12:03:30Z</time>
      </trkpt>
      <trkpt lat="44.81128" lon="4.14036">
        <ele>1314.74</ele>
        <time>2019-07-28T12:03:32Z</time>
      </trkpt>
      <trkpt lat="44.81126" lon="4.14039">
        <ele>1315.22</ele>
        <time>2019-07-28T12:03:42Z</time>
      </trkpt>
      <trkpt lat="44.81123" lon="4.14042">
        <ele>1316.66</ele>
        <time>2019-07-28T12:03:51Z</time>
      </trkpt>
      <trkpt lat="44.81121" lon="4.14043">
        <ele>1316.66</ele>
        <time>2019-07-28T12:04:05Z</time>
      </trkpt>
      <trkpt lat="44.81113" lon="4.14049">
        <ele>1315.7</ele>
        <time>2019-07-28T12:04:22Z</time>
      </trkpt>
      <trkpt lat="44.81108" lon="4.14054">
        <ele>1315.22</ele>
        <time>2019-07-28T12:04:26Z</time>
      </trkpt>
      <trkpt lat="44.81091" lon="4.14071">
        <ele>1314.26</ele>
        <time>2019-07-28T12:04:40Z</time>
      </trkpt>
      <trkpt lat="44.81091" lon="4.14072">
        <ele>1314.26</ele>
        <time>2019-07-28T12:04:42Z</time>
      </trkpt>
      <trkpt lat="44.81089" lon="4.14072">
        <ele>1314.26</ele>
        <time>2019-07-28T12:04:44Z</time>
      </trkpt>
      <trkpt lat="44.81086" lon="4.14074">
        <ele>1314.74</ele>
        <time>2019-07-28T12:04:46Z</time>
      </trkpt>
      <trkpt lat="44.81078" lon="4.14079">
        <ele>1315.7</ele>
        <time>2019-07-28T12:04:52Z</time>
      </trkpt>
      <trkpt lat="44.81062" lon="4.14096">
        <ele>1317.62</ele>
        <time>2019-07-28T12:05:14Z</time>
      </trkpt>
      <trkpt lat="44.81047" lon="4.14116">
        <ele>1316.66</ele>
        <time>2019-07-28T12:05:32Z</time>
      </trkpt>
      <trkpt lat="44.81028" lon="4.1413">
        <ele>1313.78</ele>
        <time>2019-07-28T12:05:50Z</time>
      </trkpt>
      <trkpt lat="44.8101" lon="4.14147">
        <ele>1312.34</ele>
        <time>2019-07-28T12:06:02Z</time>
      </trkpt>
      <trkpt lat="44.81" lon="4.1415">
        <ele>1310.9</ele>
        <time>2019-07-28T12:06:11Z</time>
      </trkpt>
      <trkpt lat="44.80987" lon="4.1415">
        <ele>1311.86</ele>
        <time>2019-07-28T12:06:20Z</time>
      </trkpt>
      <trkpt lat="44.80974" lon="4.14153">
        <ele>1311.86</ele>
        <time>2019-07-28T12:06:28Z</time>
      </trkpt>
      <trkpt lat="44.80964" lon="4.14152">
        <ele>1310.9</ele>
        <time>2019-07-28T12:06:38Z</time>
      </trkpt>
      <trkpt lat="44.80951" lon="4.14147">
        <ele>1310.41</ele>
        <time>2019-07-28T12:06:47Z</time>
      </trkpt>
      <trkpt lat="44.8094" lon="4.14145">
        <ele>1309.45</ele>
        <time>2019-07-28T12:06:58Z</time>
      </trkpt>
      <trkpt lat="44.80927" lon="4.1414">
        <ele>1308.97</ele>
        <time>2019-07-28T12:07:07Z</time>
      </trkpt>
      <trkpt lat="44.80915" lon="4.14136">
        <ele>1308.49</ele>
        <time>2019-07-28T12:07:17Z</time>
      </trkpt>
      <trkpt lat="44.80914" lon="4.14135">
        <ele>1308.49</ele>
        <time>2019-07-28T12:07:18Z</time>
      </trkpt>
      <trkpt lat="44.80903" lon="4.14131">
        <ele>1308.01</ele>
        <time>2019-07-28T12:07:27Z</time>
      </trkpt>
      <trkpt lat="44.80892" lon="4.14128">
        <ele>1307.53</ele>
        <time>2019-07-28T12:07:37Z</time>
      </trkpt>
      <trkpt lat="44.8088" lon="4.14125">
        <ele>1308.97</ele>
        <time>2019-07-28T12:07:46Z</time>
      </trkpt>
      <trkpt lat="44.80867" lon="4.1412">
        <ele>1308.97</ele>
        <time>2019-07-28T12:07:56Z</time>
      </trkpt>
      <trkpt lat="44.80856" lon="4.14113">
        <ele>1306.57</ele>
        <time>2019-07-28T12:08:07Z</time>
      </trkpt>
      <trkpt lat="44.80847" lon="4.14109">
        <ele>1305.61</ele>
        <time>2019-07-28T12:08:16Z</time>
      </trkpt>
      <trkpt lat="44.80834" lon="4.14105">
        <ele>1306.09</ele>
        <time>2019-07-28T12:08:27Z</time>
      </trkpt>
      <trkpt lat="44.8082" lon="4.14099">
        <ele>1306.09</ele>
        <time>2019-07-28T12:08:37Z</time>
      </trkpt>
      <trkpt lat="44.80809" lon="4.14095">
        <ele>1305.61</ele>
        <time>2019-07-28T12:08:46Z</time>
      </trkpt>
      <trkpt lat="44.80797" lon="4.1409">
        <ele>1304.65</ele>
        <time>2019-07-28T12:08:56Z</time>
      </trkpt>
      <trkpt lat="44.80788" lon="4.14086">
        <ele>1305.13</ele>
        <time>2019-07-28T12:09:05Z</time>
      </trkpt>
      <trkpt lat="44.80781" lon="4.14082">
        <ele>1305.61</ele>
        <time>2019-07-28T12:09:11Z</time>
      </trkpt>
      <trkpt lat="44.80767" lon="4.14076">
        <ele>1305.13</ele>
        <time>2019-07-28T12:09:21Z</time>
      </trkpt>
      <trkpt lat="44.80753" lon="4.14069">
        <ele>1305.13</ele>
        <time>2019-07-28T12:09:31Z</time>
      </trkpt>
      <trkpt lat="44.80741" lon="4.14062">
        <ele>1303.69</ele>
        <time>2019-07-28T12:09:40Z</time>
      </trkpt>
      <trkpt lat="44.80732" lon="4.14058">
        <ele>1304.17</ele>
        <time>2019-07-28T12:09:47Z</time>
      </trkpt>
      <trkpt lat="44.80724" lon="4.14053">
        <ele>1304.17</ele>
        <time>2019-07-28T12:09:53Z</time>
      </trkpt>
      <trkpt lat="44.80716" lon="4.14048">
        <ele>1303.69</ele>
        <time>2019-07-28T12:10:00Z</time>
      </trkpt>
      <trkpt lat="44.80706" lon="4.1404">
        <ele>1303.2</ele>
        <time>2019-07-28T12:10:10Z</time>
      </trkpt>
      <trkpt lat="44.80691" lon="4.1403">
        <ele>1303.69</ele>
        <time>2019-07-28T12:10:20Z</time>
      </trkpt>
      <trkpt lat="44.80682" lon="4.14025">
        <ele>1304.65</ele>
        <time>2019-07-28T12:10:28Z</time>
      </trkpt>
      <trkpt lat="44.80677" lon="4.14024">
        <ele>1304.65</ele>
        <time>2019-07-28T12:10:32Z</time>
      </trkpt>
      <trkpt lat="44.80666" lon="4.14016">
        <ele>1304.65</ele>
        <time>2019-07-28T12:10:41Z</time>
      </trkpt>
      <trkpt lat="44.80652" lon="4.14008">
        <ele>1304.65</ele>
        <time>2019-07-28T12:10:53Z</time>
      </trkpt>
      <trkpt lat="44.8064" lon="4.14004">
        <ele>1304.17</ele>
        <time>2019-07-28T12:11:02Z</time>
      </trkpt>
      <trkpt lat="44.80633" lon="4.14">
        <ele>1304.65</ele>
        <time>2019-07-28T12:11:08Z</time>
      </trkpt>
      <trkpt lat="44.80625" lon="4.13989">
        <ele>1306.09</ele>
        <time>2019-07-28T12:11:17Z</time>
      </trkpt>
      <trkpt lat="44.80618" lon="4.13979">
        <ele>1306.57</ele>
        <time>2019-07-28T12:11:25Z</time>
      </trkpt>
      <trkpt lat="44.8061" lon="4.13974">
        <ele>1306.57</ele>
        <time>2019-07-28T12:11:33Z</time>
      </trkpt>
      <trkpt lat="44.80601" lon="4.13969">
        <ele>1305.61</ele>
        <time>2019-07-28T12:11:41Z</time>
      </trkpt>
      <trkpt lat="44.80594" lon="4.13966">
        <ele>1305.13</ele>
        <time>2019-07-28T12:11:46Z</time>
      </trkpt>
      <trkpt lat="44.80585" lon="4.13963">
        <ele>1304.65</ele>
        <time>2019-07-28T12:11:55Z</time>
      </trkpt>
      <trkpt lat="44.80574" lon="4.13961">
        <ele>1303.2</ele>
        <time>2019-07-28T12:12:05Z</time>
      </trkpt>
      <trkpt lat="44.80561" lon="4.13958">
        <ele>1301.76</ele>
        <time>2019-07-28T12:12:14Z</time>
      </trkpt>
      <trkpt lat="44.80547" lon="4.13954">
        <ele>1301.76</ele>
        <time>2019-07-28T12:12:24Z</time>
      </trkpt>
      <trkpt lat="44.80534" lon="4.13952">
        <ele>1301.28</ele>
        <time>2019-07-28T12:12:34Z</time>
      </trkpt>
      <trkpt lat="44.80523" lon="4.13949">
        <ele>1300.8</ele>
        <time>2019-07-28T12:12:43Z</time>
      </trkpt>
      <trkpt lat="44.80509" lon="4.13943">
        <ele>1299.84</ele>
        <time>2019-07-28T12:12:53Z</time>
      </trkpt>
      <trkpt lat="44.805" lon="4.13938">
        <ele>1300.32</ele>
        <time>2019-07-28T12:13:01Z</time>
      </trkpt>
      <trkpt lat="44.80489" lon="4.13929">
        <ele>1300.8</ele>
        <time>2019-07-28T12:13:12Z</time>
      </trkpt>
      <trkpt lat="44.80479" lon="4.1392">
        <ele>1301.28</ele>
        <time>2019-07-28T12:13:21Z</time>
      </trkpt>
      <trkpt lat="44.80471" lon="4.13911">
        <ele>1302.24</ele>
        <time>2019-07-28T12:13:29Z</time>
      </trkpt>
      <trkpt lat="44.80456" lon="4.13889">
        <ele>1305.13</ele>
        <time>2019-07-28T12:13:47Z</time>
      </trkpt>
      <trkpt lat="44.80436" lon="4.13852">
        <ele>1307.53</ele>
        <time>2019-07-28T12:14:09Z</time>
      </trkpt>
      <trkpt lat="44.80421" lon="4.13812">
        <ele>1309.45</ele>
        <time>2019-07-28T12:14:32Z</time>
      </trkpt>
      <trkpt lat="44.80409" lon="4.13781">
        <ele>1309.93</ele>
        <time>2019-07-28T12:14:50Z</time>
      </trkpt>
      <trkpt lat="44.80394" lon="4.13745">
        <ele>1309.45</ele>
        <time>2019-07-28T12:15:11Z</time>
      </trkpt>
      <trkpt lat="44.80381" lon="4.13706">
        <ele>1308.97</ele>
        <time>2019-07-28T12:15:36Z</time>
      </trkpt>
      <trkpt lat="44.80368" lon="4.1368">
        <ele>1306.09</ele>
        <time>2019-07-28T12:15:54Z</time>
      </trkpt>
      <trkpt lat="44.80355" lon="4.13655">
        <ele>1303.69</ele>
        <time>2019-07-28T12:16:11Z</time>
      </trkpt>
      <trkpt lat="44.80345" lon="4.13639">
        <ele>1289.27</ele>
        <time>2019-07-28T12:16:24Z</time>
      </trkpt>
      <trkpt lat="44.80342" lon="4.13631">
        <ele>1284.46</ele>
        <time>2019-07-28T12:16:32Z</time>
      </trkpt>
      <trkpt lat="44.80337" lon="4.1362">
        <ele>1281.57</ele>
        <time>2019-07-28T12:16:40Z</time>
      </trkpt>
      <trkpt lat="44.80329" lon="4.13605">
        <ele>1279.17</ele>
        <time>2019-07-28T12:16:48Z</time>
      </trkpt>
      <trkpt lat="44.80325" lon="4.13595">
        <ele>1277.25</ele>
        <time>2019-07-28T12:16:56Z</time>
      </trkpt>
      <trkpt lat="44.80319" lon="4.13585">
        <ele>1274.85</ele>
        <time>2019-07-28T12:17:04Z</time>
      </trkpt>
      <trkpt lat="44.80314" lon="4.13574">
        <ele>1274.85</ele>
        <time>2019-07-28T12:17:13Z</time>
      </trkpt>
      <trkpt lat="44.80309" lon="4.13561">
        <ele>1272.92</ele>
        <time>2019-07-28T12:17:22Z</time>
      </trkpt>
      <trkpt lat="44.80308" lon="4.13556">
        <ele>1271.96</ele>
        <time>2019-07-28T12:17:32Z</time>
      </trkpt>
      <trkpt lat="44.80307" lon="4.13554">
        <ele>1270.52</ele>
        <time>2019-07-28T12:19:07Z</time>
      </trkpt>
      <trkpt lat="44.80304" lon="4.13548">
        <ele>1269.08</ele>
        <time>2019-07-28T12:19:18Z</time>
      </trkpt>
      <trkpt lat="44.80303" lon="4.13547">
        <ele>1268.6</ele>
        <time>2019-07-28T12:20:09Z</time>
      </trkpt>
      <trkpt lat="44.80303" lon="4.13546">
        <ele>1269.08</ele>
        <time>2019-07-28T12:20:36Z</time>
      </trkpt>
      <trkpt lat="44.80299" lon="4.13532">
        <ele>1268.12</ele>
        <time>2019-07-28T12:20:50Z</time>
      </trkpt>
      <trkpt lat="44.80299" lon="4.13527">
        <ele>1267.64</ele>
        <time>2019-07-28T12:20:56Z</time>
      </trkpt>
      <trkpt lat="44.80299" lon="4.13516">
        <ele>1266.67</ele>
        <time>2019-07-28T12:21:05Z</time>
      </trkpt>
      <trkpt lat="44.80296" lon="4.13527">
        <ele>1266.67</ele>
        <time>2019-07-28T12:21:13Z</time>
      </trkpt>
      <trkpt lat="44.80286" lon="4.13531">
        <ele>1268.6</ele>
        <time>2019-07-28T12:21:27Z</time>
      </trkpt>
      <trkpt lat="44.8028" lon="4.13527">
        <ele>1269.56</ele>
        <time>2019-07-28T12:21:48Z</time>
      </trkpt>
      <trkpt lat="44.80273" lon="4.13516">
        <ele>1270.52</ele>
        <time>2019-07-28T12:22:01Z</time>
      </trkpt>
      <trkpt lat="44.80267" lon="4.13504">
        <ele>1266.19</ele>
        <time>2019-07-28T12:22:09Z</time>
      </trkpt>
      <trkpt lat="44.80261" lon="4.135">
        <ele>1263.31</ele>
        <time>2019-07-28T12:22:19Z</time>
      </trkpt>
      <trkpt lat="44.80253" lon="4.13492">
        <ele>1258.5</ele>
        <time>2019-07-28T12:22:41Z</time>
      </trkpt>
      <trkpt lat="44.80236" lon="4.13477">
        <ele>1253.7</ele>
        <time>2019-07-28T12:23:01Z</time>
      </trkpt>
      <trkpt lat="44.8022" lon="4.1347">
        <ele>1251.29</ele>
        <time>2019-07-28T12:23:17Z</time>
      </trkpt>
      <trkpt lat="44.80203" lon="4.1346">
        <ele>1248.41</ele>
        <time>2019-07-28T12:23:37Z</time>
      </trkpt>
      <trkpt lat="44.80185" lon="4.1345">
        <ele>1242.16</ele>
        <time>2019-07-28T12:24:04Z</time>
      </trkpt>
      <trkpt lat="44.80165" lon="4.1344">
        <ele>1236.39</ele>
        <time>2019-07-28T12:24:27Z</time>
      </trkpt>
      <trkpt lat="44.80145" lon="4.13421">
        <ele>1233.51</ele>
        <time>2019-07-28T12:24:46Z</time>
      </trkpt>
      <trkpt lat="44.80123" lon="4.13395">
        <ele>1231.11</ele>
        <time>2019-07-28T12:25:15Z</time>
      </trkpt>
      <trkpt lat="44.80109" lon="4.13374">
        <ele>1237.35</ele>
        <time>2019-07-28T12:25:32Z</time>
      </trkpt>
      <trkpt lat="44.80095" lon="4.13369">
        <ele>1240.24</ele>
        <time>2019-07-28T12:25:45Z</time>
      </trkpt>
      <trkpt lat="44.80082" lon="4.13368">
        <ele>1240.24</ele>
        <time>2019-07-28T12:25:56Z</time>
      </trkpt>
      <trkpt lat="44.80068" lon="4.1337">
        <ele>1239.28</ele>
        <time>2019-07-28T12:26:10Z</time>
      </trkpt>
      <trkpt lat="44.80055" lon="4.1337">
        <ele>1237.83</ele>
        <time>2019-07-28T12:26:22Z</time>
      </trkpt>
      <trkpt lat="44.80041" lon="4.13373">
        <ele>1237.83</ele>
        <time>2019-07-28T12:26:35Z</time>
      </trkpt>
      <trkpt lat="44.80028" lon="4.13373">
        <ele>1236.39</ele>
        <time>2019-07-28T12:26:49Z</time>
      </trkpt>
      <trkpt lat="44.80017" lon="4.1337">
        <ele>1235.43</ele>
        <time>2019-07-28T12:26:58Z</time>
      </trkpt>
      <trkpt lat="44.80005" lon="4.13362">
        <ele>1234.47</ele>
        <time>2019-07-28T12:27:10Z</time>
      </trkpt>
      <trkpt lat="44.79995" lon="4.13358">
        <ele>1233.99</ele>
        <time>2019-07-28T12:27:19Z</time>
      </trkpt>
      <trkpt lat="44.7999" lon="4.13355">
        <ele>1233.51</ele>
        <time>2019-07-28T12:27:31Z</time>
      </trkpt>
      <trkpt lat="44.79974" lon="4.13349">
        <ele>1233.99</ele>
        <time>2019-07-28T12:27:49Z</time>
      </trkpt>
      <trkpt lat="44.79963" lon="4.13338">
        <ele>1234.95</ele>
        <time>2019-07-28T12:28:00Z</time>
      </trkpt>
      <trkpt lat="44.79955" lon="4.1333">
        <ele>1233.51</ele>
        <time>2019-07-28T12:28:09Z</time>
      </trkpt>
      <trkpt lat="44.79947" lon="4.13323">
        <ele>1233.03</ele>
        <time>2019-07-28T12:28:21Z</time>
      </trkpt>
      <trkpt lat="44.79936" lon="4.1331">
        <ele>1232.55</ele>
        <time>2019-07-28T12:28:32Z</time>
      </trkpt>
      <trkpt lat="44.79926" lon="4.13299">
        <ele>1230.14</ele>
        <time>2019-07-28T12:28:41Z</time>
      </trkpt>
      <trkpt lat="44.79919" lon="4.1329">
        <ele>1230.14</ele>
        <time>2019-07-28T12:28:50Z</time>
      </trkpt>
      <trkpt lat="44.79913" lon="4.13284">
        <ele>1229.66</ele>
        <time>2019-07-28T12:28:56Z</time>
      </trkpt>
      <trkpt lat="44.79901" lon="4.13278">
        <ele>1230.62</ele>
        <time>2019-07-28T12:29:08Z</time>
      </trkpt>
      <trkpt lat="44.7989" lon="4.13273">
        <ele>1231.59</ele>
        <time>2019-07-28T12:29:18Z</time>
      </trkpt>
      <trkpt lat="44.79875" lon="4.13269">
        <ele>1230.62</ele>
        <time>2019-07-28T12:29:29Z</time>
      </trkpt>
      <trkpt lat="44.79864" lon="4.13265">
        <ele>1228.7</ele>
        <time>2019-07-28T12:29:38Z</time>
      </trkpt>
      <trkpt lat="44.79853" lon="4.1326">
        <ele>1226.3</ele>
        <time>2019-07-28T12:29:49Z</time>
      </trkpt>
      <trkpt lat="44.79843" lon="4.13255">
        <ele>1224.38</ele>
        <time>2019-07-28T12:29:57Z</time>
      </trkpt>
      <trkpt lat="44.79838" lon="4.13252">
        <ele>1222.45</ele>
        <time>2019-07-28T12:30:06Z</time>
      </trkpt>
      <trkpt lat="44.79836" lon="4.13251">
        <ele>1221.97</ele>
        <time>2019-07-28T12:30:10Z</time>
      </trkpt>
      <trkpt lat="44.79829" lon="4.13247">
        <ele>1221.01</ele>
        <time>2019-07-28T12:30:19Z</time>
      </trkpt>
      <trkpt lat="44.79828" lon="4.13247">
        <ele>1220.53</ele>
        <time>2019-07-28T12:30:21Z</time>
      </trkpt>
      <trkpt lat="44.79821" lon="4.13246">
        <ele>1219.57</ele>
        <time>2019-07-28T12:30:31Z</time>
      </trkpt>
      <trkpt lat="44.79815" lon="4.13244">
        <ele>1219.09</ele>
        <time>2019-07-28T12:30:39Z</time>
      </trkpt>
      <trkpt lat="44.79809" lon="4.1324">
        <ele>1218.13</ele>
        <time>2019-07-28T12:30:45Z</time>
      </trkpt>
      <trkpt lat="44.79803" lon="4.13239">
        <ele>1217.17</ele>
        <time>2019-07-28T12:30:48Z</time>
      </trkpt>
      <trkpt lat="44.79799" lon="4.13239">
        <ele>1216.21</ele>
        <time>2019-07-28T12:30:52Z</time>
      </trkpt>
      <trkpt lat="44.79787" lon="4.13238">
        <ele>1213.8</ele>
        <time>2019-07-28T12:31:01Z</time>
      </trkpt>
      <trkpt lat="44.79775" lon="4.13235">
        <ele>1212.36</ele>
        <time>2019-07-28T12:31:10Z</time>
      </trkpt>
      <trkpt lat="44.79774" lon="4.13234">
        <ele>1212.36</ele>
        <time>2019-07-28T12:31:12Z</time>
      </trkpt>
      <trkpt lat="44.79769" lon="4.13235">
        <ele>1211.4</ele>
        <time>2019-07-28T12:31:15Z</time>
      </trkpt>
      <trkpt lat="44.79764" lon="4.13231">
        <ele>1210.44</ele>
        <time>2019-07-28T12:31:20Z</time>
      </trkpt>
      <trkpt lat="44.79752" lon="4.13231">
        <ele>1208.03</ele>
        <time>2019-07-28T12:31:31Z</time>
      </trkpt>
      <trkpt lat="44.79745" lon="4.1323">
        <ele>1206.59</ele>
        <time>2019-07-28T12:31:39Z</time>
      </trkpt>
      <trkpt lat="44.79744" lon="4.13229">
        <ele>1206.59</ele>
        <time>2019-07-28T12:31:40Z</time>
      </trkpt>
      <trkpt lat="44.79743" lon="4.13228">
        <ele>1205.63</ele>
        <time>2019-07-28T12:31:42Z</time>
      </trkpt>
      <trkpt lat="44.79744" lon="4.13226">
        <ele>1204.19</ele>
        <time>2019-07-28T12:31:45Z</time>
      </trkpt>
      <trkpt lat="44.79748" lon="4.13226">
        <ele>1201.79</ele>
        <time>2019-07-28T12:31:53Z</time>
      </trkpt>
      <trkpt lat="44.79755" lon="4.13221">
        <ele>1201.3</ele>
        <time>2019-07-28T12:32:00Z</time>
      </trkpt>
      <trkpt lat="44.79758" lon="4.13221">
        <ele>1199.86</ele>
        <time>2019-07-28T12:32:03Z</time>
      </trkpt>
      <trkpt lat="44.7977" lon="4.13213">
        <ele>1197.94</ele>
        <time>2019-07-28T12:32:15Z</time>
      </trkpt>
      <trkpt lat="44.7978" lon="4.13205">
        <ele>1197.94</ele>
        <time>2019-07-28T12:32:25Z</time>
      </trkpt>
      <trkpt lat="44.79791" lon="4.13194">
        <ele>1197.46</ele>
        <time>2019-07-28T12:32:34Z</time>
      </trkpt>
      <trkpt lat="44.79797" lon="4.13183">
        <ele>1198.42</ele>
        <time>2019-07-28T12:32:43Z</time>
      </trkpt>
      <trkpt lat="44.79804" lon="4.13169">
        <ele>1198.42</ele>
        <time>2019-07-28T12:32:52Z</time>
      </trkpt>
      <trkpt lat="44.79809" lon="4.13159">
        <ele>1198.42</ele>
        <time>2019-07-28T12:33:00Z</time>
      </trkpt>
      <trkpt lat="44.79812" lon="4.1315">
        <ele>1197.94</ele>
        <time>2019-07-28T12:33:07Z</time>
      </trkpt>
      <trkpt lat="44.79817" lon="4.13135">
        <ele>1197.94</ele>
        <time>2019-07-28T12:33:16Z</time>
      </trkpt>
      <trkpt lat="44.7982" lon="4.13117">
        <ele>1197.94</ele>
        <time>2019-07-28T12:33:25Z</time>
      </trkpt>
      <trkpt lat="44.79823" lon="4.13108">
        <ele>1198.9</ele>
        <time>2019-07-28T12:33:31Z</time>
      </trkpt>
      <trkpt lat="44.79824" lon="4.13095">
        <ele>1199.38</ele>
        <time>2019-07-28T12:33:37Z</time>
      </trkpt>
      <trkpt lat="44.79827" lon="4.13076">
        <ele>1200.34</ele>
        <time>2019-07-28T12:33:47Z</time>
      </trkpt>
      <trkpt lat="44.79827" lon="4.13071">
        <ele>1201.3</ele>
        <time>2019-07-28T12:33:51Z</time>
      </trkpt>
      <trkpt lat="44.79827" lon="4.13068">
        <ele>1201.3</ele>
        <time>2019-07-28T12:33:55Z</time>
      </trkpt>
      <trkpt lat="44.79829" lon="4.13051">
        <ele>1200.34</ele>
        <time>2019-07-28T12:34:11Z</time>
      </trkpt>
      <trkpt lat="44.79829" lon="4.13049">
        <ele>1199.86</ele>
        <time>2019-07-28T12:34:28Z</time>
      </trkpt>
      <trkpt lat="44.79823" lon="4.13031">
        <ele>1196.5</ele>
        <time>2019-07-28T12:34:44Z</time>
      </trkpt>
      <trkpt lat="44.79826" lon="4.13005">
        <ele>1195.06</ele>
        <time>2019-07-28T12:35:05Z</time>
      </trkpt>
      <trkpt lat="44.79826" lon="4.12998">
        <ele>1195.06</ele>
        <time>2019-07-28T12:35:16Z</time>
      </trkpt>
      <trkpt lat="44.79817" lon="4.12999">
        <ele>1195.06</ele>
        <time>2019-07-28T12:35:32Z</time>
      </trkpt>
      <trkpt lat="44.79818" lon="4.12999">
        <ele>1195.06</ele>
        <time>2019-07-28T12:35:33Z</time>
      </trkpt>
      <trkpt lat="44.79824" lon="4.12995">
        <ele>1195.06</ele>
        <time>2019-07-28T12:35:38Z</time>
      </trkpt>
      <trkpt lat="44.79832" lon="4.1299">
        <ele>1195.54</ele>
        <time>2019-07-28T12:35:46Z</time>
      </trkpt>
      <trkpt lat="44.79833" lon="4.1298">
        <ele>1194.09</ele>
        <time>2019-07-28T12:35:52Z</time>
      </trkpt>
      <trkpt lat="44.7983" lon="4.12974">
        <ele>1189.77</ele>
        <time>2019-07-28T12:35:57Z</time>
      </trkpt>
      <trkpt lat="44.79831" lon="4.12966">
        <ele>1188.81</ele>
        <time>2019-07-28T12:36:05Z</time>
      </trkpt>
      <trkpt lat="44.79829" lon="4.12943">
        <ele>1186.88</ele>
        <time>2019-07-28T12:36:16Z</time>
      </trkpt>
      <trkpt lat="44.79829" lon="4.12938">
        <ele>1186.88</ele>
        <time>2019-07-28T12:36:19Z</time>
      </trkpt>
      <trkpt lat="44.79826" lon="4.12925">
        <ele>1186.88</ele>
        <time>2019-07-28T12:36:31Z</time>
      </trkpt>
      <trkpt lat="44.79821" lon="4.12916">
        <ele>1186.88</ele>
        <time>2019-07-28T12:36:42Z</time>
      </trkpt>
      <trkpt lat="44.79819" lon="4.1291">
        <ele>1188.33</ele>
        <time>2019-07-28T12:36:47Z</time>
      </trkpt>
      <trkpt lat="44.79816" lon="4.12904">
        <ele>1189.77</ele>
        <time>2019-07-28T12:37:00Z</time>
      </trkpt>
      <trkpt lat="44.79809" lon="4.12893">
        <ele>1188.33</ele>
        <time>2019-07-28T12:37:12Z</time>
      </trkpt>
      <trkpt lat="44.79805" lon="4.12883">
        <ele>1185.92</ele>
        <time>2019-07-28T12:37:23Z</time>
      </trkpt>
      <trkpt lat="44.798" lon="4.12872">
        <ele>1184</ele>
        <time>2019-07-28T12:37:34Z</time>
      </trkpt>
      <trkpt lat="44.79797" lon="4.12869">
        <ele>1183.04</ele>
        <time>2019-07-28T12:37:39Z</time>
      </trkpt>
      <trkpt lat="44.79792" lon="4.12869">
        <ele>1181.6</ele>
        <time>2019-07-28T12:37:44Z</time>
      </trkpt>
      <trkpt lat="44.7979" lon="4.1287">
        <ele>1181.12</ele>
        <time>2019-07-28T12:37:47Z</time>
      </trkpt>
      <trkpt lat="44.79783" lon="4.12873">
        <ele>1179.67</ele>
        <time>2019-07-28T12:37:55Z</time>
      </trkpt>
      <trkpt lat="44.79773" lon="4.12878">
        <ele>1176.31</ele>
        <time>2019-07-28T12:38:06Z</time>
      </trkpt>
      <trkpt lat="44.79772" lon="4.12877">
        <ele>1175.83</ele>
        <time>2019-07-28T12:38:07Z</time>
      </trkpt>
      <trkpt lat="44.79762" lon="4.12866">
        <ele>1172.47</ele>
        <time>2019-07-28T12:38:17Z</time>
      </trkpt>
      <trkpt lat="44.79752" lon="4.12862">
        <ele>1169.1</ele>
        <time>2019-07-28T12:38:26Z</time>
      </trkpt>
      <trkpt lat="44.79742" lon="4.12874">
        <ele>1167.18</ele>
        <time>2019-07-28T12:38:36Z</time>
      </trkpt>
      <trkpt lat="44.79735" lon="4.12878">
        <ele>1164.77</ele>
        <time>2019-07-28T12:38:44Z</time>
      </trkpt>
      <trkpt lat="44.79725" lon="4.12876">
        <ele>1162.37</ele>
        <time>2019-07-28T12:38:55Z</time>
      </trkpt>
      <trkpt lat="44.79721" lon="4.12872">
        <ele>1161.41</ele>
        <time>2019-07-28T12:39:00Z</time>
      </trkpt>
      <trkpt lat="44.79711" lon="4.12865">
        <ele>1160.45</ele>
        <time>2019-07-28T12:39:07Z</time>
      </trkpt>
      <trkpt lat="44.79704" lon="4.12859">
        <ele>1158.53</ele>
        <time>2019-07-28T12:39:19Z</time>
      </trkpt>
      <trkpt lat="44.79701" lon="4.12853">
        <ele>1156.12</ele>
        <time>2019-07-28T12:39:24Z</time>
      </trkpt>
      <trkpt lat="44.79691" lon="4.12835">
        <ele>1154.2</ele>
        <time>2019-07-28T12:39:35Z</time>
      </trkpt>
      <trkpt lat="44.79686" lon="4.12829">
        <ele>1153.72</ele>
        <time>2019-07-28T12:39:38Z</time>
      </trkpt>
      <trkpt lat="44.79682" lon="4.12823">
        <ele>1152.76</ele>
        <time>2019-07-28T12:39:42Z</time>
      </trkpt>
      <trkpt lat="44.79675" lon="4.12813">
        <ele>1150.84</ele>
        <time>2019-07-28T12:39:52Z</time>
      </trkpt>
      <trkpt lat="44.79666" lon="4.12797">
        <ele>1146.99</ele>
        <time>2019-07-28T12:40:05Z</time>
      </trkpt>
      <trkpt lat="44.7967" lon="4.12778">
        <ele>1144.11</ele>
        <time>2019-07-28T12:40:16Z</time>
      </trkpt>
      <trkpt lat="44.79671" lon="4.12775">
        <ele>1143.14</ele>
        <time>2019-07-28T12:40:20Z</time>
      </trkpt>
      <trkpt lat="44.79667" lon="4.12773">
        <ele>1143.14</ele>
        <time>2019-07-28T12:40:25Z</time>
      </trkpt>
      <trkpt lat="44.79666" lon="4.1277">
        <ele>1143.14</ele>
        <time>2019-07-28T12:40:27Z</time>
      </trkpt>
      <trkpt lat="44.79668" lon="4.12762">
        <ele>1142.18</ele>
        <time>2019-07-28T12:40:35Z</time>
      </trkpt>
      <trkpt lat="44.79671" lon="4.12756">
        <ele>1142.18</ele>
        <time>2019-07-28T12:40:41Z</time>
      </trkpt>
      <trkpt lat="44.7967" lon="4.12742">
        <ele>1142.66</ele>
        <time>2019-07-28T12:40:49Z</time>
      </trkpt>
      <trkpt lat="44.79666" lon="4.12733">
        <ele>1141.22</ele>
        <time>2019-07-28T12:40:57Z</time>
      </trkpt>
      <trkpt lat="44.79666" lon="4.12724">
        <ele>1140.74</ele>
        <time>2019-07-28T12:41:05Z</time>
      </trkpt>
      <trkpt lat="44.79662" lon="4.12713">
        <ele>1139.3</ele>
        <time>2019-07-28T12:41:12Z</time>
      </trkpt>
      <trkpt lat="44.79658" lon="4.12712">
        <ele>1138.82</ele>
        <time>2019-07-28T12:41:17Z</time>
      </trkpt>
      <trkpt lat="44.79643" lon="4.12717">
        <ele>1135.45</ele>
        <time>2019-07-28T12:41:31Z</time>
      </trkpt>
      <trkpt lat="44.79635" lon="4.12721">
        <ele>1132.57</ele>
        <time>2019-07-28T12:41:37Z</time>
      </trkpt>
      <trkpt lat="44.79625" lon="4.12728">
        <ele>1130.17</ele>
        <time>2019-07-28T12:41:49Z</time>
      </trkpt>
      <trkpt lat="44.79624" lon="4.12729">
        <ele>1130.17</ele>
        <time>2019-07-28T12:41:50Z</time>
      </trkpt>
      <trkpt lat="44.79612" lon="4.12739">
        <ele>1129.69</ele>
        <time>2019-07-28T12:42:00Z</time>
      </trkpt>
      <trkpt lat="44.79604" lon="4.12747">
        <ele>1129.69</ele>
        <time>2019-07-28T12:42:08Z</time>
      </trkpt>
      <trkpt lat="44.79602" lon="4.1275">
        <ele>1130.17</ele>
        <time>2019-07-28T12:42:11Z</time>
      </trkpt>
      <trkpt lat="44.79596" lon="4.12768">
        <ele>1131.61</ele>
        <time>2019-07-28T12:42:23Z</time>
      </trkpt>
      <trkpt lat="44.79592" lon="4.12779">
        <ele>1133.05</ele>
        <time>2019-07-28T12:42:32Z</time>
      </trkpt>
      <trkpt lat="44.79588" lon="4.12785">
        <ele>1132.57</ele>
        <time>2019-07-28T12:42:42Z</time>
      </trkpt>
      <trkpt lat="44.79584" lon="4.12801">
        <ele>1132.09</ele>
        <time>2019-07-28T12:42:51Z</time>
      </trkpt>
      <trkpt lat="44.79578" lon="4.12812">
        <ele>1130.65</ele>
        <time>2019-07-28T12:42:59Z</time>
      </trkpt>
      <trkpt lat="44.79574" lon="4.12822">
        <ele>1130.17</ele>
        <time>2019-07-28T12:43:05Z</time>
      </trkpt>
      <trkpt lat="44.79568" lon="4.12832">
        <ele>1129.69</ele>
        <time>2019-07-28T12:43:20Z</time>
      </trkpt>
      <trkpt lat="44.79564" lon="4.12844">
        <ele>1131.13</ele>
        <time>2019-07-28T12:43:32Z</time>
      </trkpt>
      <trkpt lat="44.79564" lon="4.12846">
        <ele>1130.65</ele>
        <time>2019-07-28T12:43:36Z</time>
      </trkpt>
      <trkpt lat="44.79564" lon="4.1284">
        <ele>1130.65</ele>
        <time>2019-07-28T12:43:41Z</time>
      </trkpt>
      <trkpt lat="44.79567" lon="4.12829">
        <ele>1130.17</ele>
        <time>2019-07-28T12:43:51Z</time>
      </trkpt>
      <trkpt lat="44.79568" lon="4.12828">
        <ele>1130.17</ele>
        <time>2019-07-28T12:44:08Z</time>
      </trkpt>
      <trkpt lat="44.79569" lon="4.12827">
        <ele>1129.69</ele>
        <time>2019-07-28T12:44:45Z</time>
      </trkpt>
      <trkpt lat="44.79568" lon="4.12827">
        <ele>1130.17</ele>
        <time>2019-07-28T12:45:03Z</time>
      </trkpt>
      <trkpt lat="44.79563" lon="4.12814">
        <ele>1125.84</ele>
        <time>2019-07-28T12:45:17Z</time>
      </trkpt>
      <trkpt lat="44.79555" lon="4.12807">
        <ele>1122.96</ele>
        <time>2019-07-28T12:45:27Z</time>
      </trkpt>
      <trkpt lat="44.79554" lon="4.12806">
        <ele>1122.96</ele>
        <time>2019-07-28T12:45:32Z</time>
      </trkpt>
      <trkpt lat="44.79547" lon="4.1281">
        <ele>1121.03</ele>
        <time>2019-07-28T12:45:40Z</time>
      </trkpt>
      <trkpt lat="44.79544" lon="4.12805">
        <ele>1119.59</ele>
        <time>2019-07-28T12:45:48Z</time>
      </trkpt>
      <trkpt lat="44.79538" lon="4.12797">
        <ele>1117.67</ele>
        <time>2019-07-28T12:45:59Z</time>
      </trkpt>
      <trkpt lat="44.79533" lon="4.12773">
        <ele>1115.27</ele>
        <time>2019-07-28T12:46:11Z</time>
      </trkpt>
      <trkpt lat="44.79533" lon="4.12771">
        <ele>1114.79</ele>
        <time>2019-07-28T12:46:16Z</time>
      </trkpt>
      <trkpt lat="44.79531" lon="4.12746">
        <ele>1112.86</ele>
        <time>2019-07-28T12:46:26Z</time>
      </trkpt>
      <trkpt lat="44.7953" lon="4.1273">
        <ele>1111.9</ele>
        <time>2019-07-28T12:46:32Z</time>
      </trkpt>
      <trkpt lat="44.79531" lon="4.12727">
        <ele>1111.42</ele>
        <time>2019-07-28T12:46:35Z</time>
      </trkpt>
      <trkpt lat="44.79533" lon="4.12718">
        <ele>1110.46</ele>
        <time>2019-07-28T12:46:41Z</time>
      </trkpt>
      <trkpt lat="44.79526" lon="4.12712">
        <ele>1107.1</ele>
        <time>2019-07-28T12:46:56Z</time>
      </trkpt>
      <trkpt lat="44.7952" lon="4.12711">
        <ele>1104.21</ele>
        <time>2019-07-28T12:47:16Z</time>
      </trkpt>
      <trkpt lat="44.79509" lon="4.12713">
        <ele>1100.85</ele>
        <time>2019-07-28T12:47:25Z</time>
      </trkpt>
      <trkpt lat="44.79502" lon="4.12715">
        <ele>1098.92</ele>
        <time>2019-07-28T12:47:33Z</time>
      </trkpt>
      <trkpt lat="44.79495" lon="4.1272">
        <ele>1098.44</ele>
        <time>2019-07-28T12:47:40Z</time>
      </trkpt>
      <trkpt lat="44.7949" lon="4.12728">
        <ele>1097.96</ele>
        <time>2019-07-28T12:47:47Z</time>
      </trkpt>
      <trkpt lat="44.79485" lon="4.12734">
        <ele>1096.04</ele>
        <time>2019-07-28T12:47:57Z</time>
      </trkpt>
      <trkpt lat="44.79483" lon="4.12731">
        <ele>1095.08</ele>
        <time>2019-07-28T12:48:00Z</time>
      </trkpt>
      <trkpt lat="44.79481" lon="4.12725">
        <ele>1093.64</ele>
        <time>2019-07-28T12:48:06Z</time>
      </trkpt>
      <trkpt lat="44.7948" lon="4.12709">
        <ele>1089.79</ele>
        <time>2019-07-28T12:48:17Z</time>
      </trkpt>
      <trkpt lat="44.79482" lon="4.12694">
        <ele>1086.43</ele>
        <time>2019-07-28T12:48:27Z</time>
      </trkpt>
      <trkpt lat="44.79483" lon="4.12692">
        <ele>1085.95</ele>
        <time>2019-07-28T12:48:29Z</time>
      </trkpt>
      <trkpt lat="44.7949" lon="4.12681">
        <ele>1085.95</ele>
        <time>2019-07-28T12:48:40Z</time>
      </trkpt>
      <trkpt lat="44.79494" lon="4.12676">
        <ele>1084.99</ele>
        <time>2019-07-28T12:48:50Z</time>
      </trkpt>
      <trkpt lat="44.79496" lon="4.12675">
        <ele>1084.5</ele>
        <time>2019-07-28T12:48:53Z</time>
      </trkpt>
      <trkpt lat="44.79499" lon="4.12671">
        <ele>1083.06</ele>
        <time>2019-07-28T12:49:00Z</time>
      </trkpt>
      <trkpt lat="44.79508" lon="4.12664">
        <ele>1080.18</ele>
        <time>2019-07-28T12:49:12Z</time>
      </trkpt>
      <trkpt lat="44.79511" lon="4.12661">
        <ele>1079.22</ele>
        <time>2019-07-28T12:49:16Z</time>
      </trkpt>
      <trkpt lat="44.7952" lon="4.12648">
        <ele>1079.22</ele>
        <time>2019-07-28T12:49:30Z</time>
      </trkpt>
      <trkpt lat="44.79525" lon="4.12633">
        <ele>1078.26</ele>
        <time>2019-07-28T12:49:42Z</time>
      </trkpt>
      <trkpt lat="44.7953" lon="4.12615">
        <ele>1076.33</ele>
        <time>2019-07-28T12:49:54Z</time>
      </trkpt>
      <trkpt lat="44.79527" lon="4.12612">
        <ele>1075.37</ele>
        <time>2019-07-28T12:49:59Z</time>
      </trkpt>
      <trkpt lat="44.79517" lon="4.126">
        <ele>1075.85</ele>
        <time>2019-07-28T12:50:10Z</time>
      </trkpt>
      <trkpt lat="44.79503" lon="4.12583">
        <ele>1076.33</ele>
        <time>2019-07-28T12:50:27Z</time>
      </trkpt>
      <trkpt lat="44.795" lon="4.12581">
        <ele>1076.33</ele>
        <time>2019-07-28T12:50:30Z</time>
      </trkpt>
      <trkpt lat="44.79482" lon="4.12582">
        <ele>1070.57</ele>
        <time>2019-07-28T12:50:48Z</time>
      </trkpt>
      <trkpt lat="44.79477" lon="4.12581">
        <ele>1070.57</ele>
        <time>2019-07-28T12:50:53Z</time>
      </trkpt>
      <trkpt lat="44.7947" lon="4.12584">
        <ele>1069.12</ele>
        <time>2019-07-28T12:51:00Z</time>
      </trkpt>
      <trkpt lat="44.79461" lon="4.1258">
        <ele>1067.2</ele>
        <time>2019-07-28T12:51:07Z</time>
      </trkpt>
      <trkpt lat="44.79453" lon="4.12579">
        <ele>1065.28</ele>
        <time>2019-07-28T12:51:13Z</time>
      </trkpt>
      <trkpt lat="44.79442" lon="4.12591">
        <ele>1063.84</ele>
        <time>2019-07-28T12:51:23Z</time>
      </trkpt>
      <trkpt lat="44.79436" lon="4.12607">
        <ele>1061.91</ele>
        <time>2019-07-28T12:51:33Z</time>
      </trkpt>
      <trkpt lat="44.7943" lon="4.12618">
        <ele>1061.43</ele>
        <time>2019-07-28T12:51:42Z</time>
      </trkpt>
      <trkpt lat="44.79423" lon="4.12631">
        <ele>1060.47</ele>
        <time>2019-07-28T12:51:52Z</time>
      </trkpt>
      <trkpt lat="44.79417" lon="4.12645">
        <ele>1059.51</ele>
        <time>2019-07-28T12:52:02Z</time>
      </trkpt>
      <trkpt lat="44.79412" lon="4.12659">
        <ele>1058.07</ele>
        <time>2019-07-28T12:52:09Z</time>
      </trkpt>
      <trkpt lat="44.79408" lon="4.12685">
        <ele>1055.67</ele>
        <time>2019-07-28T12:52:25Z</time>
      </trkpt>
      <trkpt lat="44.79392" lon="4.12694">
        <ele>1053.74</ele>
        <time>2019-07-28T12:52:44Z</time>
      </trkpt>
      <trkpt lat="44.79378" lon="4.12689">
        <ele>1050.86</ele>
        <time>2019-07-28T12:53:01Z</time>
      </trkpt>
      <trkpt lat="44.79354" lon="4.12674">
        <ele>1047.97</ele>
        <time>2019-07-28T12:53:19Z</time>
      </trkpt>
      <trkpt lat="44.79332" lon="4.12662">
        <ele>1045.57</ele>
        <time>2019-07-28T12:53:37Z</time>
      </trkpt>
      <trkpt lat="44.79313" lon="4.12665">
        <ele>1045.09</ele>
        <time>2019-07-28T12:53:55Z</time>
      </trkpt>
      <trkpt lat="44.79304" lon="4.1266">
        <ele>1045.09</ele>
        <time>2019-07-28T12:54:03Z</time>
      </trkpt>
      <trkpt lat="44.79295" lon="4.12655">
        <ele>1048.94</ele>
        <time>2019-07-28T12:54:14Z</time>
      </trkpt>
      <trkpt lat="44.79288" lon="4.12661">
        <ele>1047.97</ele>
        <time>2019-07-28T12:54:23Z</time>
      </trkpt>
      <trkpt lat="44.79285" lon="4.12659">
        <ele>1047.49</ele>
        <time>2019-07-28T12:54:26Z</time>
      </trkpt>
      <trkpt lat="44.79279" lon="4.12654">
        <ele>1047.49</ele>
        <time>2019-07-28T12:54:32Z</time>
      </trkpt>
      <trkpt lat="44.79271" lon="4.12659">
        <ele>1046.53</ele>
        <time>2019-07-28T12:54:37Z</time>
      </trkpt>
      <trkpt lat="44.79256" lon="4.1266">
        <ele>1046.53</ele>
        <time>2019-07-28T12:54:53Z</time>
      </trkpt>
      <trkpt lat="44.79254" lon="4.12662">
        <ele>1047.01</ele>
        <time>2019-07-28T12:55:11Z</time>
      </trkpt>
      <trkpt lat="44.79256" lon="4.12673">
        <ele>1045.57</ele>
        <time>2019-07-28T12:55:27Z</time>
      </trkpt>
      <trkpt lat="44.79254" lon="4.12677">
        <ele>1043.65</ele>
        <time>2019-07-28T12:55:42Z</time>
      </trkpt>
      <trkpt lat="44.79254" lon="4.1267">
        <ele>1043.17</ele>
        <time>2019-07-28T12:56:05Z</time>
      </trkpt>
      <trkpt lat="44.79255" lon="4.12667">
        <ele>1042.21</ele>
        <time>2019-07-28T12:56:26Z</time>
      </trkpt>
      <trkpt lat="44.79256" lon="4.12668">
        <ele>1042.69</ele>
        <time>2019-07-28T12:56:49Z</time>
      </trkpt>
      <trkpt lat="44.79255" lon="4.12669">
        <ele>1043.17</ele>
        <time>2019-07-28T12:57:13Z</time>
      </trkpt>
      <trkpt lat="44.79256" lon="4.1267">
        <ele>1043.17</ele>
        <time>2019-07-28T12:57:36Z</time>
      </trkpt>
      <trkpt lat="44.79255" lon="4.1267">
        <ele>1042.69</ele>
        <time>2019-07-28T12:58:03Z</time>
      </trkpt>
      <trkpt lat="44.79257" lon="4.12682">
        <ele>1044.13</ele>
        <time>2019-07-28T12:58:21Z</time>
      </trkpt>
      <trkpt lat="44.79256" lon="4.1269">
        <ele>1043.65</ele>
        <time>2019-07-28T12:58:38Z</time>
      </trkpt>
      <trkpt lat="44.79251" lon="4.12696">
        <ele>1052.3</ele>
        <time>2019-07-28T12:59:53Z</time>
      </trkpt>
      <trkpt lat="44.79252" lon="4.12692">
        <ele>1052.78</ele>
        <time>2019-07-28T13:00:00Z</time>
      </trkpt>
      <trkpt lat="44.79241" lon="4.12685">
        <ele>1054.22</ele>
        <time>2019-07-28T13:00:19Z</time>
      </trkpt>
      <trkpt lat="44.7925" lon="4.12693">
        <ele>1047.01</ele>
        <time>2019-07-28T13:00:40Z</time>
      </trkpt>
      <trkpt lat="44.79238" lon="4.12697">
        <ele>1043.65</ele>
        <time>2019-07-28T13:01:02Z</time>
      </trkpt>
      <trkpt lat="44.79231" lon="4.12694">
        <ele>1042.21</ele>
        <time>2019-07-28T13:01:21Z</time>
      </trkpt>
      <trkpt lat="44.79227" lon="4.12688">
        <ele>1041.25</ele>
        <time>2019-07-28T13:01:40Z</time>
      </trkpt>
      <trkpt lat="44.79229" lon="4.12687">
        <ele>1040.28</ele>
        <time>2019-07-28T13:02:03Z</time>
      </trkpt>
      <trkpt lat="44.79232" lon="4.12686">
        <ele>1040.76</ele>
        <time>2019-07-28T13:02:27Z</time>
      </trkpt>
      <trkpt lat="44.79229" lon="4.12681">
        <ele>1040.28</ele>
        <time>2019-07-28T13:02:48Z</time>
      </trkpt>
      <trkpt lat="44.79228" lon="4.1268">
        <ele>1040.28</ele>
        <time>2019-07-28T13:02:50Z</time>
      </trkpt>
      <trkpt lat="44.79222" lon="4.12669">
        <ele>1040.76</ele>
        <time>2019-07-28T13:02:59Z</time>
      </trkpt>
      <trkpt lat="44.79217" lon="4.12655">
        <ele>1041.25</ele>
        <time>2019-07-28T13:03:17Z</time>
      </trkpt>
      <trkpt lat="44.79204" lon="4.1264">
        <ele>1039.8</ele>
        <time>2019-07-28T13:03:37Z</time>
      </trkpt>
      <trkpt lat="44.79203" lon="4.1263">
        <ele>1038.84</ele>
        <time>2019-07-28T13:03:55Z</time>
      </trkpt>
      <trkpt lat="44.79201" lon="4.12628">
        <ele>1038.36</ele>
        <time>2019-07-28T13:04:11Z</time>
      </trkpt>
      <trkpt lat="44.79197" lon="4.12632">
        <ele>1037.88</ele>
        <time>2019-07-28T13:04:26Z</time>
      </trkpt>
      <trkpt lat="44.79194" lon="4.12626">
        <ele>1037.4</ele>
        <time>2019-07-28T13:04:31Z</time>
      </trkpt>
      <trkpt lat="44.79185" lon="4.12601">
        <ele>1042.69</ele>
        <time>2019-07-28T13:04:46Z</time>
      </trkpt>
      <trkpt lat="44.79183" lon="4.12587">
        <ele>1041.73</ele>
        <time>2019-07-28T13:04:54Z</time>
      </trkpt>
      <trkpt lat="44.79181" lon="4.12581">
        <ele>1042.21</ele>
        <time>2019-07-28T13:05:06Z</time>
      </trkpt>
      <trkpt lat="44.79183" lon="4.1258">
        <ele>1041.25</ele>
        <time>2019-07-28T13:05:22Z</time>
      </trkpt>
      <trkpt lat="44.79183" lon="4.12583">
        <ele>1040.76</ele>
        <time>2019-07-28T13:05:39Z</time>
      </trkpt>
      <trkpt lat="44.79183" lon="4.12582">
        <ele>1041.25</ele>
        <time>2019-07-28T13:06:19Z</time>
      </trkpt>
      <trkpt lat="44.79182" lon="4.12582">
        <ele>1040.76</ele>
        <time>2019-07-28T13:06:38Z</time>
      </trkpt>
      <trkpt lat="44.79181" lon="4.12582">
        <ele>1040.76</ele>
        <time>2019-07-28T13:07:02Z</time>
      </trkpt>
      <trkpt lat="44.79181" lon="4.12581">
        <ele>1042.21</ele>
        <time>2019-07-28T13:07:47Z</time>
      </trkpt>
      <trkpt lat="44.79183" lon="4.1258">
        <ele>1042.21</ele>
        <time>2019-07-28T13:08:08Z</time>
      </trkpt>
      <trkpt lat="44.79184" lon="4.12578">
        <ele>1042.21</ele>
        <time>2019-07-28T13:08:11Z</time>
      </trkpt>
      <trkpt lat="44.79184" lon="4.12574">
        <ele>1043.17</ele>
        <time>2019-07-28T13:08:14Z</time>
      </trkpt>
      <trkpt lat="44.79178" lon="4.12548">
        <ele>1045.09</ele>
        <time>2019-07-28T13:08:31Z</time>
      </trkpt>
      <trkpt lat="44.79175" lon="4.12522">
        <ele>1047.49</ele>
        <time>2019-07-28T13:08:53Z</time>
      </trkpt>
      <trkpt lat="44.79182" lon="4.12483">
        <ele>1048.45</ele>
        <time>2019-07-28T13:09:15Z</time>
      </trkpt>
      <trkpt lat="44.79181" lon="4.12477">
        <ele>1048.45</ele>
        <time>2019-07-28T13:09:19Z</time>
      </trkpt>
      <trkpt lat="44.79183" lon="4.12467">
        <ele>1049.42</ele>
        <time>2019-07-28T13:09:23Z</time>
      </trkpt>
      <trkpt lat="44.79184" lon="4.12463">
        <ele>1049.42</ele>
        <time>2019-07-28T13:09:25Z</time>
      </trkpt>
      <trkpt lat="44.79194" lon="4.12444">
        <ele>1054.22</ele>
        <time>2019-07-28T13:09:38Z</time>
      </trkpt>
      <trkpt lat="44.79198" lon="4.12428">
        <ele>1053.74</ele>
        <time>2019-07-28T13:09:50Z</time>
      </trkpt>
      <trkpt lat="44.79201" lon="4.12412">
        <ele>1054.7</ele>
        <time>2019-07-28T13:09:59Z</time>
      </trkpt>
      <trkpt lat="44.792" lon="4.12395">
        <ele>1053.74</ele>
        <time>2019-07-28T13:10:09Z</time>
      </trkpt>
      <trkpt lat="44.79191" lon="4.12381">
        <ele>1049.42</ele>
        <time>2019-07-28T13:10:26Z</time>
      </trkpt>
      <trkpt lat="44.79183" lon="4.12401">
        <ele>1045.57</ele>
        <time>2019-07-28T13:10:44Z</time>
      </trkpt>
      <trkpt lat="44.79176" lon="4.12417">
        <ele>1044.13</ele>
        <time>2019-07-28T13:11:03Z</time>
      </trkpt>
      <trkpt lat="44.79171" lon="4.1239">
        <ele>1043.17</ele>
        <time>2019-07-28T13:11:28Z</time>
      </trkpt>
      <trkpt lat="44.79163" lon="4.12364">
        <ele>1049.42</ele>
        <time>2019-07-28T13:11:51Z</time>
      </trkpt>
      <trkpt lat="44.79154" lon="4.12352">
        <ele>1053.26</ele>
        <time>2019-07-28T13:12:12Z</time>
      </trkpt>
      <trkpt lat="44.79146" lon="4.12314">
        <ele>1056.63</ele>
        <time>2019-07-28T13:12:33Z</time>
      </trkpt>
      <trkpt lat="44.79146" lon="4.12281">
        <ele>1062.87</ele>
        <time>2019-07-28T13:12:52Z</time>
      </trkpt>
      <trkpt lat="44.79139" lon="4.1227">
        <ele>1067.2</ele>
        <time>2019-07-28T13:13:02Z</time>
      </trkpt>
      <trkpt lat="44.79114" lon="4.12255">
        <ele>1069.12</ele>
        <time>2019-07-28T13:13:25Z</time>
      </trkpt>
      <trkpt lat="44.79112" lon="4.12244">
        <ele>1074.89</ele>
        <time>2019-07-28T13:13:45Z</time>
      </trkpt>
      <trkpt lat="44.79103" lon="4.12228">
        <ele>1077.78</ele>
        <time>2019-07-28T13:14:03Z</time>
      </trkpt>
      <trkpt lat="44.7909" lon="4.12203">
        <ele>1090.27</ele>
        <time>2019-07-28T13:14:24Z</time>
      </trkpt>
      <trkpt lat="44.79077" lon="4.12186">
        <ele>1091.71</ele>
        <time>2019-07-28T13:14:46Z</time>
      </trkpt>
      <trkpt lat="44.79075" lon="4.12184">
        <ele>1091.71</ele>
        <time>2019-07-28T13:14:48Z</time>
      </trkpt>
      <trkpt lat="44.79047" lon="4.12162">
        <ele>1090.75</ele>
        <time>2019-07-28T13:15:15Z</time>
      </trkpt>
      <trkpt lat="44.79039" lon="4.12143">
        <ele>1107.58</ele>
        <time>2019-07-28T13:15:35Z</time>
      </trkpt>
      <trkpt lat="44.79037" lon="4.12139">
        <ele>1108.06</ele>
        <time>2019-07-28T13:15:58Z</time>
      </trkpt>
      <trkpt lat="44.79034" lon="4.12125">
        <ele>1107.58</ele>
        <time>2019-07-28T13:16:16Z</time>
      </trkpt>
      <trkpt lat="44.79025" lon="4.12109">
        <ele>1108.06</ele>
        <time>2019-07-28T13:16:32Z</time>
      </trkpt>
      <trkpt lat="44.79016" lon="4.12098">
        <ele>1109.02</ele>
        <time>2019-07-28T13:16:45Z</time>
      </trkpt>
      <trkpt lat="44.79008" lon="4.12087">
        <ele>1109.98</ele>
        <time>2019-07-28T13:17:03Z</time>
      </trkpt>
      <trkpt lat="44.79" lon="4.12073">
        <ele>1110.46</ele>
        <time>2019-07-28T13:17:17Z</time>
      </trkpt>
      <trkpt lat="44.78984" lon="4.12049">
        <ele>1112.38</ele>
        <time>2019-07-28T13:17:34Z</time>
      </trkpt>
      <trkpt lat="44.78981" lon="4.12046">
        <ele>1114.31</ele>
        <time>2019-07-28T13:17:48Z</time>
      </trkpt>
      <trkpt lat="44.7897" lon="4.12025">
        <ele>1118.63</ele>
        <time>2019-07-28T13:18:05Z</time>
      </trkpt>
      <trkpt lat="44.7896" lon="4.12009">
        <ele>1123.44</ele>
        <time>2019-07-28T13:18:20Z</time>
      </trkpt>
      <trkpt lat="44.78955" lon="4.12008">
        <ele>1124.4</ele>
        <time>2019-07-28T13:18:34Z</time>
      </trkpt>
      <trkpt lat="44.78954" lon="4.12002">
        <ele>1125.36</ele>
        <time>2019-07-28T13:18:44Z</time>
      </trkpt>
      <trkpt lat="44.78947" lon="4.11988">
        <ele>1127.28</ele>
        <time>2019-07-28T13:18:58Z</time>
      </trkpt>
      <trkpt lat="44.78941" lon="4.11971">
        <ele>1130.17</ele>
        <time>2019-07-28T13:19:15Z</time>
      </trkpt>
      <trkpt lat="44.78933" lon="4.11957">
        <ele>1133.53</ele>
        <time>2019-07-28T13:19:31Z</time>
      </trkpt>
      <trkpt lat="44.78926" lon="4.11942">
        <ele>1134.49</ele>
        <time>2019-07-28T13:19:45Z</time>
      </trkpt>
      <trkpt lat="44.78922" lon="4.11937">
        <ele>1135.45</ele>
        <time>2019-07-28T13:19:49Z</time>
      </trkpt>
      <trkpt lat="44.78912" lon="4.11921">
        <ele>1137.38</ele>
        <time>2019-07-28T13:20:08Z</time>
      </trkpt>
      <trkpt lat="44.78907" lon="4.11918">
        <ele>1139.78</ele>
        <time>2019-07-28T13:20:17Z</time>
      </trkpt>
      <trkpt lat="44.78902" lon="4.1191">
        <ele>1142.18</ele>
        <time>2019-07-28T13:20:30Z</time>
      </trkpt>
      <trkpt lat="44.78895" lon="4.11896">
        <ele>1145.07</ele>
        <time>2019-07-28T13:20:40Z</time>
      </trkpt>
      <trkpt lat="44.78887" lon="4.11879">
        <ele>1149.87</ele>
        <time>2019-07-28T13:20:52Z</time>
      </trkpt>
      <trkpt lat="44.78878" lon="4.11869">
        <ele>1153.24</ele>
        <time>2019-07-28T13:21:03Z</time>
      </trkpt>
      <trkpt lat="44.78876" lon="4.11865">
        <ele>1155.16</ele>
        <time>2019-07-28T13:21:08Z</time>
      </trkpt>
      <trkpt lat="44.78863" lon="4.11853">
        <ele>1160.45</ele>
        <time>2019-07-28T13:21:23Z</time>
      </trkpt>
      <trkpt lat="44.78854" lon="4.11845">
        <ele>1165.26</ele>
        <time>2019-07-28T13:21:36Z</time>
      </trkpt>
      <trkpt lat="44.78843" lon="4.11833">
        <ele>1172.47</ele>
        <time>2019-07-28T13:21:50Z</time>
      </trkpt>
      <trkpt lat="44.78836" lon="4.1182">
        <ele>1178.23</ele>
        <time>2019-07-28T13:22:06Z</time>
      </trkpt>
      <trkpt lat="44.78823" lon="4.11805">
        <ele>1180.64</ele>
        <time>2019-07-28T13:22:21Z</time>
      </trkpt>
      <trkpt lat="44.78818" lon="4.11801">
        <ele>1177.75</ele>
        <time>2019-07-28T13:22:37Z</time>
      </trkpt>
      <trkpt lat="44.78812" lon="4.11798">
        <ele>1177.27</ele>
        <time>2019-07-28T13:22:50Z</time>
      </trkpt>
      <trkpt lat="44.78802" lon="4.11788">
        <ele>1179.19</ele>
        <time>2019-07-28T13:23:02Z</time>
      </trkpt>
      <trkpt lat="44.78796" lon="4.11775">
        <ele>1181.12</ele>
        <time>2019-07-28T13:23:12Z</time>
      </trkpt>
      <trkpt lat="44.78789" lon="4.11767">
        <ele>1182.56</ele>
        <time>2019-07-28T13:23:19Z</time>
      </trkpt>
      <trkpt lat="44.78785" lon="4.11762">
        <ele>1181.6</ele>
        <time>2019-07-28T13:23:32Z</time>
      </trkpt>
      <trkpt lat="44.78783" lon="4.1176">
        <ele>1179.19</ele>
        <time>2019-07-28T13:23:48Z</time>
      </trkpt>
      <trkpt lat="44.78782" lon="4.1176">
        <ele>1178.23</ele>
        <time>2019-07-28T13:24:03Z</time>
      </trkpt>
      <trkpt lat="44.78781" lon="4.1176">
        <ele>1176.79</ele>
        <time>2019-07-28T13:24:20Z</time>
      </trkpt>
      <trkpt lat="44.78778" lon="4.11753">
        <ele>1174.87</ele>
        <time>2019-07-28T13:24:31Z</time>
      </trkpt>
      <trkpt lat="44.78778" lon="4.1175">
        <ele>1174.87</ele>
        <time>2019-07-28T13:24:34Z</time>
      </trkpt>
      <trkpt lat="44.7877" lon="4.11736">
        <ele>1175.35</ele>
        <time>2019-07-28T13:24:46Z</time>
      </trkpt>
      <trkpt lat="44.78767" lon="4.11726">
        <ele>1175.83</ele>
        <time>2019-07-28T13:24:54Z</time>
      </trkpt>
      <trkpt lat="44.78767" lon="4.11725">
        <ele>1175.83</ele>
        <time>2019-07-28T13:24:56Z</time>
      </trkpt>
      <trkpt lat="44.78762" lon="4.11715">
        <ele>1176.79</ele>
        <time>2019-07-28T13:25:05Z</time>
      </trkpt>
      <trkpt lat="44.78758" lon="4.11703">
        <ele>1176.79</ele>
        <time>2019-07-28T13:25:14Z</time>
      </trkpt>
      <trkpt lat="44.78757" lon="4.11701">
        <ele>1176.79</ele>
        <time>2019-07-28T13:25:16Z</time>
      </trkpt>
      <trkpt lat="44.78756" lon="4.11695">
        <ele>1176.79</ele>
        <time>2019-07-28T13:25:22Z</time>
      </trkpt>
      <trkpt lat="44.78754" lon="4.11689">
        <ele>1176.79</ele>
        <time>2019-07-28T13:25:27Z</time>
      </trkpt>
      <trkpt lat="44.78747" lon="4.11676">
        <ele>1176.31</ele>
        <time>2019-07-28T13:25:38Z</time>
      </trkpt>
      <trkpt lat="44.78739" lon="4.11664">
        <ele>1177.27</ele>
        <time>2019-07-28T13:25:51Z</time>
      </trkpt>
      <trkpt lat="44.78738" lon="4.11659">
        <ele>1177.27</ele>
        <time>2019-07-28T13:25:55Z</time>
      </trkpt>
      <trkpt lat="44.78736" lon="4.11641">
        <ele>1175.83</ele>
        <time>2019-07-28T13:26:07Z</time>
      </trkpt>
      <trkpt lat="44.78736" lon="4.11636">
        <ele>1175.35</ele>
        <time>2019-07-28T13:26:11Z</time>
      </trkpt>
      <trkpt lat="44.78736" lon="4.11633">
        <ele>1173.91</ele>
        <time>2019-07-28T13:26:21Z</time>
      </trkpt>
      <trkpt lat="44.78734" lon="4.11632">
        <ele>1171.98</ele>
        <time>2019-07-28T13:26:32Z</time>
      </trkpt>
      <trkpt lat="44.78732" lon="4.11629">
        <ele>1171.02</ele>
        <time>2019-07-28T13:26:35Z</time>
      </trkpt>
      <trkpt lat="44.78727" lon="4.11621">
        <ele>1169.58</ele>
        <time>2019-07-28T13:26:48Z</time>
      </trkpt>
      <trkpt lat="44.78721" lon="4.11611">
        <ele>1168.14</ele>
        <time>2019-07-28T13:27:00Z</time>
      </trkpt>
      <trkpt lat="44.78721" lon="4.1161">
        <ele>1168.62</ele>
        <time>2019-07-28T13:27:40Z</time>
      </trkpt>
      <trkpt lat="44.78721" lon="4.11609">
        <ele>1168.62</ele>
        <time>2019-07-28T13:27:55Z</time>
      </trkpt>
      <trkpt lat="44.78721" lon="4.11608">
        <ele>1168.62</ele>
        <time>2019-07-28T13:28:15Z</time>
      </trkpt>
      <trkpt lat="44.78712" lon="4.11591">
        <ele>1165.26</ele>
        <time>2019-07-28T13:28:45Z</time>
      </trkpt>
      <trkpt lat="44.78712" lon="4.11588">
        <ele>1164.77</ele>
        <time>2019-07-28T13:28:47Z</time>
      </trkpt>
      <trkpt lat="44.78693" lon="4.11562">
        <ele>1162.85</ele>
        <time>2019-07-28T13:28:59Z</time>
      </trkpt>
      <trkpt lat="44.7869" lon="4.11563">
        <ele>1161.89</ele>
        <time>2019-07-28T13:29:03Z</time>
      </trkpt>
      <trkpt lat="44.78685" lon="4.11571">
        <ele>1160.45</ele>
        <time>2019-07-28T13:29:09Z</time>
      </trkpt>
      <trkpt lat="44.78681" lon="4.11581">
        <ele>1159.01</ele>
        <time>2019-07-28T13:29:18Z</time>
      </trkpt>
      <trkpt lat="44.78679" lon="4.11584">
        <ele>1158.05</ele>
        <time>2019-07-28T13:29:23Z</time>
      </trkpt>
      <trkpt lat="44.78678" lon="4.11587">
        <ele>1157.08</ele>
        <time>2019-07-28T13:29:28Z</time>
      </trkpt>
      <trkpt lat="44.78675" lon="4.11591">
        <ele>1156.6</ele>
        <time>2019-07-28T13:29:32Z</time>
      </trkpt>
      <trkpt lat="44.78672" lon="4.11595">
        <ele>1156.6</ele>
        <time>2019-07-28T13:29:38Z</time>
      </trkpt>
      <trkpt lat="44.78662" lon="4.1161">
        <ele>1156.12</ele>
        <time>2019-07-28T13:29:48Z</time>
      </trkpt>
      <trkpt lat="44.78657" lon="4.1162">
        <ele>1156.12</ele>
        <time>2019-07-28T13:29:56Z</time>
      </trkpt>
      <trkpt lat="44.7865" lon="4.11629">
        <ele>1155.64</ele>
        <time>2019-07-28T13:30:04Z</time>
      </trkpt>
      <trkpt lat="44.78642" lon="4.11642">
        <ele>1156.6</ele>
        <time>2019-07-28T13:30:14Z</time>
      </trkpt>
      <trkpt lat="44.78634" lon="4.11648">
        <ele>1157.56</ele>
        <time>2019-07-28T13:30:21Z</time>
      </trkpt>
      <trkpt lat="44.78627" lon="4.11648">
        <ele>1158.05</ele>
        <time>2019-07-28T13:30:26Z</time>
      </trkpt>
      <trkpt lat="44.78617" lon="4.11647">
        <ele>1159.01</ele>
        <time>2019-07-28T13:30:31Z</time>
      </trkpt>
      <trkpt lat="44.78609" lon="4.11645">
        <ele>1158.53</ele>
        <time>2019-07-28T13:30:39Z</time>
      </trkpt>
      <trkpt lat="44.78595" lon="4.11644">
        <ele>1156.6</ele>
        <time>2019-07-28T13:30:52Z</time>
      </trkpt>
      <trkpt lat="44.78583" lon="4.11643">
        <ele>1156.12</ele>
        <time>2019-07-28T13:31:07Z</time>
      </trkpt>
      <trkpt lat="44.78571" lon="4.11635">
        <ele>1154.2</ele>
        <time>2019-07-28T13:31:20Z</time>
      </trkpt>
      <trkpt lat="44.78565" lon="4.11624">
        <ele>1153.72</ele>
        <time>2019-07-28T13:31:38Z</time>
      </trkpt>
      <trkpt lat="44.78561" lon="4.11623">
        <ele>1153.72</ele>
        <time>2019-07-28T13:31:43Z</time>
      </trkpt>
      <trkpt lat="44.78537" lon="4.11615">
        <ele>1152.28</ele>
        <time>2019-07-28T13:32:07Z</time>
      </trkpt>
      <trkpt lat="44.78517" lon="4.11615">
        <ele>1151.32</ele>
        <time>2019-07-28T13:32:32Z</time>
      </trkpt>
      <trkpt lat="44.78509" lon="4.1161">
        <ele>1151.32</ele>
        <time>2019-07-28T13:32:54Z</time>
      </trkpt>
      <trkpt lat="44.78509" lon="4.11601">
        <ele>1151.32</ele>
        <time>2019-07-28T13:33:08Z</time>
      </trkpt>
      <trkpt lat="44.78501" lon="4.11588">
        <ele>1150.35</ele>
        <time>2019-07-28T13:33:17Z</time>
      </trkpt>
      <trkpt lat="44.7849" lon="4.11576">
        <ele>1149.87</ele>
        <time>2019-07-28T13:33:27Z</time>
      </trkpt>
      <trkpt lat="44.78462" lon="4.11547">
        <ele>1151.8</ele>
        <time>2019-07-28T13:33:47Z</time>
      </trkpt>
      <trkpt lat="44.78437" lon="4.11536">
        <ele>1147.95</ele>
        <time>2019-07-28T13:34:07Z</time>
      </trkpt>
      <trkpt lat="44.78409" lon="4.11526">
        <ele>1139.78</ele>
        <time>2019-07-28T13:34:25Z</time>
      </trkpt>
      <trkpt lat="44.78383" lon="4.11517">
        <ele>1132.09</ele>
        <time>2019-07-28T13:34:43Z</time>
      </trkpt>
      <trkpt lat="44.7837" lon="4.11489">
        <ele>1127.28</ele>
        <time>2019-07-28T13:35:03Z</time>
      </trkpt>
      <trkpt lat="44.78368" lon="4.11485">
        <ele>1125.36</ele>
        <time>2019-07-28T13:35:09Z</time>
      </trkpt>
      <trkpt lat="44.78362" lon="4.11488">
        <ele>1120.07</ele>
        <time>2019-07-28T13:35:30Z</time>
      </trkpt>
      <trkpt lat="44.7835" lon="4.11466">
        <ele>1116.23</ele>
        <time>2019-07-28T13:35:45Z</time>
      </trkpt>
      <trkpt lat="44.7833" lon="4.11426">
        <ele>1113.82</ele>
        <time>2019-07-28T13:36:04Z</time>
      </trkpt>
      <trkpt lat="44.78311" lon="4.11404">
        <ele>1109.98</ele>
        <time>2019-07-28T13:36:20Z</time>
      </trkpt>
      <trkpt lat="44.78298" lon="4.11382">
        <ele>1108.54</ele>
        <time>2019-07-28T13:36:41Z</time>
      </trkpt>
      <trkpt lat="44.78291" lon="4.11356">
        <ele>1106.13</ele>
        <time>2019-07-28T13:37:00Z</time>
      </trkpt>
      <trkpt lat="44.78281" lon="4.11328">
        <ele>1101.81</ele>
        <time>2019-07-28T13:37:18Z</time>
      </trkpt>
      <trkpt lat="44.78273" lon="4.11302">
        <ele>1097.48</ele>
        <time>2019-07-28T13:37:35Z</time>
      </trkpt>
      <trkpt lat="44.78273" lon="4.11294">
        <ele>1096.04</ele>
        <time>2019-07-28T13:37:40Z</time>
      </trkpt>
      <trkpt lat="44.78265" lon="4.11255">
        <ele>1087.87</ele>
        <time>2019-07-28T13:38:00Z</time>
      </trkpt>
      <trkpt lat="44.7826" lon="4.11226">
        <ele>1081.14</ele>
        <time>2019-07-28T13:38:17Z</time>
      </trkpt>
      <trkpt lat="44.78252" lon="4.11198">
        <ele>1076.33</ele>
        <time>2019-07-28T13:38:33Z</time>
      </trkpt>
      <trkpt lat="44.78251" lon="4.11194">
        <ele>1075.85</ele>
        <time>2019-07-28T13:38:35Z</time>
      </trkpt>
      <trkpt lat="44.78242" lon="4.11182">
        <ele>1072.01</ele>
        <time>2019-07-28T13:38:53Z</time>
      </trkpt>
      <trkpt lat="44.78236" lon="4.11182">
        <ele>1069.12</ele>
        <time>2019-07-28T13:39:14Z</time>
      </trkpt>
      <trkpt lat="44.78229" lon="4.11155">
        <ele>1060.95</ele>
        <time>2019-07-28T13:39:33Z</time>
      </trkpt>
      <trkpt lat="44.78226" lon="4.11127">
        <ele>1054.22</ele>
        <time>2019-07-28T13:39:51Z</time>
      </trkpt>
      <trkpt lat="44.78222" lon="4.11115">
        <ele>1054.22</ele>
        <time>2019-07-28T13:40:09Z</time>
      </trkpt>
      <trkpt lat="44.78222" lon="4.11104">
        <ele>1051.82</ele>
        <time>2019-07-28T13:40:26Z</time>
      </trkpt>
      <trkpt lat="44.78222" lon="4.11102">
        <ele>1051.34</ele>
        <time>2019-07-28T13:40:27Z</time>
      </trkpt>
      <trkpt lat="44.78225" lon="4.11073">
        <ele>1042.69</ele>
        <time>2019-07-28T13:40:47Z</time>
      </trkpt>
      <trkpt lat="44.78229" lon="4.11036">
        <ele>1037.88</ele>
        <time>2019-07-28T13:41:03Z</time>
      </trkpt>
      <trkpt lat="44.78232" lon="4.10996">
        <ele>1035</ele>
        <time>2019-07-28T13:41:22Z</time>
      </trkpt>
      <trkpt lat="44.78219" lon="4.10964">
        <ele>1032.59</ele>
        <time>2019-07-28T13:41:41Z</time>
      </trkpt>
      <trkpt lat="44.78215" lon="4.10963">
        <ele>1031.15</ele>
        <time>2019-07-28T13:41:59Z</time>
      </trkpt>
      <trkpt lat="44.78213" lon="4.10946">
        <ele>1028.75</ele>
        <time>2019-07-28T13:42:17Z</time>
      </trkpt>
      <trkpt lat="44.78207" lon="4.10902">
        <ele>1026.34</ele>
        <time>2019-07-28T13:42:37Z</time>
      </trkpt>
      <trkpt lat="44.78205" lon="4.10897">
        <ele>1026.83</ele>
        <time>2019-07-28T13:42:38Z</time>
      </trkpt>
      <trkpt lat="44.78203" lon="4.10879">
        <ele>1028.75</ele>
        <time>2019-07-28T13:42:48Z</time>
      </trkpt>
      <trkpt lat="44.78202" lon="4.10871">
        <ele>1029.71</ele>
        <time>2019-07-28T13:42:56Z</time>
      </trkpt>
      <trkpt lat="44.78202" lon="4.10853">
        <ele>1031.63</ele>
        <time>2019-07-28T13:43:06Z</time>
      </trkpt>
      <trkpt lat="44.782" lon="4.10838">
        <ele>1031.63</ele>
        <time>2019-07-28T13:43:15Z</time>
      </trkpt>
      <trkpt lat="44.78201" lon="4.10818">
        <ele>1030.19</ele>
        <time>2019-07-28T13:43:25Z</time>
      </trkpt>
      <trkpt lat="44.782" lon="4.10796">
        <ele>1029.23</ele>
        <time>2019-07-28T13:43:36Z</time>
      </trkpt>
      <trkpt lat="44.782" lon="4.10793">
        <ele>1029.23</ele>
        <time>2019-07-28T13:43:40Z</time>
      </trkpt>
      <trkpt lat="44.78199" lon="4.1078">
        <ele>1030.19</ele>
        <time>2019-07-28T13:43:47Z</time>
      </trkpt>
      <trkpt lat="44.78198" lon="4.10768">
        <ele>1030.67</ele>
        <time>2019-07-28T13:43:54Z</time>
      </trkpt>
      <trkpt lat="44.78197" lon="4.10747">
        <ele>1030.19</ele>
        <time>2019-07-28T13:44:05Z</time>
      </trkpt>
      <trkpt lat="44.78196" lon="4.10739">
        <ele>1029.23</ele>
        <time>2019-07-28T13:44:11Z</time>
      </trkpt>
      <trkpt lat="44.78195" lon="4.10718">
        <ele>1028.27</ele>
        <time>2019-07-28T13:44:22Z</time>
      </trkpt>
      <trkpt lat="44.78195" lon="4.10704">
        <ele>1028.27</ele>
        <time>2019-07-28T13:44:30Z</time>
      </trkpt>
      <trkpt lat="44.78196" lon="4.10683">
        <ele>1028.75</ele>
        <time>2019-07-28T13:44:42Z</time>
      </trkpt>
      <trkpt lat="44.78197" lon="4.10677">
        <ele>1028.75</ele>
        <time>2019-07-28T13:44:45Z</time>
      </trkpt>
      <trkpt lat="44.78195" lon="4.10665">
        <ele>1028.75</ele>
        <time>2019-07-28T13:44:53Z</time>
      </trkpt>
      <trkpt lat="44.78194" lon="4.10654">
        <ele>1028.75</ele>
        <time>2019-07-28T13:45:01Z</time>
      </trkpt>
      <trkpt lat="44.78192" lon="4.10633">
        <ele>1029.23</ele>
        <time>2019-07-28T13:45:12Z</time>
      </trkpt>
      <trkpt lat="44.78191" lon="4.10618">
        <ele>1029.23</ele>
        <time>2019-07-28T13:45:20Z</time>
      </trkpt>
      <trkpt lat="44.7819" lon="4.106">
        <ele>1029.71</ele>
        <time>2019-07-28T13:45:30Z</time>
      </trkpt>
      <trkpt lat="44.7819" lon="4.10593">
        <ele>1029.71</ele>
        <time>2019-07-28T13:45:34Z</time>
      </trkpt>
      <trkpt lat="44.78191" lon="4.10591">
        <ele>1029.71</ele>
        <time>2019-07-28T13:45:36Z</time>
      </trkpt>
      <trkpt lat="44.78188" lon="4.10569">
        <ele>1029.23</ele>
        <time>2019-07-28T13:45:48Z</time>
      </trkpt>
      <trkpt lat="44.78186" lon="4.10554">
        <ele>1029.23</ele>
        <time>2019-07-28T13:45:58Z</time>
      </trkpt>
      <trkpt lat="44.78186" lon="4.10549">
        <ele>1029.23</ele>
        <time>2019-07-28T13:46:02Z</time>
      </trkpt>
      <trkpt lat="44.78186" lon="4.10534">
        <ele>1028.75</ele>
        <time>2019-07-28T13:46:11Z</time>
      </trkpt>
      <trkpt lat="44.78184" lon="4.10518">
        <ele>1028.27</ele>
        <time>2019-07-28T13:46:20Z</time>
      </trkpt>
      <trkpt lat="44.78182" lon="4.10501">
        <ele>1029.23</ele>
        <time>2019-07-28T13:46:30Z</time>
      </trkpt>
      <trkpt lat="44.78182" lon="4.10494">
        <ele>1028.27</ele>
        <time>2019-07-28T13:46:35Z</time>
      </trkpt>
      <trkpt lat="44.78184" lon="4.10492">
        <ele>1027.79</ele>
        <time>2019-07-28T13:46:38Z</time>
      </trkpt>
      <trkpt lat="44.78196" lon="4.10483">
        <ele>1027.31</ele>
        <time>2019-07-28T13:46:51Z</time>
      </trkpt>
      <trkpt lat="44.78205" lon="4.10479">
        <ele>1027.31</ele>
        <time>2019-07-28T13:47:00Z</time>
      </trkpt>
      <trkpt lat="44.78215" lon="4.10471">
        <ele>1027.31</ele>
        <time>2019-07-28T13:47:10Z</time>
      </trkpt>
      <trkpt lat="44.78215" lon="4.1047">
        <ele>1027.31</ele>
        <time>2019-07-28T13:47:12Z</time>
      </trkpt>
      <trkpt lat="44.78228" lon="4.1046">
        <ele>1026.83</ele>
        <time>2019-07-28T13:47:22Z</time>
      </trkpt>
      <trkpt lat="44.78238" lon="4.10453">
        <ele>1026.83</ele>
        <time>2019-07-28T13:47:31Z</time>
      </trkpt>
      <trkpt lat="44.78248" lon="4.10446">
        <ele>1027.79</ele>
        <time>2019-07-28T13:47:41Z</time>
      </trkpt>
      <trkpt lat="44.78262" lon="4.10437">
        <ele>1027.31</ele>
        <time>2019-07-28T13:47:51Z</time>
      </trkpt>
      <trkpt lat="44.78274" lon="4.10432">
        <ele>1027.79</ele>
        <time>2019-07-28T13:48:00Z</time>
      </trkpt>
      <trkpt lat="44.78283" lon="4.10426">
        <ele>1026.83</ele>
        <time>2019-07-28T13:48:09Z</time>
      </trkpt>
      <trkpt lat="44.78293" lon="4.10421">
        <ele>1027.31</ele>
        <time>2019-07-28T13:48:18Z</time>
      </trkpt>
      <trkpt lat="44.78303" lon="4.10415">
        <ele>1027.31</ele>
        <time>2019-07-28T13:48:27Z</time>
      </trkpt>
      <trkpt lat="44.78315" lon="4.1041">
        <ele>1026.83</ele>
        <time>2019-07-28T13:48:35Z</time>
      </trkpt>
      <trkpt lat="44.78315" lon="4.10409">
        <ele>1026.83</ele>
        <time>2019-07-28T13:48:37Z</time>
      </trkpt>
      <trkpt lat="44.78328" lon="4.10402">
        <ele>1026.34</ele>
        <time>2019-07-28T13:48:47Z</time>
      </trkpt>
      <trkpt lat="44.78337" lon="4.10394">
        <ele>1026.34</ele>
        <time>2019-07-28T13:48:55Z</time>
      </trkpt>
      <trkpt lat="44.78349" lon="4.10387">
        <ele>1025.38</ele>
        <time>2019-07-28T13:49:06Z</time>
      </trkpt>
      <trkpt lat="44.78359" lon="4.10383">
        <ele>1025.38</ele>
        <time>2019-07-28T13:49:15Z</time>
      </trkpt>
      <trkpt lat="44.7837" lon="4.10378">
        <ele>1024.9</ele>
        <time>2019-07-28T13:49:24Z</time>
      </trkpt>
      <trkpt lat="44.78381" lon="4.10375">
        <ele>1025.86</ele>
        <time>2019-07-28T13:49:32Z</time>
      </trkpt>
      <trkpt lat="44.78392" lon="4.1037">
        <ele>1026.34</ele>
        <time>2019-07-28T13:49:41Z</time>
      </trkpt>
      <trkpt lat="44.78392" lon="4.10369">
        <ele>1026.34</ele>
        <time>2019-07-28T13:49:43Z</time>
      </trkpt>
      <trkpt lat="44.78407" lon="4.1036">
        <ele>1024.9</ele>
        <time>2019-07-28T13:49:53Z</time>
      </trkpt>
      <trkpt lat="44.78418" lon="4.10354">
        <ele>1023.46</ele>
        <time>2019-07-28T13:50:01Z</time>
      </trkpt>
      <trkpt lat="44.78429" lon="4.1035">
        <ele>1022.02</ele>
        <time>2019-07-28T13:50:10Z</time>
      </trkpt>
      <trkpt lat="44.7844" lon="4.1035">
        <ele>1022.5</ele>
        <time>2019-07-28T13:50:18Z</time>
      </trkpt>
      <trkpt lat="44.78445" lon="4.1035">
        <ele>1022.5</ele>
        <time>2019-07-28T13:50:22Z</time>
      </trkpt>
      <trkpt lat="44.78452" lon="4.10351">
        <ele>1022.5</ele>
        <time>2019-07-28T13:50:28Z</time>
      </trkpt>
      <trkpt lat="44.78461" lon="4.10355">
        <ele>1022.98</ele>
        <time>2019-07-28T13:50:36Z</time>
      </trkpt>
      <trkpt lat="44.78462" lon="4.10354">
        <ele>1022.98</ele>
        <time>2019-07-28T13:50:38Z</time>
      </trkpt>
      <trkpt lat="44.78471" lon="4.10346">
        <ele>1023.46</ele>
        <time>2019-07-28T13:50:48Z</time>
      </trkpt>
      <trkpt lat="44.78472" lon="4.10346">
        <ele>1023.46</ele>
        <time>2019-07-28T13:50:49Z</time>
      </trkpt>
      <trkpt lat="44.78477" lon="4.10342">
        <ele>1024.42</ele>
        <time>2019-07-28T13:50:55Z</time>
      </trkpt>
      <trkpt lat="44.78485" lon="4.1033">
        <ele>1027.31</ele>
        <time>2019-07-28T13:51:06Z</time>
      </trkpt>
      <trkpt lat="44.78495" lon="4.10317">
        <ele>1034.1</ele>
      </trkpt>
      <trkpt lat="44.78508" lon="4.10315">
        <ele>1034.5</ele>
      </trkpt>
      <trkpt lat="44.78522" lon="4.1029">
        <ele>1035.4</ele>
      </trkpt>
      <trkpt lat="44.78546" lon="4.10269">
        <ele>1038.3</ele>
      </trkpt>
      <trkpt lat="44.7858" lon="4.10267">
        <ele>1041.4</ele>
      </trkpt>
      <trkpt lat="44.78595" lon="4.1028">
        <ele>1040.6</ele>
      </trkpt>
      <trkpt lat="44.78631" lon="4.10356">
        <ele>1047.7</ele>
      </trkpt>
      <trkpt lat="44.78634" lon="4.10362">
        <ele>1048.7</ele>
      </trkpt>
      <trkpt lat="44.78683" lon="4.10368">
        <ele>1063.7</ele>
      </trkpt>
      <trkpt lat="44.78693" lon="4.10366">
        <ele>1066.8</ele>
      </trkpt>
      <trkpt lat="44.78707" lon="4.10369">
        <ele>1071.6</ele>
      </trkpt>
      <trkpt lat="44.78754" lon="4.10346">
        <ele>1083.1</ele>
      </trkpt>
      <trkpt lat="44.78809" lon="4.10332">
        <ele>1093.6</ele>
      </trkpt>
      <trkpt lat="44.78848" lon="4.10335">
        <ele>1102.4</ele>
      </trkpt>
      <trkpt lat="44.78923" lon="4.10241">
        <ele>1108.8</ele>
      </trkpt>
      <trkpt lat="44.78944" lon="4.10216">
        <ele>1109.2</ele>
      </trkpt>
      <trkpt lat="44.78963" lon="4.10209">
        <ele>1112</ele>
      </trkpt>
      <trkpt lat="44.78982" lon="4.10205">
        <ele>1113.5</ele>
      </trkpt>
      <trkpt lat="44.78999" lon="4.10209">
        <ele>1115</ele>
      </trkpt>
      <trkpt lat="44.79008" lon="4.10213">
        <ele>1114.8</ele>
      </trkpt>
      <trkpt lat="44.79014" lon="4.10213">
        <ele>1110.94</ele>
        <time>2019-07-28T14:13:25Z</time>
      </trkpt>
      <trkpt lat="44.7902" lon="4.10226">
        <ele>1112.38</ele>
        <time>2019-07-28T14:13:33Z</time>
      </trkpt>
      <trkpt lat="44.7903" lon="4.10246">
        <ele>1112.38</ele>
        <time>2019-07-28T14:13:46Z</time>
      </trkpt>
      <trkpt lat="44.79044" lon="4.10267">
        <ele>1113.34</ele>
        <time>2019-07-28T14:14:03Z</time>
      </trkpt>
      <trkpt lat="44.79054" lon="4.10278">
        <ele>1113.82</ele>
        <time>2019-07-28T14:14:15Z</time>
      </trkpt>
      <trkpt lat="44.79061" lon="4.10285">
        <ele>1114.31</ele>
        <time>2019-07-28T14:14:20Z</time>
      </trkpt>
      <trkpt lat="44.79072" lon="4.10294">
        <ele>1115.27</ele>
        <time>2019-07-28T14:14:32Z</time>
      </trkpt>
      <trkpt lat="44.79073" lon="4.10294">
        <ele>1115.27</ele>
        <time>2019-07-28T14:14:33Z</time>
      </trkpt>
      <trkpt lat="44.79089" lon="4.10303">
        <ele>1116.71</ele>
        <time>2019-07-28T14:14:46Z</time>
      </trkpt>
      <trkpt lat="44.79102" lon="4.10304">
        <ele>1117.19</ele>
        <time>2019-07-28T14:14:57Z</time>
      </trkpt>
      <trkpt lat="44.79119" lon="4.10301">
        <ele>1117.19</ele>
        <time>2019-07-28T14:15:08Z</time>
      </trkpt>
      <trkpt lat="44.79129" lon="4.10299">
        <ele>1117.19</ele>
        <time>2019-07-28T14:15:17Z</time>
      </trkpt>
      <trkpt lat="44.79139" lon="4.10295">
        <ele>1117.67</ele>
        <time>2019-07-28T14:15:26Z</time>
      </trkpt>
      <trkpt lat="44.79151" lon="4.1029">
        <ele>1118.15</ele>
        <time>2019-07-28T14:15:34Z</time>
      </trkpt>
      <trkpt lat="44.79154" lon="4.10289">
        <ele>1117.67</ele>
        <time>2019-07-28T14:15:38Z</time>
      </trkpt>
      <trkpt lat="44.79158" lon="4.10285">
        <ele>1118.15</ele>
        <time>2019-07-28T14:15:42Z</time>
      </trkpt>
      <trkpt lat="44.7917" lon="4.10279">
        <ele>1118.15</ele>
        <time>2019-07-28T14:15:51Z</time>
      </trkpt>
      <trkpt lat="44.79179" lon="4.10273">
        <ele>1119.11</ele>
        <time>2019-07-28T14:15:59Z</time>
      </trkpt>
      <trkpt lat="44.79185" lon="4.10268">
        <ele>1119.59</ele>
        <time>2019-07-28T14:16:06Z</time>
      </trkpt>
      <trkpt lat="44.79194" lon="4.10262">
        <ele>1120.07</ele>
        <time>2019-07-28T14:16:13Z</time>
      </trkpt>
      <trkpt lat="44.79205" lon="4.10254">
        <ele>1121.52</ele>
        <time>2019-07-28T14:16:22Z</time>
      </trkpt>
      <trkpt lat="44.79215" lon="4.10248">
        <ele>1122</ele>
        <time>2019-07-28T14:16:30Z</time>
      </trkpt>
      <trkpt lat="44.79225" lon="4.10242">
        <ele>1122</ele>
        <time>2019-07-28T14:16:39Z</time>
      </trkpt>
      <trkpt lat="44.79241" lon="4.10233">
        <ele>1122</ele>
        <time>2019-07-28T14:16:51Z</time>
      </trkpt>
      <trkpt lat="44.79254" lon="4.10223">
        <ele>1122.96</ele>
        <time>2019-07-28T14:17:03Z</time>
      </trkpt>
      <trkpt lat="44.79266" lon="4.10213">
        <ele>1123.44</ele>
        <time>2019-07-28T14:17:14Z</time>
      </trkpt>
      <trkpt lat="44.79282" lon="4.10204">
        <ele>1123.44</ele>
        <time>2019-07-28T14:17:26Z</time>
      </trkpt>
      <trkpt lat="44.79292" lon="4.10202">
        <ele>1123.44</ele>
        <time>2019-07-28T14:17:39Z</time>
      </trkpt>
      <trkpt lat="44.79294" lon="4.10203">
        <ele>1123.44</ele>
        <time>2019-07-28T14:17:43Z</time>
      </trkpt>
      <trkpt lat="44.79305" lon="4.10207">
        <ele>1126.32</ele>
        <time>2019-07-28T14:17:54Z</time>
      </trkpt>
      <trkpt lat="44.79313" lon="4.10203">
        <ele>1127.28</ele>
        <time>2019-07-28T14:18:01Z</time>
      </trkpt>
      <trkpt lat="44.79319" lon="4.10201">
        <ele>1129.21</ele>
        <time>2019-07-28T14:18:09Z</time>
      </trkpt>
      <trkpt lat="44.7932" lon="4.10202">
        <ele>1129.69</ele>
        <time>2019-07-28T14:18:11Z</time>
      </trkpt>
      <trkpt lat="44.79333" lon="4.10208">
        <ele>1132.57</ele>
        <time>2019-07-28T14:18:19Z</time>
      </trkpt>
      <trkpt lat="44.79335" lon="4.10209">
        <ele>1133.53</ele>
        <time>2019-07-28T14:18:21Z</time>
      </trkpt>
      <trkpt lat="44.79351" lon="4.10209">
        <ele>1134.49</ele>
        <time>2019-07-28T14:18:34Z</time>
      </trkpt>
      <trkpt lat="44.79365" lon="4.10208">
        <ele>1134.01</ele>
        <time>2019-07-28T14:18:50Z</time>
      </trkpt>
      <trkpt lat="44.79381" lon="4.10188">
        <ele>1134.01</ele>
        <time>2019-07-28T14:19:10Z</time>
      </trkpt>
      <trkpt lat="44.79401" lon="4.10168">
        <ele>1133.05</ele>
        <time>2019-07-28T14:19:28Z</time>
      </trkpt>
      <trkpt lat="44.79408" lon="4.10159">
        <ele>1133.05</ele>
        <time>2019-07-28T14:19:31Z</time>
      </trkpt>
      <trkpt lat="44.79412" lon="4.10131">
        <ele>1133.53</ele>
        <time>2019-07-28T14:19:39Z</time>
      </trkpt>
      <trkpt lat="44.79413" lon="4.10128">
        <ele>1133.05</ele>
        <time>2019-07-28T14:19:41Z</time>
      </trkpt>
      <trkpt lat="44.79419" lon="4.10108">
        <ele>1132.57</ele>
        <time>2019-07-28T14:19:53Z</time>
      </trkpt>
      <trkpt lat="44.79423" lon="4.10096">
        <ele>1132.09</ele>
        <time>2019-07-28T14:20:02Z</time>
      </trkpt>
      <trkpt lat="44.79423" lon="4.10094">
        <ele>1131.61</ele>
        <time>2019-07-28T14:20:05Z</time>
      </trkpt>
      <trkpt lat="44.7943" lon="4.10078">
        <ele>1131.13</ele>
        <time>2019-07-28T14:20:15Z</time>
      </trkpt>
      <trkpt lat="44.79433" lon="4.10063">
        <ele>1131.13</ele>
        <time>2019-07-28T14:20:23Z</time>
      </trkpt>
      <trkpt lat="44.79438" lon="4.10042">
        <ele>1130.17</ele>
        <time>2019-07-28T14:20:32Z</time>
      </trkpt>
      <trkpt lat="44.79444" lon="4.10025">
        <ele>1128.24</ele>
        <time>2019-07-28T14:20:41Z</time>
      </trkpt>
      <trkpt lat="44.79446" lon="4.10023">
        <ele>1128.24</ele>
        <time>2019-07-28T14:20:44Z</time>
      </trkpt>
      <trkpt lat="44.79453" lon="4.10006">
        <ele>1128.24</ele>
        <time>2019-07-28T14:20:54Z</time>
      </trkpt>
      <trkpt lat="44.79457" lon="4.0999">
        <ele>1127.76</ele>
        <time>2019-07-28T14:21:03Z</time>
      </trkpt>
      <trkpt lat="44.7946" lon="4.09986">
        <ele>1127.76</ele>
        <time>2019-07-28T14:21:07Z</time>
      </trkpt>
      <trkpt lat="44.79465" lon="4.09973">
        <ele>1127.76</ele>
        <time>2019-07-28T14:21:15Z</time>
      </trkpt>
      <trkpt lat="44.79468" lon="4.09961">
        <ele>1127.76</ele>
        <time>2019-07-28T14:21:20Z</time>
      </trkpt>
      <trkpt lat="44.79475" lon="4.09945">
        <ele>1127.28</ele>
        <time>2019-07-28T14:21:31Z</time>
      </trkpt>
      <trkpt lat="44.79483" lon="4.09927">
        <ele>1127.28</ele>
        <time>2019-07-28T14:21:42Z</time>
      </trkpt>
      <trkpt lat="44.79492" lon="4.09909">
        <ele>1126.8</ele>
        <time>2019-07-28T14:21:53Z</time>
      </trkpt>
      <trkpt lat="44.79499" lon="4.09895">
        <ele>1126.8</ele>
        <time>2019-07-28T14:22:02Z</time>
      </trkpt>
      <trkpt lat="44.79509" lon="4.09875">
        <ele>1126.32</ele>
        <time>2019-07-28T14:22:14Z</time>
      </trkpt>
      <trkpt lat="44.79514" lon="4.09861">
        <ele>1125.84</ele>
        <time>2019-07-28T14:22:24Z</time>
      </trkpt>
      <trkpt lat="44.79522" lon="4.09844">
        <ele>1125.36</ele>
        <time>2019-07-28T14:22:34Z</time>
      </trkpt>
      <trkpt lat="44.79525" lon="4.09839">
        <ele>1125.36</ele>
        <time>2019-07-28T14:22:38Z</time>
      </trkpt>
      <trkpt lat="44.79528" lon="4.09832">
        <ele>1124.88</ele>
        <time>2019-07-28T14:22:43Z</time>
      </trkpt>
      <trkpt lat="44.79537" lon="4.09816">
        <ele>1124.4</ele>
        <time>2019-07-28T14:22:57Z</time>
      </trkpt>
      <trkpt lat="44.79539" lon="4.09814">
        <ele>1124.4</ele>
        <time>2019-07-28T14:22:59Z</time>
      </trkpt>
      <trkpt lat="44.79552" lon="4.09793">
        <ele>1123.92</ele>
        <time>2019-07-28T14:23:12Z</time>
      </trkpt>
      <trkpt lat="44.79561" lon="4.09769">
        <ele>1123.92</ele>
        <time>2019-07-28T14:23:25Z</time>
      </trkpt>
      <trkpt lat="44.79567" lon="4.09751">
        <ele>1123.92</ele>
        <time>2019-07-28T14:23:36Z</time>
      </trkpt>
      <trkpt lat="44.79571" lon="4.09737">
        <ele>1123.44</ele>
        <time>2019-07-28T14:23:44Z</time>
      </trkpt>
      <trkpt lat="44.79573" lon="4.09732">
        <ele>1123.44</ele>
        <time>2019-07-28T14:23:47Z</time>
      </trkpt>
      <trkpt lat="44.79573" lon="4.09723">
        <ele>1123.44</ele>
        <time>2019-07-28T14:23:51Z</time>
      </trkpt>
      <trkpt lat="44.79576" lon="4.09715">
        <ele>1123.44</ele>
        <time>2019-07-28T14:23:55Z</time>
      </trkpt>
      <trkpt lat="44.79577" lon="4.09708">
        <ele>1122.96</ele>
        <time>2019-07-28T14:24:00Z</time>
      </trkpt>
      <trkpt lat="44.79579" lon="4.09699">
        <ele>1122.96</ele>
        <time>2019-07-28T14:24:04Z</time>
      </trkpt>
      <trkpt lat="44.79584" lon="4.09679">
        <ele>1122.96</ele>
        <time>2019-07-28T14:24:17Z</time>
      </trkpt>
      <trkpt lat="44.79591" lon="4.09652">
        <ele>1122.96</ele>
        <time>2019-07-28T14:24:31Z</time>
      </trkpt>
      <trkpt lat="44.79595" lon="4.09637">
        <ele>1122.48</ele>
        <time>2019-07-28T14:24:41Z</time>
      </trkpt>
      <trkpt lat="44.79598" lon="4.0962">
        <ele>1122.48</ele>
        <time>2019-07-28T14:24:51Z</time>
      </trkpt>
      <trkpt lat="44.79601" lon="4.0961">
        <ele>1122.48</ele>
        <time>2019-07-28T14:24:56Z</time>
      </trkpt>
      <trkpt lat="44.79607" lon="4.09591">
        <ele>1122</ele>
        <time>2019-07-28T14:25:07Z</time>
      </trkpt>
      <trkpt lat="44.79611" lon="4.09571">
        <ele>1122</ele>
        <time>2019-07-28T14:25:16Z</time>
      </trkpt>
      <trkpt lat="44.79612" lon="4.09568">
        <ele>1121.52</ele>
        <time>2019-07-28T14:25:18Z</time>
      </trkpt>
      <trkpt lat="44.79613" lon="4.09551">
        <ele>1121.52</ele>
        <time>2019-07-28T14:25:27Z</time>
      </trkpt>
      <trkpt lat="44.79616" lon="4.09536">
        <ele>1121.52</ele>
        <time>2019-07-28T14:25:37Z</time>
      </trkpt>
      <trkpt lat="44.79624" lon="4.09513">
        <ele>1120.07</ele>
        <time>2019-07-28T14:25:51Z</time>
      </trkpt>
      <trkpt lat="44.79628" lon="4.09506">
        <ele>1120.07</ele>
        <time>2019-07-28T14:25:56Z</time>
      </trkpt>
      <trkpt lat="44.79637" lon="4.09493">
        <ele>1120.07</ele>
        <time>2019-07-28T14:26:03Z</time>
      </trkpt>
      <trkpt lat="44.79638" lon="4.09488">
        <ele>1120.07</ele>
        <time>2019-07-28T14:26:07Z</time>
      </trkpt>
      <trkpt lat="44.79641" lon="4.09476">
        <ele>1119.59</ele>
        <time>2019-07-28T14:26:15Z</time>
      </trkpt>
      <trkpt lat="44.79647" lon="4.09458">
        <ele>1120.07</ele>
        <time>2019-07-28T14:26:25Z</time>
      </trkpt>
      <trkpt lat="44.79655" lon="4.09446">
        <ele>1119.59</ele>
        <time>2019-07-28T14:26:35Z</time>
      </trkpt>
      <trkpt lat="44.79657" lon="4.09439">
        <ele>1119.59</ele>
        <time>2019-07-28T14:26:38Z</time>
      </trkpt>
      <trkpt lat="44.79661" lon="4.09428">
        <ele>1119.11</ele>
        <time>2019-07-28T14:26:45Z</time>
      </trkpt>
      <trkpt lat="44.79665" lon="4.09414">
        <ele>1118.63</ele>
        <time>2019-07-28T14:26:52Z</time>
      </trkpt>
      <trkpt lat="44.79667" lon="4.09413">
        <ele>1118.63</ele>
        <time>2019-07-28T14:26:55Z</time>
      </trkpt>
      <trkpt lat="44.79671" lon="4.09401">
        <ele>1118.63</ele>
        <time>2019-07-28T14:26:59Z</time>
      </trkpt>
      <trkpt lat="44.7967" lon="4.09394">
        <ele>1118.15</ele>
        <time>2019-07-28T14:27:04Z</time>
      </trkpt>
      <trkpt lat="44.7968" lon="4.09372">
        <ele>1118.15</ele>
        <time>2019-07-28T14:27:15Z</time>
      </trkpt>
      <trkpt lat="44.7969" lon="4.09352">
        <ele>1117.67</ele>
        <time>2019-07-28T14:27:27Z</time>
      </trkpt>
      <trkpt lat="44.79696" lon="4.09342">
        <ele>1117.19</ele>
        <time>2019-07-28T14:27:37Z</time>
      </trkpt>
      <trkpt lat="44.7971" lon="4.09326">
        <ele>1117.19</ele>
        <time>2019-07-28T14:27:52Z</time>
      </trkpt>
      <trkpt lat="44.79727" lon="4.09324">
        <ele>1117.19</ele>
        <time>2019-07-28T14:28:13Z</time>
      </trkpt>
      <trkpt lat="44.79731" lon="4.09314">
        <ele>1116.71</ele>
        <time>2019-07-28T14:28:33Z</time>
      </trkpt>
      <trkpt lat="44.79738" lon="4.09277">
        <ele>1115.75</ele>
        <time>2019-07-28T14:28:44Z</time>
      </trkpt>
      <trkpt lat="44.79745" lon="4.09256">
        <ele>1116.71</ele>
        <time>2019-07-28T14:28:49Z</time>
      </trkpt>
      <trkpt lat="44.79761" lon="4.09234">
        <ele>1116.23</ele>
        <time>2019-07-28T14:28:59Z</time>
      </trkpt>
      <trkpt lat="44.79765" lon="4.09229">
        <ele>1115.27</ele>
        <time>2019-07-28T14:29:03Z</time>
      </trkpt>
      <trkpt lat="44.79774" lon="4.09223">
        <ele>1114.79</ele>
        <time>2019-07-28T14:29:10Z</time>
      </trkpt>
      <trkpt lat="44.79775" lon="4.09221">
        <ele>1114.79</ele>
        <time>2019-07-28T14:29:12Z</time>
      </trkpt>
      <trkpt lat="44.79787" lon="4.0921">
        <ele>1115.75</ele>
        <time>2019-07-28T14:29:22Z</time>
      </trkpt>
      <trkpt lat="44.79802" lon="4.09196">
        <ele>1113.34</ele>
        <time>2019-07-28T14:29:31Z</time>
      </trkpt>
      <trkpt lat="44.79807" lon="4.0919">
        <ele>1112.38</ele>
        <time>2019-07-28T14:29:34Z</time>
      </trkpt>
      <trkpt lat="44.79817" lon="4.09176">
        <ele>1110.46</ele>
        <time>2019-07-28T14:29:42Z</time>
      </trkpt>
      <trkpt lat="44.7982" lon="4.0917">
        <ele>1109.98</ele>
        <time>2019-07-28T14:29:45Z</time>
      </trkpt>
      <trkpt lat="44.79827" lon="4.09162">
        <ele>1109.5</ele>
        <time>2019-07-28T14:29:49Z</time>
      </trkpt>
      <trkpt lat="44.79836" lon="4.09137">
        <ele>1104.69</ele>
        <time>2019-07-28T14:30:01Z</time>
      </trkpt>
      <trkpt lat="44.79848" lon="4.09117">
        <ele>1100.85</ele>
        <time>2019-07-28T14:30:15Z</time>
      </trkpt>
      <trkpt lat="44.79857" lon="4.09103">
        <ele>1097.48</ele>
        <time>2019-07-28T14:30:26Z</time>
      </trkpt>
      <trkpt lat="44.7986" lon="4.09097">
        <ele>1096.52</ele>
        <time>2019-07-28T14:30:30Z</time>
      </trkpt>
      <trkpt lat="44.79871" lon="4.09086">
        <ele>1094.12</ele>
        <time>2019-07-28T14:30:43Z</time>
      </trkpt>
      <trkpt lat="44.79874" lon="4.09081">
        <ele>1094.12</ele>
        <time>2019-07-28T14:30:47Z</time>
      </trkpt>
      <trkpt lat="44.79878" lon="4.09069">
        <ele>1094.12</ele>
        <time>2019-07-28T14:30:54Z</time>
      </trkpt>
      <trkpt lat="44.79889" lon="4.09046">
        <ele>1091.71</ele>
        <time>2019-07-28T14:31:08Z</time>
      </trkpt>
      <trkpt lat="44.79895" lon="4.09032">
        <ele>1089.31</ele>
        <time>2019-07-28T14:31:20Z</time>
      </trkpt>
      <trkpt lat="44.79897" lon="4.09029">
        <ele>1088.83</ele>
        <time>2019-07-28T14:31:37Z</time>
      </trkpt>
      <trkpt lat="44.79898" lon="4.09029">
        <ele>1088.35</ele>
        <time>2019-07-28T14:32:01Z</time>
      </trkpt>
      <trkpt lat="44.79905" lon="4.09034">
        <ele>1086.91</ele>
        <time>2019-07-28T14:32:18Z</time>
      </trkpt>
      <trkpt lat="44.79909" lon="4.09031">
        <ele>1084.99</ele>
        <time>2019-07-28T14:32:40Z</time>
      </trkpt>
      <trkpt lat="44.79914" lon="4.09024">
        <ele>1083.06</ele>
        <time>2019-07-28T14:33:01Z</time>
      </trkpt>
      <trkpt lat="44.79915" lon="4.09022">
        <ele>1082.58</ele>
        <time>2019-07-28T14:33:23Z</time>
      </trkpt>
      <trkpt lat="44.79924" lon="4.09002">
        <ele>1076.81</ele>
        <time>2019-07-28T14:33:40Z</time>
      </trkpt>
      <trkpt lat="44.79928" lon="4.08998">
        <ele>1074.89</ele>
        <time>2019-07-28T14:33:42Z</time>
      </trkpt>
      <trkpt lat="44.7994" lon="4.08994">
        <ele>1072.97</ele>
        <time>2019-07-28T14:33:46Z</time>
      </trkpt>
      <trkpt lat="44.79959" lon="4.08984">
        <ele>1070.57</ele>
        <time>2019-07-28T14:34:02Z</time>
      </trkpt>
      <trkpt lat="44.79969" lon="4.08977">
        <ele>1071.05</ele>
        <time>2019-07-28T14:34:14Z</time>
      </trkpt>
      <trkpt lat="44.79972" lon="4.08976">
        <ele>1071.05</ele>
        <time>2019-07-28T14:34:16Z</time>
      </trkpt>
      <trkpt lat="44.79982" lon="4.08969">
        <ele>1070.57</ele>
        <time>2019-07-28T14:34:24Z</time>
      </trkpt>
      <trkpt lat="44.79997" lon="4.08949">
        <ele>1066.24</ele>
        <time>2019-07-28T14:34:38Z</time>
      </trkpt>
      <trkpt lat="44.8" lon="4.08939">
        <ele>1063.84</ele>
        <time>2019-07-28T14:34:59Z</time>
      </trkpt>
      <trkpt lat="44.80031" lon="4.08909">
        <ele>1060.47</ele>
        <time>2019-07-28T14:35:16Z</time>
      </trkpt>
      <trkpt lat="44.80056" lon="4.08895">
        <ele>1058.55</ele>
        <time>2019-07-28T14:35:34Z</time>
      </trkpt>
      <trkpt lat="44.80076" lon="4.08876">
        <ele>1054.7</ele>
        <time>2019-07-28T14:35:56Z</time>
      </trkpt>
      <trkpt lat="44.80092" lon="4.08873">
        <ele>1052.78</ele>
        <time>2019-07-28T14:36:14Z</time>
      </trkpt>
      <trkpt lat="44.80095" lon="4.08898">
        <ele>1051.34</ele>
        <time>2019-07-28T14:36:35Z</time>
      </trkpt>
      <trkpt lat="44.80094" lon="4.08923">
        <ele>1051.34</ele>
        <time>2019-07-28T14:36:59Z</time>
      </trkpt>
      <trkpt lat="44.80076" lon="4.08962">
        <ele>1048.94</ele>
        <time>2019-07-28T14:37:18Z</time>
      </trkpt>
      <trkpt lat="44.8007" lon="4.08987">
        <ele>1043.17</ele>
        <time>2019-07-28T14:37:32Z</time>
      </trkpt>
      <trkpt lat="44.8007" lon="4.0899">
        <ele>1042.69</ele>
        <time>2019-07-28T14:37:40Z</time>
      </trkpt>
      <trkpt lat="44.80071" lon="4.09011">
        <ele>1040.28</ele>
        <time>2019-07-28T14:37:53Z</time>
      </trkpt>
      <trkpt lat="44.8007" lon="4.09022">
        <ele>1038.36</ele>
        <time>2019-07-28T14:38:00Z</time>
      </trkpt>
      <trkpt lat="44.80073" lon="4.0903">
        <ele>1037.4</ele>
        <time>2019-07-28T14:38:12Z</time>
      </trkpt>
      <trkpt lat="44.80075" lon="4.09032">
        <ele>1036.92</ele>
        <time>2019-07-28T14:38:14Z</time>
      </trkpt>
      <trkpt lat="44.80083" lon="4.0903">
        <ele>1034.04</ele>
        <time>2019-07-28T14:38:21Z</time>
      </trkpt>
      <trkpt lat="44.80095" lon="4.09025">
        <ele>1031.15</ele>
        <time>2019-07-28T14:38:35Z</time>
      </trkpt>
      <trkpt lat="44.80107" lon="4.09017">
        <ele>1027.79</ele>
        <time>2019-07-28T14:38:48Z</time>
      </trkpt>
      <trkpt lat="44.80114" lon="4.09014">
        <ele>1027.79</ele>
        <time>2019-07-28T14:38:55Z</time>
      </trkpt>
      <trkpt lat="44.80121" lon="4.09011">
        <ele>1027.79</ele>
        <time>2019-07-28T14:39:02Z</time>
      </trkpt>
      <trkpt lat="44.80132" lon="4.0901">
        <ele>1027.79</ele>
        <time>2019-07-28T14:39:13Z</time>
      </trkpt>
      <trkpt lat="44.80149" lon="4.09006">
        <ele>1029.71</ele>
        <time>2019-07-28T14:39:29Z</time>
      </trkpt>
      <trkpt lat="44.80169" lon="4.08988">
        <ele>1030.19</ele>
        <time>2019-07-28T14:39:44Z</time>
      </trkpt>
      <trkpt lat="44.80178" lon="4.08982">
        <ele>1029.71</ele>
        <time>2019-07-28T14:39:59Z</time>
      </trkpt>
      <trkpt lat="44.80181" lon="4.0898">
        <ele>1029.71</ele>
        <time>2019-07-28T14:40:01Z</time>
      </trkpt>
      <trkpt lat="44.80194" lon="4.08961">
        <ele>1029.71</ele>
        <time>2019-07-28T14:40:13Z</time>
      </trkpt>
      <trkpt lat="44.80201" lon="4.08953">
        <ele>1029.23</ele>
        <time>2019-07-28T14:40:18Z</time>
      </trkpt>
      <trkpt lat="44.80219" lon="4.08933">
        <ele>1028.27</ele>
        <time>2019-07-28T14:40:34Z</time>
      </trkpt>
      <trkpt lat="44.80231" lon="4.08918">
        <ele>1028.27</ele>
        <time>2019-07-28T14:40:47Z</time>
      </trkpt>
      <trkpt lat="44.80246" lon="4.08899">
        <ele>1027.79</ele>
        <time>2019-07-28T14:41:03Z</time>
      </trkpt>
      <trkpt lat="44.80262" lon="4.08878">
        <ele>1027.31</ele>
        <time>2019-07-28T14:41:19Z</time>
      </trkpt>
      <trkpt lat="44.80278" lon="4.08863">
        <ele>1026.83</ele>
        <time>2019-07-28T14:41:33Z</time>
      </trkpt>
      <trkpt lat="44.80294" lon="4.08848">
        <ele>1026.83</ele>
        <time>2019-07-28T14:41:46Z</time>
      </trkpt>
      <trkpt lat="44.80306" lon="4.08839">
        <ele>1026.83</ele>
        <time>2019-07-28T14:41:59Z</time>
      </trkpt>
      <trkpt lat="44.80309" lon="4.08838">
        <ele>1026.83</ele>
        <time>2019-07-28T14:42:03Z</time>
      </trkpt>
      <trkpt lat="44.80309" lon="4.08856">
        <ele>1026.34</ele>
        <time>2019-07-28T14:42:17Z</time>
      </trkpt>
      <trkpt lat="44.80308" lon="4.08898">
        <ele>1023.94</ele>
        <time>2019-07-28T14:42:42Z</time>
      </trkpt>
      <trkpt lat="44.80292" lon="4.08918">
        <ele>1022.5</ele>
        <time>2019-07-28T14:43:06Z</time>
      </trkpt>
      <trkpt lat="44.80277" lon="4.08947">
        <ele>1021.54</ele>
        <time>2019-07-28T14:43:29Z</time>
      </trkpt>
      <trkpt lat="44.80266" lon="4.08972">
        <ele>1021.54</ele>
        <time>2019-07-28T14:43:51Z</time>
      </trkpt>
      <trkpt lat="44.80266" lon="4.09002">
        <ele>1020.1</ele>
        <time>2019-07-28T14:44:11Z</time>
      </trkpt>
      <trkpt lat="44.80266" lon="4.09012">
        <ele>1014.33</ele>
        <time>2019-07-28T14:44:31Z</time>
      </trkpt>
      <trkpt lat="44.80268" lon="4.09026">
        <ele>1011.44</ele>
        <time>2019-07-28T14:44:50Z</time>
      </trkpt>
      <trkpt lat="44.80273" lon="4.09041">
        <ele>1010.48</ele>
        <time>2019-07-28T14:45:09Z</time>
      </trkpt>
      <trkpt lat="44.80277" lon="4.09046">
        <ele>1010</ele>
        <time>2019-07-28T14:45:33Z</time>
      </trkpt>
      <trkpt lat="44.80283" lon="4.09046">
        <ele>1009.52</ele>
        <time>2019-07-28T14:45:55Z</time>
      </trkpt>
      <trkpt lat="44.80284" lon="4.09048">
        <ele>1004.72</ele>
        <time>2019-07-28T14:46:11Z</time>
      </trkpt>
      <trkpt lat="44.80286" lon="4.09043">
        <ele>997.99</ele>
        <time>2019-07-28T14:46:25Z</time>
      </trkpt>
      <trkpt lat="44.80288" lon="4.09046">
        <ele>996.06</ele>
        <time>2019-07-28T14:46:38Z</time>
      </trkpt>
      <trkpt lat="44.80291" lon="4.09042">
        <ele>992.7</ele>
        <time>2019-07-28T14:46:56Z</time>
      </trkpt>
      <trkpt lat="44.80293" lon="4.09041">
        <ele>992.22</ele>
        <time>2019-07-28T14:47:06Z</time>
      </trkpt>
      <trkpt lat="44.80296" lon="4.09041">
        <ele>991.74</ele>
        <time>2019-07-28T14:47:08Z</time>
      </trkpt>
      <trkpt lat="44.8031" lon="4.09037">
        <ele>990.78</ele>
        <time>2019-07-28T14:47:20Z</time>
      </trkpt>
      <trkpt lat="44.80313" lon="4.09035">
        <ele>990.78</ele>
        <time>2019-07-28T14:47:22Z</time>
      </trkpt>
      <trkpt lat="44.80322" lon="4.09034">
        <ele>989.81</ele>
        <time>2019-07-28T14:47:33Z</time>
      </trkpt>
      <trkpt lat="44.80332" lon="4.09037">
        <ele>989.33</ele>
        <time>2019-07-28T14:47:43Z</time>
      </trkpt>
      <trkpt lat="44.80339" lon="4.09033">
        <ele>988.85</ele>
        <time>2019-07-28T14:47:49Z</time>
      </trkpt>
      <trkpt lat="44.8035" lon="4.09031">
        <ele>987.89</ele>
        <time>2019-07-28T14:48:01Z</time>
      </trkpt>
      <trkpt lat="44.80354" lon="4.09031">
        <ele>987.41</ele>
        <time>2019-07-28T14:48:09Z</time>
      </trkpt>
      <trkpt lat="44.80358" lon="4.09029">
        <ele>987.89</ele>
        <time>2019-07-28T14:48:14Z</time>
      </trkpt>
      <trkpt lat="44.80373" lon="4.09022">
        <ele>988.85</ele>
        <time>2019-07-28T14:48:25Z</time>
      </trkpt>
      <trkpt lat="44.80379" lon="4.09021">
        <ele>989.33</ele>
        <time>2019-07-28T14:48:29Z</time>
      </trkpt>
      <trkpt lat="44.80388" lon="4.09016">
        <ele>988.85</ele>
        <time>2019-07-28T14:48:38Z</time>
      </trkpt>
      <trkpt lat="44.80397" lon="4.09012">
        <ele>989.81</ele>
        <time>2019-07-28T14:48:46Z</time>
      </trkpt>
      <trkpt lat="44.80406" lon="4.09007">
        <ele>992.22</ele>
        <time>2019-07-28T14:48:59Z</time>
      </trkpt>
      <trkpt lat="44.80412" lon="4.09001">
        <ele>991.74</ele>
        <time>2019-07-28T14:49:09Z</time>
      </trkpt>
      <trkpt lat="44.80422" lon="4.08988">
        <ele>994.14</ele>
        <time>2019-07-28T14:49:21Z</time>
      </trkpt>
      <trkpt lat="44.80432" lon="4.08977">
        <ele>994.62</ele>
        <time>2019-07-28T14:49:33Z</time>
      </trkpt>
      <trkpt lat="44.80441" lon="4.08968">
        <ele>994.62</ele>
        <time>2019-07-28T14:49:45Z</time>
      </trkpt>
      <trkpt lat="44.80453" lon="4.08951">
        <ele>994.62</ele>
        <time>2019-07-28T14:49:59Z</time>
      </trkpt>
      <trkpt lat="44.80466" lon="4.08935">
        <ele>995.1</ele>
        <time>2019-07-28T14:50:14Z</time>
      </trkpt>
      <trkpt lat="44.80477" lon="4.08921">
        <ele>995.58</ele>
        <time>2019-07-28T14:50:24Z</time>
      </trkpt>
      <trkpt lat="44.80491" lon="4.08907">
        <ele>996.06</ele>
        <time>2019-07-28T14:50:35Z</time>
      </trkpt>
      <trkpt lat="44.80501" lon="4.08903">
        <ele>996.54</ele>
        <time>2019-07-28T14:50:45Z</time>
      </trkpt>
      <trkpt lat="44.80503" lon="4.08906">
        <ele>997.02</ele>
        <time>2019-07-28T14:50:51Z</time>
      </trkpt>
      <trkpt lat="44.80501" lon="4.08912">
        <ele>997.51</ele>
        <time>2019-07-28T14:50:58Z</time>
      </trkpt>
      <trkpt lat="44.80494" lon="4.0892">
        <ele>997.99</ele>
        <time>2019-07-28T14:51:08Z</time>
      </trkpt>
      <trkpt lat="44.80494" lon="4.08922">
        <ele>997.99</ele>
        <time>2019-07-28T14:51:10Z</time>
      </trkpt>
      <trkpt lat="44.80491" lon="4.08941">
        <ele>998.95</ele>
        <time>2019-07-28T14:51:24Z</time>
      </trkpt>
      <trkpt lat="44.80489" lon="4.08955">
        <ele>999.43</ele>
        <time>2019-07-28T14:51:36Z</time>
      </trkpt>
      <trkpt lat="44.80489" lon="4.08954">
        <ele>999.43</ele>
        <time>2019-07-28T14:51:40Z</time>
      </trkpt>
      <trkpt lat="44.80481" lon="4.0897">
        <ele>1000.87</ele>
        <time>2019-07-28T14:52:04Z</time>
      </trkpt>
      <trkpt lat="44.80473" lon="4.08994">
        <ele>1001.35</ele>
        <time>2019-07-28T14:52:23Z</time>
      </trkpt>
      <trkpt lat="44.80464" lon="4.09015">
        <ele>1001.83</ele>
        <time>2019-07-28T14:52:35Z</time>
      </trkpt>
      <trkpt lat="44.80456" lon="4.09038">
        <ele>1003.75</ele>
        <time>2019-07-28T14:52:48Z</time>
      </trkpt>
      <trkpt lat="44.8045" lon="4.09055">
        <ele>1007.12</ele>
        <time>2019-07-28T14:53:02Z</time>
      </trkpt>
      <trkpt lat="44.80443" lon="4.09073">
        <ele>1010.48</ele>
        <time>2019-07-28T14:53:17Z</time>
      </trkpt>
      <trkpt lat="44.80437" lon="4.09091">
        <ele>1012.41</ele>
        <time>2019-07-28T14:53:29Z</time>
      </trkpt>
      <trkpt lat="44.80431" lon="4.09107">
        <ele>1015.77</ele>
        <time>2019-07-28T14:53:41Z</time>
      </trkpt>
      <trkpt lat="44.80428" lon="4.09128">
        <ele>1019.13</ele>
        <time>2019-07-28T14:53:56Z</time>
      </trkpt>
      <trkpt lat="44.80431" lon="4.09123">
        <ele>1020.58</ele>
        <time>2019-07-28T14:54:02Z</time>
      </trkpt>
      <trkpt lat="44.8044" lon="4.09107">
        <ele>1021.06</ele>
        <time>2019-07-28T14:54:17Z</time>
      </trkpt>
      <trkpt lat="44.8045" lon="4.09089">
        <ele>1020.58</ele>
        <time>2019-07-28T14:54:28Z</time>
      </trkpt>
      <trkpt lat="44.80453" lon="4.09085">
        <ele>1019.62</ele>
        <time>2019-07-28T14:54:33Z</time>
      </trkpt>
      <trkpt lat="44.80467" lon="4.09067">
        <ele>1019.62</ele>
        <time>2019-07-28T14:54:46Z</time>
      </trkpt>
      <trkpt lat="44.80468" lon="4.09067">
        <ele>1018.65</ele>
        <time>2019-07-28T14:54:49Z</time>
      </trkpt>
      <trkpt lat="44.80481" lon="4.09057">
        <ele>1016.73</ele>
        <time>2019-07-28T14:55:00Z</time>
      </trkpt>
      <trkpt lat="44.80498" lon="4.09049">
        <ele>1018.17</ele>
        <time>2019-07-28T14:55:13Z</time>
      </trkpt>
      <trkpt lat="44.80501" lon="4.0905">
        <ele>1017.69</ele>
        <time>2019-07-28T14:55:15Z</time>
      </trkpt>
      <trkpt lat="44.80511" lon="4.09057">
        <ele>1018.17</ele>
        <time>2019-07-28T14:55:23Z</time>
      </trkpt>
      <trkpt lat="44.80512" lon="4.0906">
        <ele>1018.65</ele>
        <time>2019-07-28T14:55:29Z</time>
      </trkpt>
      <trkpt lat="44.8052" lon="4.09071">
        <ele>1018.65</ele>
        <time>2019-07-28T14:55:39Z</time>
      </trkpt>
      <trkpt lat="44.80527" lon="4.09074">
        <ele>1018.65</ele>
        <time>2019-07-28T14:55:43Z</time>
      </trkpt>
      <trkpt lat="44.8053" lon="4.09082">
        <ele>1018.65</ele>
        <time>2019-07-28T14:55:48Z</time>
      </trkpt>
      <trkpt lat="44.80539" lon="4.09085">
        <ele>1018.65</ele>
        <time>2019-07-28T14:55:56Z</time>
      </trkpt>
      <trkpt lat="44.80547" lon="4.09087">
        <ele>1018.17</ele>
        <time>2019-07-28T14:56:02Z</time>
      </trkpt>
      <trkpt lat="44.80568" lon="4.09079">
        <ele>1020.58</ele>
        <time>2019-07-28T14:56:18Z</time>
      </trkpt>
      <trkpt lat="44.80574" lon="4.09079">
        <ele>1021.54</ele>
        <time>2019-07-28T14:56:24Z</time>
      </trkpt>
      <trkpt lat="44.8058" lon="4.09082">
        <ele>1021.54</ele>
        <time>2019-07-28T14:56:30Z</time>
      </trkpt>
      <trkpt lat="44.80595" lon="4.09089">
        <ele>1022.02</ele>
        <time>2019-07-28T14:56:42Z</time>
      </trkpt>
      <trkpt lat="44.806" lon="4.09089">
        <ele>1022.02</ele>
        <time>2019-07-28T14:56:47Z</time>
      </trkpt>
      <trkpt lat="44.80607" lon="4.09085">
        <ele>1022.5</ele>
        <time>2019-07-28T14:56:50Z</time>
      </trkpt>
      <trkpt lat="44.80619" lon="4.09072">
        <ele>1022.5</ele>
        <time>2019-07-28T14:57:00Z</time>
      </trkpt>
      <trkpt lat="44.8062" lon="4.0907">
        <ele>1022.98</ele>
        <time>2019-07-28T14:57:04Z</time>
      </trkpt>
      <trkpt lat="44.80621" lon="4.09058">
        <ele>1024.42</ele>
        <time>2019-07-28T14:57:11Z</time>
      </trkpt>
      <trkpt lat="44.80613" lon="4.09035">
        <ele>1022.5</ele>
        <time>2019-07-28T14:57:24Z</time>
      </trkpt>
      <trkpt lat="44.80609" lon="4.09017">
        <ele>1021.06</ele>
        <time>2019-07-28T14:57:34Z</time>
      </trkpt>
      <trkpt lat="44.80615" lon="4.09003">
        <ele>1022.5</ele>
        <time>2019-07-28T14:57:42Z</time>
      </trkpt>
      <trkpt lat="44.80626" lon="4.08991">
        <ele>1023.94</ele>
        <time>2019-07-28T14:57:53Z</time>
      </trkpt>
      <trkpt lat="44.80646" lon="4.08978">
        <ele>1024.42</ele>
        <time>2019-07-28T14:58:10Z</time>
      </trkpt>
      <trkpt lat="44.80665" lon="4.08973">
        <ele>1025.38</ele>
        <time>2019-07-28T14:58:27Z</time>
      </trkpt>
      <trkpt lat="44.80672" lon="4.08951">
        <ele>1027.31</ele>
        <time>2019-07-28T14:58:40Z</time>
      </trkpt>
      <trkpt lat="44.8066" lon="4.0892">
        <ele>1025.38</ele>
        <time>2019-07-28T14:58:57Z</time>
      </trkpt>
      <trkpt lat="44.80659" lon="4.08919">
        <ele>1025.38</ele>
        <time>2019-07-28T14:58:58Z</time>
      </trkpt>
      <trkpt lat="44.80654" lon="4.08911">
        <ele>1024.9</ele>
        <time>2019-07-28T14:59:03Z</time>
      </trkpt>
      <trkpt lat="44.80645" lon="4.0889">
        <ele>1023.46</ele>
        <time>2019-07-28T14:59:17Z</time>
      </trkpt>
      <trkpt lat="44.80639" lon="4.08871">
        <ele>1022.98</ele>
        <time>2019-07-28T14:59:28Z</time>
      </trkpt>
      <trkpt lat="44.80632" lon="4.08843">
        <ele>1021.06</ele>
        <time>2019-07-28T14:59:42Z</time>
      </trkpt>
      <trkpt lat="44.80631" lon="4.08827">
        <ele>1021.06</ele>
        <time>2019-07-28T14:59:52Z</time>
      </trkpt>
      <trkpt lat="44.80634" lon="4.08817">
        <ele>1022.02</ele>
        <time>2019-07-28T15:00:03Z</time>
      </trkpt>
      <trkpt lat="44.80634" lon="4.08792">
        <ele>1022.02</ele>
        <time>2019-07-28T15:00:18Z</time>
      </trkpt>
      <trkpt lat="44.80628" lon="4.08763">
        <ele>1022.02</ele>
        <time>2019-07-28T15:00:34Z</time>
      </trkpt>
      <trkpt lat="44.8063" lon="4.08738">
        <ele>1020.58</ele>
        <time>2019-07-28T15:00:48Z</time>
      </trkpt>
      <trkpt lat="44.80635" lon="4.08708">
        <ele>1019.13</ele>
        <time>2019-07-28T15:01:04Z</time>
      </trkpt>
      <trkpt lat="44.80638" lon="4.08684">
        <ele>1022.98</ele>
        <time>2019-07-28T15:01:17Z</time>
      </trkpt>
      <trkpt lat="44.80644" lon="4.0866">
        <ele>1026.34</ele>
        <time>2019-07-28T15:01:32Z</time>
      </trkpt>
      <trkpt lat="44.8065" lon="4.08635">
        <ele>1030.67</ele>
        <time>2019-07-28T15:01:46Z</time>
      </trkpt>
      <trkpt lat="44.80655" lon="4.08615">
        <ele>1036.92</ele>
        <time>2019-07-28T15:02:00Z</time>
      </trkpt>
      <trkpt lat="44.8066" lon="4.08597">
        <ele>1038.84</ele>
        <time>2019-07-28T15:02:10Z</time>
      </trkpt>
      <trkpt lat="44.80664" lon="4.08585">
        <ele>1040.28</ele>
        <time>2019-07-28T15:02:19Z</time>
      </trkpt>
      <trkpt lat="44.80669" lon="4.08572">
        <ele>1042.21</ele>
        <time>2019-07-28T15:02:28Z</time>
      </trkpt>
      <trkpt lat="44.8068" lon="4.08559">
        <ele>1044.61</ele>
        <time>2019-07-28T15:02:38Z</time>
      </trkpt>
      <trkpt lat="44.80692" lon="4.08552">
        <ele>1045.09</ele>
        <time>2019-07-28T15:02:48Z</time>
      </trkpt>
      <trkpt lat="44.8071" lon="4.08548">
        <ele>1046.53</ele>
        <time>2019-07-28T15:03:03Z</time>
      </trkpt>
      <trkpt lat="44.80725" lon="4.08548">
        <ele>1048.94</ele>
        <time>2019-07-28T15:03:14Z</time>
      </trkpt>
      <trkpt lat="44.80732" lon="4.08549">
        <ele>1049.9</ele>
        <time>2019-07-28T15:03:22Z</time>
      </trkpt>
      <trkpt lat="44.80735" lon="4.08548">
        <ele>1049.9</ele>
        <time>2019-07-28T15:03:24Z</time>
      </trkpt>
      <trkpt lat="44.8074" lon="4.08551">
        <ele>1051.34</ele>
        <time>2019-07-28T15:03:34Z</time>
      </trkpt>
      <trkpt lat="44.80752" lon="4.08552">
        <ele>1053.26</ele>
        <time>2019-07-28T15:03:43Z</time>
      </trkpt>
      <trkpt lat="44.80765" lon="4.08555">
        <ele>1055.18</ele>
        <time>2019-07-28T15:03:53Z</time>
      </trkpt>
      <trkpt lat="44.80775" lon="4.08559">
        <ele>1057.11</ele>
        <time>2019-07-28T15:04:02Z</time>
      </trkpt>
      <trkpt lat="44.80793" lon="4.08565">
        <ele>1058.55</ele>
        <time>2019-07-28T15:04:17Z</time>
      </trkpt>
      <trkpt lat="44.80815" lon="4.08573">
        <ele>1058.07</ele>
        <time>2019-07-28T15:04:33Z</time>
      </trkpt>
      <trkpt lat="44.80835" lon="4.08585">
        <ele>1056.63</ele>
        <time>2019-07-28T15:04:50Z</time>
      </trkpt>
      <trkpt lat="44.80864" lon="4.08588">
        <ele>1055.67</ele>
        <time>2019-07-28T15:05:11Z</time>
      </trkpt>
      <trkpt lat="44.80892" lon="4.08575">
        <ele>1054.7</ele>
        <time>2019-07-28T15:05:32Z</time>
      </trkpt>
      <trkpt lat="44.8091" lon="4.08548">
        <ele>1055.18</ele>
        <time>2019-07-28T15:05:53Z</time>
      </trkpt>
      <trkpt lat="44.80925" lon="4.08515">
        <ele>1055.18</ele>
        <time>2019-07-28T15:06:14Z</time>
      </trkpt>
      <trkpt lat="44.80943" lon="4.08485">
        <ele>1057.59</ele>
        <time>2019-07-28T15:06:36Z</time>
      </trkpt>
      <trkpt lat="44.80954" lon="4.08472">
        <ele>1058.07</ele>
        <time>2019-07-28T15:06:47Z</time>
      </trkpt>
      <trkpt lat="44.80967" lon="4.08463">
        <ele>1059.99</ele>
        <time>2019-07-28T15:06:58Z</time>
      </trkpt>
      <trkpt lat="44.8098" lon="4.08459">
        <ele>1059.03</ele>
        <time>2019-07-28T15:07:08Z</time>
      </trkpt>
      <trkpt lat="44.80992" lon="4.08454">
        <ele>1059.51</ele>
        <time>2019-07-28T15:07:18Z</time>
      </trkpt>
      <trkpt lat="44.80998" lon="4.08452">
        <ele>1059.03</ele>
        <time>2019-07-28T15:07:24Z</time>
      </trkpt>
      <trkpt lat="44.8101" lon="4.0844">
        <ele>1059.99</ele>
        <time>2019-07-28T15:07:34Z</time>
      </trkpt>
      <trkpt lat="44.81019" lon="4.08422">
        <ele>1060.47</ele>
        <time>2019-07-28T15:07:45Z</time>
      </trkpt>
      <trkpt lat="44.81025" lon="4.08404">
        <ele>1059.99</ele>
        <time>2019-07-28T15:07:56Z</time>
      </trkpt>
      <trkpt lat="44.81027" lon="4.084">
        <ele>1059.51</ele>
        <time>2019-07-28T15:07:58Z</time>
      </trkpt>
      <trkpt lat="44.81028" lon="4.08396">
        <ele>1059.99</ele>
        <time>2019-07-28T15:08:03Z</time>
      </trkpt>
      <trkpt lat="44.8104" lon="4.08378">
        <ele>1060.47</ele>
        <time>2019-07-28T15:08:12Z</time>
      </trkpt>
      <trkpt lat="44.81051" lon="4.08366">
        <ele>1061.91</ele>
        <time>2019-07-28T15:08:22Z</time>
      </trkpt>
      <trkpt lat="44.81056" lon="4.08362">
        <ele>1060.95</ele>
        <time>2019-07-28T15:08:27Z</time>
      </trkpt>
      <trkpt lat="44.81071" lon="4.08355">
        <ele>1060.95</ele>
        <time>2019-07-28T15:08:37Z</time>
      </trkpt>
      <trkpt lat="44.81088" lon="4.08352">
        <ele>1059.03</ele>
        <time>2019-07-28T15:08:48Z</time>
      </trkpt>
      <trkpt lat="44.81098" lon="4.08351">
        <ele>1057.59</ele>
        <time>2019-07-28T15:08:58Z</time>
      </trkpt>
      <trkpt lat="44.81106" lon="4.08341">
        <ele>1056.15</ele>
        <time>2019-07-28T15:09:06Z</time>
      </trkpt>
      <trkpt lat="44.81105" lon="4.08336">
        <ele>1056.15</ele>
        <time>2019-07-28T15:09:09Z</time>
      </trkpt>
      <trkpt lat="44.81106" lon="4.08315">
        <ele>1056.63</ele>
        <time>2019-07-28T15:09:20Z</time>
      </trkpt>
      <trkpt lat="44.81103" lon="4.08296">
        <ele>1056.63</ele>
        <time>2019-07-28T15:09:30Z</time>
      </trkpt>
      <trkpt lat="44.81101" lon="4.08276">
        <ele>1056.63</ele>
        <time>2019-07-28T15:09:41Z</time>
      </trkpt>
      <trkpt lat="44.81097" lon="4.08252">
        <ele>1055.67</ele>
        <time>2019-07-28T15:09:54Z</time>
      </trkpt>
      <trkpt lat="44.8109" lon="4.08236">
        <ele>1055.18</ele>
        <time>2019-07-28T15:10:04Z</time>
      </trkpt>
      <trkpt lat="44.81081" lon="4.08225">
        <ele>1056.15</ele>
        <time>2019-07-28T15:10:14Z</time>
      </trkpt>
      <trkpt lat="44.81072" lon="4.08207">
        <ele>1055.67</ele>
        <time>2019-07-28T15:10:25Z</time>
      </trkpt>
      <trkpt lat="44.81063" lon="4.08188">
        <ele>1056.63</ele>
        <time>2019-07-28T15:10:37Z</time>
      </trkpt>
      <trkpt lat="44.81055" lon="4.08172">
        <ele>1056.63</ele>
        <time>2019-07-28T15:10:47Z</time>
      </trkpt>
      <trkpt lat="44.81055" lon="4.08168">
        <ele>1056.15</ele>
        <time>2019-07-28T15:10:50Z</time>
      </trkpt>
      <trkpt lat="44.81051" lon="4.08147">
        <ele>1053.74</ele>
        <time>2019-07-28T15:11:03Z</time>
      </trkpt>
      <trkpt lat="44.8105" lon="4.08124">
        <ele>1053.26</ele>
        <time>2019-07-28T15:11:13Z</time>
      </trkpt>
      <trkpt lat="44.81051" lon="4.08118">
        <ele>1053.26</ele>
        <time>2019-07-28T15:11:17Z</time>
      </trkpt>
      <trkpt lat="44.81057" lon="4.08091">
        <ele>1054.22</ele>
        <time>2019-07-28T15:11:31Z</time>
      </trkpt>
      <trkpt lat="44.81059" lon="4.08089">
        <ele>1054.22</ele>
        <time>2019-07-28T15:11:33Z</time>
      </trkpt>
      <trkpt lat="44.81063" lon="4.08072">
        <ele>1055.18</ele>
        <time>2019-07-28T15:11:44Z</time>
      </trkpt>
      <trkpt lat="44.81067" lon="4.08054">
        <ele>1056.63</ele>
        <time>2019-07-28T15:11:54Z</time>
      </trkpt>
      <trkpt lat="44.81068" lon="4.08049">
        <ele>1057.11</ele>
        <time>2019-07-28T15:11:56Z</time>
      </trkpt>
      <trkpt lat="44.8107" lon="4.08041">
        <ele>1056.63</ele>
        <time>2019-07-28T15:12:01Z</time>
      </trkpt>
      <trkpt lat="44.81075" lon="4.08021">
        <ele>1056.63</ele>
        <time>2019-07-28T15:12:13Z</time>
      </trkpt>
      <trkpt lat="44.81078" lon="4.08005">
        <ele>1056.63</ele>
        <time>2019-07-28T15:12:22Z</time>
      </trkpt>
      <trkpt lat="44.81078" lon="4.07988">
        <ele>1056.15</ele>
        <time>2019-07-28T15:12:33Z</time>
      </trkpt>
      <trkpt lat="44.81077" lon="4.07972">
        <ele>1054.7</ele>
        <time>2019-07-28T15:12:43Z</time>
      </trkpt>
      <trkpt lat="44.81072" lon="4.07959">
        <ele>1053.26</ele>
        <time>2019-07-28T15:12:51Z</time>
      </trkpt>
      <trkpt lat="44.81066" lon="4.07946">
        <ele>1053.26</ele>
        <time>2019-07-28T15:12:59Z</time>
      </trkpt>
      <trkpt lat="44.81054" lon="4.07932">
        <ele>1055.67</ele>
        <time>2019-07-28T15:13:10Z</time>
      </trkpt>
      <trkpt lat="44.81046" lon="4.07922">
        <ele>1059.51</ele>
        <time>2019-07-28T15:13:21Z</time>
      </trkpt>
      <trkpt lat="44.81034" lon="4.07914">
        <ele>1062.39</ele>
        <time>2019-07-28T15:13:30Z</time>
      </trkpt>
      <trkpt lat="44.81027" lon="4.07909">
        <ele>1063.84</ele>
        <time>2019-07-28T15:13:39Z</time>
      </trkpt>
      <trkpt lat="44.81015" lon="4.07904">
        <ele>1066.72</ele>
        <time>2019-07-28T15:13:48Z</time>
      </trkpt>
      <trkpt lat="44.81006" lon="4.07898">
        <ele>1068.64</ele>
        <time>2019-07-28T15:13:58Z</time>
      </trkpt>
      <trkpt lat="44.80996" lon="4.07887">
        <ele>1071.05</ele>
        <time>2019-07-28T15:14:08Z</time>
      </trkpt>
      <trkpt lat="44.80995" lon="4.07885">
        <ele>1071.53</ele>
        <time>2019-07-28T15:14:11Z</time>
      </trkpt>
      <trkpt lat="44.80992" lon="4.0787">
        <ele>1071.53</ele>
        <time>2019-07-28T15:14:20Z</time>
      </trkpt>
      <trkpt lat="44.80989" lon="4.07852">
        <ele>1072.97</ele>
        <time>2019-07-28T15:14:32Z</time>
      </trkpt>
      <trkpt lat="44.80988" lon="4.0785">
        <ele>1073.45</ele>
        <time>2019-07-28T15:14:34Z</time>
      </trkpt>
      <trkpt lat="44.80987" lon="4.07843">
        <ele>1073.93</ele>
        <time>2019-07-28T15:14:38Z</time>
      </trkpt>
      <trkpt lat="44.80986" lon="4.0784">
        <ele>1075.37</ele>
        <time>2019-07-28T15:14:42Z</time>
      </trkpt>
      <trkpt lat="44.80985" lon="4.07814">
        <ele>1078.26</ele>
        <time>2019-07-28T15:14:55Z</time>
      </trkpt>
      <trkpt lat="44.80985" lon="4.07795">
        <ele>1078.26</ele>
        <time>2019-07-28T15:15:05Z</time>
      </trkpt>
      <trkpt lat="44.80985" lon="4.07794">
        <ele>1078.74</ele>
        <time>2019-07-28T15:15:06Z</time>
      </trkpt>
      <trkpt lat="44.80986" lon="4.07772">
        <ele>1078.74</ele>
        <time>2019-07-28T15:15:18Z</time>
      </trkpt>
      <trkpt lat="44.80986" lon="4.07769">
        <ele>1078.74</ele>
        <time>2019-07-28T15:15:20Z</time>
      </trkpt>
      <trkpt lat="44.80987" lon="4.07761">
        <ele>1078.74</ele>
        <time>2019-07-28T15:15:25Z</time>
      </trkpt>
      <trkpt lat="44.80988" lon="4.07739">
        <ele>1076.33</ele>
        <time>2019-07-28T15:15:36Z</time>
      </trkpt>
      <trkpt lat="44.80988" lon="4.07735">
        <ele>1075.85</ele>
        <time>2019-07-28T15:15:39Z</time>
      </trkpt>
      <trkpt lat="44.80994" lon="4.07716">
        <ele>1075.85</ele>
        <time>2019-07-28T15:15:50Z</time>
      </trkpt>
      <trkpt lat="44.80999" lon="4.07704">
        <ele>1075.85</ele>
        <time>2019-07-28T15:15:59Z</time>
      </trkpt>
      <trkpt lat="44.81004" lon="4.07693">
        <ele>1076.81</ele>
        <time>2019-07-28T15:16:07Z</time>
      </trkpt>
      <trkpt lat="44.81008" lon="4.07679">
        <ele>1078.74</ele>
        <time>2019-07-28T15:16:16Z</time>
      </trkpt>
      <trkpt lat="44.81012" lon="4.07669">
        <ele>1080.18</ele>
        <time>2019-07-28T15:16:24Z</time>
      </trkpt>
      <trkpt lat="44.81017" lon="4.07664">
        <ele>1079.22</ele>
        <time>2019-07-28T15:16:33Z</time>
      </trkpt>
      <trkpt lat="44.81022" lon="4.07659">
        <ele>1078.74</ele>
        <time>2019-07-28T15:16:51Z</time>
      </trkpt>
      <trkpt lat="44.81023" lon="4.07658">
        <ele>1078.74</ele>
        <time>2019-07-28T15:17:09Z</time>
      </trkpt>
      <trkpt lat="44.81023" lon="4.07659">
        <ele>1081.14</ele>
        <time>2019-07-28T15:18:18Z</time>
      </trkpt>
      <trkpt lat="44.81023" lon="4.0766">
        <ele>1082.1</ele>
        <time>2019-07-28T15:18:40Z</time>
      </trkpt>
      <trkpt lat="44.81011" lon="4.07658">
        <ele>1084.99</ele>
        <time>2019-07-28T15:18:53Z</time>
      </trkpt>
      <trkpt lat="44.80995" lon="4.07668">
        <ele>1086.91</ele>
        <time>2019-07-28T15:19:08Z</time>
      </trkpt>
      <trkpt lat="44.80992" lon="4.07667">
        <ele>1086.91</ele>
        <time>2019-07-28T15:19:11Z</time>
      </trkpt>
      <trkpt lat="44.80986" lon="4.07654">
        <ele>1090.27</ele>
        <time>2019-07-28T15:19:21Z</time>
      </trkpt>
      <trkpt lat="44.80986" lon="4.0765">
        <ele>1090.75</ele>
        <time>2019-07-28T15:19:23Z</time>
      </trkpt>
      <trkpt lat="44.80983" lon="4.07628">
        <ele>1090.27</ele>
        <time>2019-07-28T15:19:36Z</time>
      </trkpt>
      <trkpt lat="44.80983" lon="4.07614">
        <ele>1091.23</ele>
        <time>2019-07-28T15:19:45Z</time>
      </trkpt>
      <trkpt lat="44.80982" lon="4.07607">
        <ele>1092.2</ele>
        <time>2019-07-28T15:19:49Z</time>
      </trkpt>
      <trkpt lat="44.80981" lon="4.07592">
        <ele>1093.16</ele>
        <time>2019-07-28T15:20:00Z</time>
      </trkpt>
      <trkpt lat="44.80979" lon="4.07582">
        <ele>1092.68</ele>
        <time>2019-07-28T15:20:08Z</time>
      </trkpt>
      <trkpt lat="44.80969" lon="4.07554">
        <ele>1089.79</ele>
        <time>2019-07-28T15:20:27Z</time>
      </trkpt>
      <trkpt lat="44.80968" lon="4.07534">
        <ele>1087.87</ele>
        <time>2019-07-28T15:20:37Z</time>
      </trkpt>
      <trkpt lat="44.80962" lon="4.07498">
        <ele>1082.1</ele>
        <time>2019-07-28T15:20:57Z</time>
      </trkpt>
      <trkpt lat="44.80959" lon="4.07487">
        <ele>1080.66</ele>
        <time>2019-07-28T15:21:03Z</time>
      </trkpt>
      <trkpt lat="44.80956" lon="4.07451">
        <ele>1074.89</ele>
        <time>2019-07-28T15:21:26Z</time>
      </trkpt>
      <trkpt lat="44.80954" lon="4.07401">
        <ele>1082.58</ele>
        <time>2019-07-28T15:21:47Z</time>
      </trkpt>
      <trkpt lat="44.80952" lon="4.07372">
        <ele>1084.99</ele>
        <time>2019-07-28T15:22:11Z</time>
      </trkpt>
      <trkpt lat="44.80944" lon="4.07347">
        <ele>1082.58</ele>
        <time>2019-07-28T15:22:30Z</time>
      </trkpt>
      <trkpt lat="44.80941" lon="4.07297">
        <ele>1085.95</ele>
        <time>2019-07-28T15:22:51Z</time>
      </trkpt>
      <trkpt lat="44.80942" lon="4.0729">
        <ele>1087.39</ele>
        <time>2019-07-28T15:22:54Z</time>
      </trkpt>
      <trkpt lat="44.80943" lon="4.07286">
        <ele>1088.35</ele>
        <time>2019-07-28T15:22:56Z</time>
      </trkpt>
      <trkpt lat="44.8094" lon="4.07259">
        <ele>1092.2</ele>
        <time>2019-07-28T15:23:16Z</time>
      </trkpt>
      <trkpt lat="44.80934" lon="4.07244">
        <ele>1093.64</ele>
        <time>2019-07-28T15:23:28Z</time>
      </trkpt>
      <trkpt lat="44.80928" lon="4.07238">
        <ele>1097</ele>
        <time>2019-07-28T15:23:40Z</time>
      </trkpt>
      <trkpt lat="44.80927" lon="4.07238">
        <ele>1097</ele>
        <time>2019-07-28T15:23:56Z</time>
      </trkpt>
      <trkpt lat="44.80918" lon="4.07201">
        <ele>1091.23</ele>
        <time>2019-07-28T15:24:17Z</time>
      </trkpt>
      <trkpt lat="44.80918" lon="4.07168">
        <ele>1097.48</ele>
        <time>2019-07-28T15:24:40Z</time>
      </trkpt>
      <trkpt lat="44.80916" lon="4.07138">
        <ele>1099.4</ele>
        <time>2019-07-28T15:24:59Z</time>
      </trkpt>
      <trkpt lat="44.80915" lon="4.07106">
        <ele>1097.96</ele>
        <time>2019-07-28T15:25:18Z</time>
      </trkpt>
      <trkpt lat="44.8091" lon="4.07082">
        <ele>1098.92</ele>
        <time>2019-07-28T15:25:35Z</time>
      </trkpt>
      <trkpt lat="44.80906" lon="4.07046">
        <ele>1100.37</ele>
        <time>2019-07-28T15:25:55Z</time>
      </trkpt>
      <trkpt lat="44.80904" lon="4.0701">
        <ele>1108.06</ele>
        <time>2019-07-28T15:26:17Z</time>
      </trkpt>
      <trkpt lat="44.80898" lon="4.06977">
        <ele>1116.23</ele>
        <time>2019-07-28T15:26:41Z</time>
      </trkpt>
      <trkpt lat="44.80896" lon="4.06937">
        <ele>1124.88</ele>
        <time>2019-07-28T15:27:04Z</time>
      </trkpt>
      <trkpt lat="44.80901" lon="4.06903">
        <ele>1126.8</ele>
        <time>2019-07-28T15:27:21Z</time>
      </trkpt>
      <trkpt lat="44.809" lon="4.06881">
        <ele>1126.8</ele>
        <time>2019-07-28T15:27:33Z</time>
      </trkpt>
      <trkpt lat="44.80899" lon="4.06865">
        <ele>1129.21</ele>
        <time>2019-07-28T15:27:43Z</time>
      </trkpt>
      <trkpt lat="44.80899" lon="4.06861">
        <ele>1130.17</ele>
        <time>2019-07-28T15:27:47Z</time>
      </trkpt>
      <trkpt lat="44.80898" lon="4.06844">
        <ele>1130.65</ele>
        <time>2019-07-28T15:27:55Z</time>
      </trkpt>
      <trkpt lat="44.80898" lon="4.06837">
        <ele>1130.65</ele>
        <time>2019-07-28T15:28:00Z</time>
      </trkpt>
      <trkpt lat="44.80889" lon="4.06821">
        <ele>1132.09</ele>
        <time>2019-07-28T15:28:11Z</time>
      </trkpt>
      <trkpt lat="44.80887" lon="4.0682">
        <ele>1132.09</ele>
        <time>2019-07-28T15:28:13Z</time>
      </trkpt>
      <trkpt lat="44.80883" lon="4.06809">
        <ele>1130.17</ele>
        <time>2019-07-28T15:28:22Z</time>
      </trkpt>
      <trkpt lat="44.8088" lon="4.06783">
        <ele>1126.8</ele>
        <time>2019-07-28T15:28:38Z</time>
      </trkpt>
      <trkpt lat="44.80881" lon="4.06756">
        <ele>1124.88</ele>
        <time>2019-07-28T15:28:53Z</time>
      </trkpt>
      <trkpt lat="44.80889" lon="4.06729">
        <ele>1123.44</ele>
        <time>2019-07-28T15:29:06Z</time>
      </trkpt>
      <trkpt lat="44.8089" lon="4.06725">
        <ele>1122.96</ele>
        <time>2019-07-28T15:29:09Z</time>
      </trkpt>
      <trkpt lat="44.80889" lon="4.06701">
        <ele>1122.96</ele>
        <time>2019-07-28T15:29:25Z</time>
      </trkpt>
      <trkpt lat="44.80875" lon="4.06682">
        <ele>1120.55</ele>
        <time>2019-07-28T15:29:40Z</time>
      </trkpt>
      <trkpt lat="44.80873" lon="4.06674">
        <ele>1119.59</ele>
        <time>2019-07-28T15:29:44Z</time>
      </trkpt>
      <trkpt lat="44.80869" lon="4.06664">
        <ele>1117.67</ele>
        <time>2019-07-28T15:29:56Z</time>
      </trkpt>
      <trkpt lat="44.80862" lon="4.06649">
        <ele>1113.82</ele>
        <time>2019-07-28T15:30:10Z</time>
      </trkpt>
      <trkpt lat="44.80857" lon="4.06634">
        <ele>1112.86</ele>
        <time>2019-07-28T15:30:20Z</time>
      </trkpt>
      <trkpt lat="44.80852" lon="4.06619">
        <ele>1110.94</ele>
        <time>2019-07-28T15:30:31Z</time>
      </trkpt>
      <trkpt lat="44.80842" lon="4.06605">
        <ele>1108.06</ele>
        <time>2019-07-28T15:30:48Z</time>
      </trkpt>
      <trkpt lat="44.80837" lon="4.06588">
        <ele>1106.61</ele>
        <time>2019-07-28T15:31:08Z</time>
      </trkpt>
      <trkpt lat="44.80817" lon="4.06571">
        <ele>1103.73</ele>
        <time>2019-07-28T15:31:25Z</time>
      </trkpt>
      <trkpt lat="44.80816" lon="4.06567">
        <ele>1102.77</ele>
        <time>2019-07-28T15:31:30Z</time>
      </trkpt>
      <trkpt lat="44.80811" lon="4.06561">
        <ele>1100.37</ele>
        <time>2019-07-28T15:31:41Z</time>
      </trkpt>
      <trkpt lat="44.808" lon="4.06555">
        <ele>1097</ele>
        <time>2019-07-28T15:31:54Z</time>
      </trkpt>
      <trkpt lat="44.80794" lon="4.06547">
        <ele>1095.08</ele>
        <time>2019-07-28T15:32:04Z</time>
      </trkpt>
      <trkpt lat="44.80781" lon="4.06541">
        <ele>1094.12</ele>
        <time>2019-07-28T15:32:19Z</time>
      </trkpt>
      <trkpt lat="44.80784" lon="4.06512">
        <ele>1091.23</ele>
        <time>2019-07-28T15:32:32Z</time>
      </trkpt>
      <trkpt lat="44.80785" lon="4.0648">
        <ele>1087.39</ele>
        <time>2019-07-28T15:32:51Z</time>
      </trkpt>
      <trkpt lat="44.80797" lon="4.06455">
        <ele>1083.06</ele>
        <time>2019-07-28T15:33:11Z</time>
      </trkpt>
      <trkpt lat="44.80829" lon="4.06438">
        <ele>1077.78</ele>
        <time>2019-07-28T15:33:32Z</time>
      </trkpt>
      <trkpt lat="44.80851" lon="4.06433">
        <ele>1071.05</ele>
        <time>2019-07-28T15:33:53Z</time>
      </trkpt>
      <trkpt lat="44.80878" lon="4.06419">
        <ele>1068.16</ele>
        <time>2019-07-28T15:34:14Z</time>
      </trkpt>
      <trkpt lat="44.80894" lon="4.06416">
        <ele>1065.28</ele>
        <time>2019-07-28T15:34:37Z</time>
      </trkpt>
      <trkpt lat="44.80937" lon="4.06416">
        <ele>1059.99</ele>
        <time>2019-07-28T15:34:59Z</time>
      </trkpt>
      <trkpt lat="44.8094" lon="4.06415">
        <ele>1054.7</ele>
        <time>2019-07-28T15:35:19Z</time>
      </trkpt>
      <trkpt lat="44.8096" lon="4.06418">
        <ele>1046.05</ele>
        <time>2019-07-28T15:35:39Z</time>
      </trkpt>
      <trkpt lat="44.80967" lon="4.06425">
        <ele>1042.69</ele>
        <time>2019-07-28T15:35:44Z</time>
      </trkpt>
      <trkpt lat="44.80974" lon="4.06436">
        <ele>1032.11</ele>
        <time>2019-07-28T15:36:04Z</time>
      </trkpt>
      <trkpt lat="44.80999" lon="4.06445">
        <ele>1024.42</ele>
        <time>2019-07-28T15:36:29Z</time>
      </trkpt>
      <trkpt lat="44.81013" lon="4.06448">
        <ele>1023.94</ele>
        <time>2019-07-28T15:36:51Z</time>
      </trkpt>
      <trkpt lat="44.81028" lon="4.06453">
        <ele>1021.54</ele>
        <time>2019-07-28T15:37:14Z</time>
      </trkpt>
      <trkpt lat="44.81084" lon="4.06467">
        <ele>1021.06</ele>
        <time>2019-07-28T15:37:36Z</time>
      </trkpt>
      <trkpt lat="44.81093" lon="4.06474">
        <ele>1010.96</ele>
        <time>2019-07-28T15:37:59Z</time>
      </trkpt>
      <trkpt lat="44.81139" lon="4.06498">
        <ele>1000.87</ele>
        <time>2019-07-28T15:38:22Z</time>
      </trkpt>
      <trkpt lat="44.81162" lon="4.06509">
        <ele>991.74</ele>
        <time>2019-07-28T15:38:41Z</time>
      </trkpt>
      <trkpt lat="44.81186" lon="4.06529">
        <ele>990.78</ele>
        <time>2019-07-28T15:39:06Z</time>
      </trkpt>
      <trkpt lat="44.812" lon="4.06534">
        <ele>991.74</ele>
        <time>2019-07-28T15:39:30Z</time>
      </trkpt>
      <trkpt lat="44.81229" lon="4.06546">
        <ele>987.41</ele>
        <time>2019-07-28T15:39:51Z</time>
      </trkpt>
      <trkpt lat="44.81247" lon="4.06557">
        <ele>991.74</ele>
        <time>2019-07-28T15:40:09Z</time>
      </trkpt>
      <trkpt lat="44.81259" lon="4.0656">
        <ele>996.06</ele>
        <time>2019-07-28T15:40:14Z</time>
      </trkpt>
      <trkpt lat="44.8128" lon="4.06562">
        <ele>1001.35</ele>
        <time>2019-07-28T15:40:23Z</time>
      </trkpt>
      <trkpt lat="44.813" lon="4.06582">
        <ele>1000.87</ele>
        <time>2019-07-28T15:40:43Z</time>
      </trkpt>
      <trkpt lat="44.81302" lon="4.06579">
        <ele>1000.87</ele>
        <time>2019-07-28T15:40:59Z</time>
      </trkpt>
      <trkpt lat="44.81306" lon="4.06566">
        <ele>992.22</ele>
        <time>2019-07-28T15:41:21Z</time>
      </trkpt>
      <trkpt lat="44.81311" lon="4.06576">
        <ele>990.78</ele>
        <time>2019-07-28T15:41:47Z</time>
      </trkpt>
      <trkpt lat="44.81312" lon="4.06581">
        <ele>988.85</ele>
        <time>2019-07-28T15:41:55Z</time>
      </trkpt>
      <trkpt lat="44.81302" lon="4.0658">
        <ele>996.54</ele>
        <time>2019-07-28T15:42:15Z</time>
      </trkpt>
      <trkpt lat="44.81302" lon="4.06579">
        <ele>997.51</ele>
        <time>2019-07-28T15:42:16Z</time>
      </trkpt>
      <trkpt lat="44.81303" lon="4.06575">
        <ele>1000.39</ele>
        <time>2019-07-28T15:42:18Z</time>
      </trkpt>
      <trkpt lat="44.81304" lon="4.06568">
        <ele>1002.31</ele>
        <time>2019-07-28T15:42:22Z</time>
      </trkpt>
      <trkpt lat="44.81322" lon="4.06544">
        <ele>1003.27</ele>
        <time>2019-07-28T15:42:41Z</time>
      </trkpt>
      <trkpt lat="44.81334" lon="4.06525">
        <ele>1011.93</ele>
        <time>2019-07-28T15:42:52Z</time>
      </trkpt>
      <trkpt lat="44.81337" lon="4.06523">
        <ele>1014.33</ele>
        <time>2019-07-28T15:42:56Z</time>
      </trkpt>
      <trkpt lat="44.81346" lon="4.06506">
        <ele>1018.17</ele>
        <time>2019-07-28T15:43:10Z</time>
      </trkpt>
      <trkpt lat="44.81356" lon="4.065">
        <ele>1015.29</ele>
        <time>2019-07-28T15:43:18Z</time>
      </trkpt>
      <trkpt lat="44.81368" lon="4.06484">
        <ele>1015.77</ele>
        <time>2019-07-28T15:43:29Z</time>
      </trkpt>
      <trkpt lat="44.81379" lon="4.06472">
        <ele>1014.81</ele>
        <time>2019-07-28T15:43:40Z</time>
      </trkpt>
      <trkpt lat="44.81387" lon="4.0646">
        <ele>1014.81</ele>
        <time>2019-07-28T15:43:50Z</time>
      </trkpt>
      <trkpt lat="44.81399" lon="4.06446">
        <ele>1014.81</ele>
        <time>2019-07-28T15:44:02Z</time>
      </trkpt>
      <trkpt lat="44.81407" lon="4.06433">
        <ele>1017.69</ele>
        <time>2019-07-28T15:44:12Z</time>
      </trkpt>
      <trkpt lat="44.81421" lon="4.06418">
        <ele>1019.13</ele>
        <time>2019-07-28T15:44:25Z</time>
      </trkpt>
      <trkpt lat="44.81425" lon="4.06412">
        <ele>1019.13</ele>
        <time>2019-07-28T15:44:29Z</time>
      </trkpt>
      <trkpt lat="44.81436" lon="4.06405">
        <ele>1017.21</ele>
        <time>2019-07-28T15:44:36Z</time>
      </trkpt>
      <trkpt lat="44.81448" lon="4.06392">
        <ele>1017.21</ele>
        <time>2019-07-28T15:44:48Z</time>
      </trkpt>
      <trkpt lat="44.81457" lon="4.06377">
        <ele>1017.69</ele>
        <time>2019-07-28T15:44:59Z</time>
      </trkpt>
      <trkpt lat="44.81469" lon="4.06362">
        <ele>1019.13</ele>
        <time>2019-07-28T15:45:09Z</time>
      </trkpt>
      <trkpt lat="44.81482" lon="4.06349">
        <ele>1018.17</ele>
        <time>2019-07-28T15:45:20Z</time>
      </trkpt>
      <trkpt lat="44.81491" lon="4.06341">
        <ele>1018.65</ele>
        <time>2019-07-28T15:45:29Z</time>
      </trkpt>
      <trkpt lat="44.81501" lon="4.06332">
        <ele>1018.65</ele>
        <time>2019-07-28T15:45:39Z</time>
      </trkpt>
      <trkpt lat="44.81516" lon="4.06323">
        <ele>1018.65</ele>
        <time>2019-07-28T15:45:51Z</time>
      </trkpt>
      <trkpt lat="44.81531" lon="4.06314">
        <ele>1016.73</ele>
        <time>2019-07-28T15:46:05Z</time>
      </trkpt>
    </trkseg>
  </trk>
</gpx>